[[{"header":{"parameterUnit":"m.s-1","parameterCategory":1,"la1":31.0,"la2":29.5877,"lo1":-88.7671,"lo2":-86.6584,"dy":0.0162,"dx":0.0185,"nx":115,"ny":88,"refTime":"2024-07-01T00:00:00:Z","depth":0,"parameterNumber":2,"parameterNumberName":"U-component_of_WINDS"},"data":[0.0,0.0,0.0,0.0,0.0,0.0,0.0,0.0,0.0,0.0,0.0,0.0,0.0,0.0,0.0,0.0,0.0,0.0,0.0,0.0,0.0,0.0,0.0,0.0,0.0,0.0,0.0,0.0,0.0,0.0,0.0,0.0,0.0,0.0,0.0,0.0,0.0,0.0,0.0,0.0,0.0,0.0,0.0,0.0,0.0,0.0,0.0,0.0,0.0,0.0,0.0,0.0,0.0,0.0,0.0,0.0,0.0,0.0,0.0,0.0,0.0,0.0,0.0,0.0,0.0,0.0,0.0,0.0,0.0,0.0,0.0,0.0,0.0,0.0,0.0,0.0,0.0,0.0,0.0,0.0,0.0,0.0,0.0,0.0,0.0,0.0,0.0,0.0,0.0,0.0,0.0,0.0,0.0,0.0,0.0,0.0,0.0,0.0,0.0,0.0,0.0,0.0,0.0,0.0,0.0,0.0,0.0,0.0,0.0,0.0,0.0,0.0,0.0,0.0,0.0,0.0,0.0,0.0,0.0,0.0,0.0,0.0,0.0,0.0,0.0,0.0,0.0,0.0,0.0,0.0,0.0,0.0,0.0,0.0,0.0,0.0,0.0,0.0,0.0,0.0,0.0,0.0,0.0,0.0,0.0,0.0,0.0,0.0,0.0,0.0,0.0,0.0,0.0,0.0,0.0,0.0,0.0,0.0,0.0,0.0,0.0,0.0,0.0,0.0,0.0,0.0,0.0,0.0,0.0,0.0,0.0,0.0,0.0,0.0,0.0,0.0,0.0,0.0,0.0,0.0,0.0,0.0,0.0,0.0,0.0,0.0,0.0,0.0,0.0,0.0,0.0,0.0,0.0,0.0,0.0,0.0,0.0,0.0,0.0,0.0,0.0,0.0,0.0,0.0,0.0,0.0,0.0,0.0,0.0,0.0,0.0,0.0,0.0,0.0,0.0,0.0,0.0,0.0,0.0,0.0,0.0,0.0,0.0,0.0,0.0,0.0,0.0,0.0,0.0,0.0,0.0,0.0,0.0,0.0,0.0,0.0,0.0,0.0,0.0,0.0,0.0,0.0,0.0,0.0,0.0,0.0,0.0,0.0,0.0,0.0,0.0,0.0,0.0,0.0,0.0,0.0,0.0,0.0,0.0,0.0,0.0,0.0,0.0,0.0,0.0,0.0,0.0,0.0,0.0,0.0,0.0,0.0,0.0,0.0,0.0,0.0,0.0,0.0,0.0,0.0,0.0,0.0,0.0,0.0,0.0,0.0,0.0,0.0,0.0,0.0,0.0,0.0,0.0,0.0,0.0,0.0,0.0,0.0,0.0,0.0,0.0,0.0,0.0,0.0,0.0,0.0,0.0,0.0,0.0,0.0,0.0,0.0,0.0,0.0,0.0,0.0,0.0,0.0,0.0,0.0,0.0,0.0,0.0,0.0,0.0,0.0,0.0,0.0,0.0,0.0,0.0,0.0,0.0,0.0,0.0,0.0,0.0,0.0,0.0,0.0,0.0,0.0,0.0,0.0,0.0,0.0,0.0,0.0,0.0,0.0,0.0,0.0,0.0,0.0,0.0,0.0,0.0,0.0,0.0,0.0,0.0,0.0,0.0,0.0,0.0,0.0,0.0,0.0,0.0,0.0,0.0,0.0,0.0,0.0,0.0,0.0,0.0,0.0,0.0,0.0,0.0,0.0,0.0,0.0,0.0,0.0,0.0,0.0,0.0,0.0,0.0,0.0,0.0,0.0,0.0,0.0,0.0,0.0,0.0,0.0,0.0,0.0,0.0,0.0,0.0,0.0,0.0,0.0,0.0,0.0,0.0,0.0,0.0,0.0,0.0,0.0,0.0,0.0,0.0,0.0,0.0,0.0,0.0,0.0,0.0,0.0,0.0,0.0,0.0,0.0,0.0,0.0,0.0,0.0,0.0,0.0,0.0,0.0,0.0,0.0,0.0,0.0,0.0,0.0,0.0,0.0,0.0,0.0,0.0,0.0,0.0,0.0,0.0,0.0,0.0,0.0,0.0,0.0,0.0,0.0,0.0,0.0,0.0,0.0,0.0,0.0,0.0,0.0,0.0,0.0,0.0,0.0,0.0,0.0,0.0,0.0,0.0,0.0,0.0,0.0,0.0,0.0,0.0,0.0,0.0,0.0,0.0,0.0,0.0,0.0,0.0,0.0,0.0,0.0,0.0,0.0,0.0,0.0,0.0,0.0,0.0,0.0,0.0,0.0,0.0,0.0,0.0,0.0,0.0,0.0,0.0,0.0,0.0,0.0,0.0,0.0,0.0,0.0,0.0,0.0,0.0,0.0,0.0,0.0,0.0,0.0,0.0,0.0,0.0,0.0,0.0,0.0,0.0,0.0,0.0,0.0,0.0,0.0,0.0,0.0,0.0,0.0,0.0,0.0,0.0,0.0,0.0,0.0,0.0,0.0,0.0,0.0,0.0,0.0,0.0,0.0,0.0,0.0,0.0,0.0,0.0,0.0,0.0,0.0,0.0,0.0,0.0,0.0,0.0,0.0,0.0,0.0,0.0,0.0,0.0,0.0,0.0,0.0,0.0,0.0,0.0,0.0,0.0,0.0,0.0,0.0,0.0,0.0,0.0,0.0,0.0,0.0,0.0,0.0,0.0,0.0,0.0,0.0,0.0,0.0,0.0,0.0,0.0,0.0,0.0,0.0,0.0,0.0,0.0,0.0,0.0,0.0,0.0,0.0,0.0,0.0,0.0,0.0,0.0,0.0,0.0,0.0,0.0,0.0,0.0,0.0,0.0,0.0,0.0,0.0,0.0,0.0,0.0,0.0,0.0,0.0,0.0,0.0,0.0,0.0,0.0,0.0,0.0,0.0,0.0,0.0,0.0,0.0,0.0,0.0,0.0,0.0,0.0,0.0,0.0,0.0,0.0,0.0,0.0,0.0,0.0,0.0,0.0,0.0,0.0,0.0,0.0,0.0,0.0,0.0,0.0,0.0,0.0,0.0,0.0,0.0,0.0,0.0,0.0,0.0,0.0,0.0,0.0,0.0,0.0,0.0,0.0,0.0,0.0,0.0,0.0,0.0,0.0,0.0,0.0,0.0,0.0,0.0,0.0,0.0,0.0,0.0,0.0,0.0,0.0,0.0,0.0,0.0,0.0,0.0,0.0,0.0,0.0,0.0,0.0,0.0,0.0,0.0,0.0,0.0,0.0,0.0,0.0,0.0,0.0,0.0,0.0,0.0,0.0,0.0,0.0,0.0,0.0,0.0,0.0,0.0,0.0,0.0,0.0,0.0,0.0,0.0,0.0,0.0,0.0,0.0,0.0,0.0,0.0,0.0,0.0,0.0,0.0,0.0,0.0,0.0,0.0,0.0,0.0,0.0,0.0,0.0,0.0,0.0,0.0,0.0,0.0,0.0,0.0,0.0,0.0,0.0,0.0,0.0,0.0,0.0,0.0,0.0,0.0,0.0,0.0,0.0,0.0,0.0,0.0,0.0,0.0,0.0,0.0,0.0,0.0,0.0,0.0,0.0,0.0,0.0,0.0,0.0,0.0,0.0,0.0,0.0,0.0,0.0,0.0,0.0,0.0,0.0,0.0,0.0,0.0,0.0,0.0,0.0,0.0,0.0,0.0,0.0,0.0,0.0,0.0,0.0,0.0,0.0,0.0,0.0,0.0,0.0,0.0,0.0,0.0,0.0,0.0,0.0,0.0,0.0,0.0,0.0,0.0,0.0,0.0,0.0,0.0,0.0,0.0,0.0,0.0,0.0,0.0,0.0,0.0,0.0,0.0,0.0,0.0,0.0,0.0,0.0,0.0,0.0,0.0,0.0,0.0,0.0,0.0,0.0,0.0,0.0,0.0,0.0,0.0,0.0,0.0,0.0,0.0,0.0,0.0,0.0,0.0,0.0,0.0,0.0,0.0,0.0,0.0,0.0,0.0,0.0,0.0,0.0,0.0,0.0,0.0,0.0,0.0,0.0,0.0,0.0,0.0,0.0,0.0,0.0,0.0,0.0,0.0,0.0,0.0,0.0,0.0,0.0,0.0,0.0,0.0,0.0,0.0,0.0,0.0,0.0,0.0,0.0,0.0,0.0,0.0,0.0,0.0,0.0,0.0,0.0,0.0,0.0,0.0,0.0,0.0,0.0,0.0,0.0,0.0,0.0,0.0,0.0,0.0,0.0,0.0,0.0,0.0,0.0,0.0,0.0,0.0,0.0,0.0,0.0,0.0,0.0,0.0,0.0,0.0,0.0,0.0,0.0,0.0,0.0,0.0,0.0,0.0,0.0,-0.9062,0.0,0.0,0.0,0.0,0.0,0.0,0.0,0.0,0.0,0.0,0.0,0.0,0.0,0.0,0.0,0.0,0.0,0.0,0.0,0.0,0.0,0.0,0.0,0.0,0.0,0.0,0.0,0.0,0.0,0.0,0.0,0.0,0.0,0.0,0.0,0.0,0.0,0.0,0.0,0.0,0.0,0.0,0.0,0.0,0.0,0.0,0.0,0.0,0.0,0.0,0.0,0.0,0.0,0.0,0.0,0.0,0.0,0.0,0.0,0.0,0.0,0.0,0.0,0.0,0.0,0.0,0.0,0.0,0.0,0.0,0.0,0.0,0.0,0.0,0.0,0.0,0.0,0.0,0.0,0.0,0.0,0.0,0.0,0.0,0.0,0.0,0.0,0.0,0.0,0.0,0.0,0.0,0.0,0.0,0.0,0.0,0.0,0.0,0.0,0.0,0.0,0.0,0.0,0.0,0.0,0.0,0.0,0.0,0.0,0.0,-1.0312,-1.0312,-1.0312,-1.0117,-0.9746,0.0,0.0,0.0,0.0,0.0,0.0,0.0,0.0,0.0,0.0,0.0,0.0,0.0,0.0,0.0,0.0,0.0,0.0,0.0,0.0,0.0,0.0,0.0,0.0,0.0,0.0,0.0,0.0,0.0,0.0,0.0,0.0,0.0,0.0,0.0,0.0,0.0,0.0,0.0,0.0,0.0,0.0,0.0,0.0,0.0,0.0,0.0,0.0,0.0,0.0,0.0,0.0,0.0,0.0,0.0,0.0,0.0,0.0,0.0,0.0,0.0,0.0,0.0,0.0,0.0,0.0,0.0,0.0,0.0,0.0,0.0,0.0,0.0,0.0,0.0,0.0,0.0,0.0,0.0,0.0,0.0,0.0,0.0,0.0,0.0,0.0,0.0,0.0,0.0,0.0,0.0,0.0,0.0,0.0,0.0,0.0,0.0,0.0,0.0,0.0,0.0,0.0,0.0,0.0,0.0,0.0,0.0,0.0,0.0,0.0,0.0,0.0,-1.0312,-1.0312,-1.0312,0.0,0.0,0.0,0.0,0.0,0.0,0.0,0.0,0.0,0.0,0.0,0.0,0.0,0.0,0.0,0.0,0.0,0.0,0.0,0.0,0.0,0.0,0.0,0.0,0.0,0.0,0.0,0.0,0.0,0.0,0.0,0.0,0.0,0.0,0.0,0.0,0.0,0.0,0.0,0.0,0.0,0.0,0.0,0.0,0.0,0.0,0.0,0.0,0.0,0.0,0.0,0.0,0.0,0.0,0.0,0.0,0.0,0.0,0.0,0.0,0.0,0.0,0.0,0.0,0.0,0.0,0.0,0.0,0.0,0.0,0.0,0.0,0.0,0.0,0.0,0.0,0.0,0.0,0.0,0.0,0.0,0.0,0.0,0.0,0.0,0.0,0.0,0.0,0.0,0.0,0.0,0.0,0.0,0.0,0.0,0.0,0.0,0.0,0.0,0.0,0.0,0.0,0.0,0.0,0.0,0.0,0.0,0.0,0.0,0.0,-1.0312,-1.0312,-1.0312,0.0,-1.0312,0.0,0.0,0.0,0.0,0.0,0.0,0.0,0.0,0.0,0.0,0.0,0.0,0.0,0.0,0.0,0.0,0.0,0.0,0.0,0.0,0.0,0.0,0.0,0.0,0.0,0.0,0.0,0.0,0.0,0.0,0.0,0.0,0.0,0.0,0.0,0.0,0.0,0.0,0.0,0.0,0.0,0.0,0.0,0.0,0.0,0.0,0.0,0.0,0.0,0.0,0.0,0.0,0.0,0.0,0.0,0.0,0.0,0.0,0.0,0.0,0.0,0.0,0.0,0.0,0.0,0.0,0.0,0.0,0.0,0.0,0.0,0.0,0.0,0.0,0.0,0.0,0.0,0.0,0.0,0.0,0.0,0.0,0.0,0.0,0.0,0.0,0.0,0.0,0.0,0.0,0.0,0.0,0.0,0.0,0.0,0.0,0.0,0.0,0.0,0.0,0.0,0.0,0.0,0.0,0.0,0.0,0.0,0.0,0.0,0.0,0.0,-1.1836,-1.1348,-1.1074,0.0,0.0,0.0,0.0,0.0,0.0,0.0,0.0,0.0,0.0,0.0,0.0,0.0,0.0,0.0,0.0,0.0,0.0,0.0,0.0,0.0,0.0,0.0,0.0,0.0,0.0,0.0,0.0,0.0,0.0,0.0,0.0,0.0,0.0,0.0,0.0,0.0,0.0,0.0,0.0,0.0,0.0,0.0,0.0,0.0,0.0,0.0,0.0,0.0,0.0,0.0,0.0,0.0,0.0,0.0,0.0,0.0,0.0,0.0,0.0,0.0,0.0,0.0,0.0,0.0,0.0,0.0,0.0,0.0,0.0,0.0,0.0,0.0,0.0,0.0,0.0,0.0,0.0,0.0,0.0,0.0,0.0,0.0,0.0,0.0,0.0,0.0,0.0,0.0,0.0,0.0,0.0,0.0,0.0,0.0,0.0,0.0,0.0,0.0,0.0,0.0,0.0,0.0,0.0,0.0,0.0,0.0,0.0,0.0,0.0,-1.1836,0.0,-1.2832,-1.2285,-1.1738,-1.127,0.0,0.0,0.0,0.0,0.0,0.0,0.0,0.0,0.0,0.0,0.0,0.0,0.0,0.0,0.0,0.0,0.0,0.0,0.0,0.0,0.0,0.0,0.0,0.0,0.0,0.0,0.0,0.0,0.0,0.0,0.0,0.0,0.0,0.0,0.0,0.0,0.0,0.0,0.0,0.0,0.0,0.0,0.0,0.0,0.0,0.0,0.0,0.0,0.0,0.0,0.0,0.0,0.0,0.0,0.0,0.0,0.0,0.0,0.0,0.0,0.0,0.0,0.0,0.0,0.0,0.0,0.0,0.0,0.0,0.0,0.0,0.0,0.0,0.0,0.0,0.0,0.0,0.0,0.0,0.0,0.0,0.0,0.0,0.0,0.0,0.0,0.0,0.0,0.0,0.0,0.0,0.0,0.0,0.0,0.0,0.0,0.0,0.0,0.0,0.0,0.0,0.0,0.0,0.0,0.0,0.0,0.0,0.0,0.0,-1.2402,-1.2871,-1.291,-1.2852,-1.207,0.0,0.0,0.0,0.0,0.0,0.0,0.0,0.0,0.0,0.0,0.0,0.0,0.0,0.0,0.0,0.0,0.0,0.0,0.0,0.0,0.0,0.0,0.0,0.0,0.0,0.0,0.0,0.0,0.0,0.0,0.0,0.0,0.0,0.0,0.0,0.0,0.0,0.0,0.0,0.0,0.0,0.0,0.0,0.0,0.0,0.0,0.0,0.0,0.0,0.0,0.0,0.0,0.0,0.0,0.0,0.0,0.0,0.0,0.0,0.0,0.0,0.0,0.0,0.0,0.0,0.0,0.0,0.0,0.0,0.0,0.0,0.0,0.0,0.0,0.0,0.0,0.0,0.0,0.0,0.0,0.0,0.0,0.0,0.0,0.0,0.0,0.0,0.0,0.0,0.0,0.0,0.0,0.0,0.0,0.0,0.0,0.0,0.0,0.0,0.0,0.0,0.0,0.0,0.0,0.0,0.0,0.0,0.0,0.0,-1.1602,-1.2461,-1.291,0.0,-1.291,-1.2344,0.0,0.0,0.0,0.0,0.0,0.0,0.0,0.0,0.0,0.0,0.0,0.0,0.0,0.0,0.0,0.0,0.0,0.0,0.0,0.0,0.0,0.0,0.0,0.0,0.0,0.0,0.0,0.0,0.0,0.0,0.0,0.0,0.0,0.0,0.0,0.0,0.0,0.0,0.0,0.0,0.0,0.0,0.0,0.0,0.0,0.0,0.0,0.0,0.0,0.0,0.0,0.0,0.0,0.0,0.0,0.0,0.0,0.0,0.0,0.0,0.0,0.0,0.0,0.0,0.0,0.0,0.0,0.0,0.0,0.0,0.0,0.0,0.0,0.0,0.0,0.0,0.0,0.0,0.0,0.0,0.0,0.0,0.0,0.0,0.0,0.0,0.0,0.0,0.0,0.0,0.0,0.0,0.0,0.0,0.0,0.0,0.0,0.0,0.0,0.0,0.0,0.0,0.0,0.0,0.0,0.0,0.0,0.0,0.0,-1.2793,0.0,-1.3574,0.0,-1.3574,-1.293,0.0,0.0,0.0,0.0,0.0,0.0,0.0,0.0,0.0,0.0,0.0,0.0,0.0,0.0,0.0,0.0,0.0,0.0,0.0,0.0,0.0,0.0,0.0,0.0,0.0,0.0,0.0,0.0,0.0,0.0,0.0,0.0,0.0,0.0,0.0,0.0,0.0,0.0,0.0,0.0,0.0,0.0,0.0,0.0,0.0,0.0,0.0,0.0,0.0,0.0,0.0,0.0,0.0,0.0,0.0,0.0,0.0,0.0,0.0,0.0,0.0,0.0,0.0,0.0,0.0,0.0,0.0,0.0,0.0,0.0,0.0,0.0,0.0,0.0,0.0,0.0,0.0,0.0,0.0,0.0,0.0,0.0,0.0,0.0,0.0,0.0,0.0,0.0,0.0,0.0,0.0,0.0,0.0,0.0,0.0,0.0,0.0,0.0,0.0,0.0,0.0,0.0,0.0,0.0,0.0,0.0,0.0,0.0,0.0,-1.5254,-1.5312,-1.4902,-1.416,-1.4863,-1.3769,0.0,0.0,0.0,0.0,0.0,0.0,0.0,0.0,0.0,0.0,0.0,0.0,0.0,0.0,0.0,0.0,0.0,0.0,0.0,0.0,0.0,0.0,0.0,0.0,0.0,0.0,0.0,0.0,0.0,0.0,0.0,0.0,0.0,0.0,0.0,0.0,0.0,0.0,0.0,0.0,0.0,0.0,0.0,0.0,0.0,0.0,0.0,0.0,0.0,0.0,0.0,0.0,0.0,0.0,0.0,0.0,0.0,0.0,0.0,0.0,0.0,0.0,0.0,0.0,0.0,0.0,0.0,0.0,0.0,0.0,0.0,0.0,0.0,0.0,0.0,0.0,0.0,0.0,0.0,0.0,0.0,0.0,0.0,0.0,0.0,0.0,0.0,0.0,0.0,0.0,0.0,0.0,0.0,0.0,0.0,0.0,0.0,0.0,0.0,0.0,0.0,0.0,0.0,0.0,0.0,0.0,0.0,0.0,0.0,-1.4512,-1.5098,-1.5273,-1.5,-1.4668,-1.4004,0.0,0.0,0.0,0.0,0.0,0.0,0.0,0.0,0.0,0.0,0.0,0.0,0.0,0.0,0.0,0.0,0.0,0.0,0.0,0.0,0.0,0.0,0.0,0.0,0.0,0.0,0.0,0.0,0.0,0.0,0.0,0.0,0.0,0.0,0.0,0.0,0.0,0.0,0.0,0.0,0.0,0.0,0.0,0.0,0.0,0.0,0.0,0.0,0.0,0.0,0.0,0.0,0.0,0.0,0.0,0.0,0.0,0.0,0.0,0.0,0.0,0.0,0.0,0.0,0.0,0.0,0.0,0.0,0.0,0.0,0.0,0.0,0.0,0.0,0.0,0.0,0.0,0.0,0.0,0.0,0.0,0.0,0.0,0.0,0.0,0.0,0.0,0.0,0.0,0.0,0.0,0.0,0.0,0.0,0.0,0.0,0.0,0.0,0.0,0.0,0.0,0.0,0.0,0.0,0.0,0.0,0.0,0.0,0.0,-1.6523,-1.6738,-1.6699,-1.6387,-1.584,-1.5098,-1.4121,0.0,0.0,0.0,0.0,0.0,0.0,0.0,0.0,0.0,0.0,0.0,0.0,0.0,0.0,0.0,0.0,0.0,0.0,0.0,0.0,0.0,0.0,0.0,0.0,0.0,0.0,0.0,0.0,0.0,0.0,0.0,0.0,0.0,0.0,0.0,0.0,0.0,0.0,0.0,0.0,0.0,0.0,0.0,0.0,0.0,0.0,0.0,0.0,0.0,0.0,0.0,0.0,0.0,0.0,0.0,0.0,0.0,0.0,0.0,0.0,0.0,0.0,0.0,0.0,0.0,0.0,0.0,0.0,0.0,0.0,0.0,0.0,0.0,0.0,0.0,0.0,0.0,0.0,0.0,0.0,0.0,0.0,0.0,0.0,0.0,0.0,0.0,0.0,0.0,0.0,0.0,0.0,0.0,0.0,0.0,0.0,0.0,0.0,0.0,0.0,0.0,0.0,0.0,0.0,0.0,0.0,0.0,0.0,-2.0644,-1.9961,-1.9121,-1.8184,-1.8086,-1.6855,0.0,0.0,0.0,0.0,0.0,0.0,0.0,0.0,0.0,0.0,0.0,0.0,0.0,0.0,0.0,0.0,0.0,0.0,0.0,0.0,0.0,0.0,0.0,0.0,0.0,0.0,0.0,0.0,0.0,0.0,0.0,0.0,0.0,0.0,0.0,0.0,0.0,0.0,0.0,0.0,0.0,0.0,0.0,0.0,0.0,0.0,0.0,0.0,0.0,0.0,0.0,0.0,0.0,0.0,0.0,0.0,0.0,0.0,0.0,0.0,0.0,0.0,0.0,0.0,0.0,0.0,0.0,0.0,0.0,0.0,0.0,0.0,0.0,0.0,0.0,0.0,0.0,0.0,0.0,0.0,0.0,0.0,0.0,0.0,0.0,0.0,0.0,0.0,0.0,0.0,0.0,0.0,0.0,0.0,0.0,0.0,0.0,0.0,0.0,0.0,0.0,0.0,0.0,0.0,0.0,0.0,0.0,0.0,0.0,-2.1543,-2.2539,-2.207,-2.0,-1.9297,-1.8047,0.0,0.0,0.0,0.0,0.0,0.0,0.0,0.0,0.0,0.0,0.0,0.0,0.0,0.0,0.0,0.0,0.0,0.0,0.0,0.0,0.0,0.0,0.0,0.0,0.0,0.0,0.0,0.0,0.0,0.0,0.0,0.0,0.0,0.0,0.0,0.0,0.0,0.0,0.0,0.0,0.0,0.0,0.0,0.0,0.0,0.0,0.0,0.0,0.0,0.0,0.0,0.0,0.0,0.0,0.0,0.0,0.0,0.0,0.0,0.0,0.0,0.0,0.0,0.0,0.0,0.0,0.0,0.0,0.0,0.0,0.0,0.0,0.0,0.0,0.0,0.0,0.0,0.0,0.0,0.0,0.0,0.0,0.0,0.0,0.0,0.0,0.0,0.0,0.0,0.0,0.0,0.0,0.0,0.0,0.0,0.0,0.0,0.0,0.0,0.0,0.0,0.0,0.0,0.0,0.0,0.0,0.0,0.0,-2.1562,-2.2441,-2.4082,-2.3887,-2.1699,-2.084,-1.957,0.0,0.0,0.0,0.0,0.0,0.0,0.0,0.0,0.0,0.0,0.0,0.0,0.0,0.0,0.0,0.0,0.0,0.0,0.0,0.0,0.0,0.0,0.0,0.0,0.0,0.0,0.0,0.0,0.0,0.0,0.0,0.0,0.0,0.0,0.0,0.0,0.0,0.0,0.0,0.0,0.0,0.0,0.0,0.0,0.0,0.0,0.0,0.0,0.0,0.0,0.0,0.0,0.0,0.0,0.0,0.0,0.0,0.0,0.0,0.0,0.0,0.0,0.0,0.0,0.0,0.0,0.0,0.0,0.0,0.0,0.0,0.0,0.0,0.0,0.0,0.0,0.0,0.0,0.0,0.0,0.0,0.0,0.0,0.0,0.0,0.0,0.0,0.0,0.0,0.0,0.0,0.0,0.0,0.0,0.0,0.0,0.0,0.0,0.0,0.0,0.0,0.0,0.0,0.0,0.0,0.0,0.0,0.0,-2.2402,-2.3184,-2.4844,-2.4941,-2.3418,-2.25,-2.1113,0.0,0.0,0.0,0.0,0.0,0.0,0.0,0.0,0.0,0.0,0.0,0.0,0.0,0.0,0.0,0.0,0.0,0.0,0.0,0.0,0.0,0.0,0.0,0.0,0.0,0.0,0.0,0.0,0.0,0.0,0.0,0.0,0.0,0.0,0.0,0.0,0.0,0.0,0.0,0.0,0.0,0.0,0.0,0.0,0.0,0.0,0.0,0.0,0.0,0.0,0.0,0.0,0.0,0.0,0.0,0.0,0.0,0.0,0.0,0.0,0.0,0.0,0.0,0.0,0.0,0.0,0.0,0.0,0.0,0.0,0.0,0.0,0.0,0.0,0.0,0.0,0.0,0.0,0.0,0.0,0.0,0.0,0.0,0.0,0.0,0.0,0.0,0.0,0.0,0.0,0.0,0.0,0.0,0.0,0.0,0.0,0.0,0.0,0.0,0.0,0.0,0.0,0.0,0.0,0.0,0.0,0.0,0.0,-2.293,-2.3144,-2.4805,-2.5508,-2.5156,-2.3711,-2.1465,0.0,0.0,0.0,0.0,0.0,0.0,0.0,0.0,0.0,0.0,0.0,0.0,0.0,0.0,0.0,0.0,0.0,0.0,0.0,0.0,0.0,0.0,0.0,0.0,0.0,0.0,0.0,0.0,0.0,0.0,0.0,0.0,0.0,0.0,0.0,0.0,0.0,0.0,0.0,0.0,0.0,0.0,0.0,0.0,0.0,0.0,0.0,0.0,-0.9308,0.0,0.0,0.0,0.0,0.0,0.0,0.0,0.0,0.0,0.0,0.0,0.0,0.0,0.0,0.0,0.0,0.0,0.0,0.0,0.0,0.0,0.0,0.0,0.0,0.0,0.0,0.0,0.0,0.0,0.0,0.0,0.0,0.0,0.0,0.0,0.0,0.0,0.0,0.0,0.0,0.0,0.0,0.0,0.0,0.0,0.0,0.0,0.0,0.0,0.0,0.0,0.0,0.0,0.0,0.0,0.0,0.0,0.0,0.0,-2.332,-2.373,-2.5,-2.5703,-2.5644,-2.4082,-2.1953,0.0,0.0,0.0,0.0,0.0,0.0,0.0,0.0,0.0,0.0,0.0,0.0,0.0,0.0,0.0,0.0,0.0,0.0,0.0,0.0,0.0,0.0,0.0,0.0,0.0,0.0,0.0,0.0,0.0,0.0,0.0,0.0,0.0,0.0,0.0,0.0,0.0,0.0,0.0,0.0,0.0,0.0,0.0,0.0,0.0,0.0,0.0,0.0,0.0,0.0,0.0,0.0,0.0,0.0,0.0,0.0,0.0,0.0,0.0,0.0,0.0,0.0,0.0,0.0,0.0,0.0,0.0,0.0,0.0,0.0,0.0,0.0,0.0,0.0,0.0,0.0,0.0,0.0,0.0,0.0,0.0,0.0,0.0,0.0,0.0,0.0,0.0,0.0,0.0,0.0,0.0,0.0,0.0,0.0,0.0,0.0,0.0,0.0,0.0,0.0,0.0,0.0,0.0,0.0,0.0,0.0,0.0,-2.1934,-2.3633,-2.457,-2.5312,-2.5703,-2.5664,-2.4062,-2.2383,0.0,0.0,0.0,0.0,0.0,0.0,0.0,0.0,0.0,0.0,0.0,0.0,0.0,0.0,0.0,0.0,0.0,0.0,0.0,0.0,0.0,0.0,0.0,0.0,0.0,0.0,0.0,0.0,0.0,0.0,0.0,0.0,0.0,0.0,0.0,0.0,0.0,0.0,0.0,-0.9083,-0.9803,0.0,0.0,0.0,0.0,0.0,0.0,0.0,0.0,-1.2714,0.0,0.0,0.0,0.0,0.0,0.0,0.0,0.0,0.0,0.0,0.0,0.0,0.0,0.0,0.0,0.0,0.0,0.0,0.0,0.0,0.0,0.0,0.0,0.0,0.0,0.0,0.0,0.0,0.0,0.0,0.0,0.0,0.0,0.0,0.0,0.0,0.0,0.0,0.0,0.0,0.0,0.0,0.0,0.0,0.0,0.0,0.0,0.0,0.0,0.0,0.0,0.0,0.0,0.0,0.0,0.0,-2.0352,-2.2187,-2.3887,-2.5449,-2.5625,-2.5703,-2.5644,-2.4062,-2.2383,-2.0625,0.0,0.0,0.0,0.0,0.0,0.0,0.0,0.0,0.0,0.0,0.0,0.0,0.0,0.0,0.0,0.0,0.0,0.0,0.0,0.0,0.0,0.0,0.0,0.0,0.0,0.0,0.0,0.0,0.0,0.0,0.0,0.0,0.0,0.0,0.0,0.0,0.0,0.0,0.0,-1.0531,-1.071,0.0,0.0,0.0,0.0,0.0,0.0,0.0,0.0,-1.2294,0.0,0.0,0.0,0.0,0.0,0.0,0.0,0.0,0.0,0.0,0.0,0.0,0.0,0.0,0.0,0.0,0.0,0.0,0.0,0.0,0.0,0.0,0.0,0.0,0.0,0.0,0.0,0.0,0.0,0.0,0.0,0.0,0.0,0.0,0.0,0.0,0.0,0.0,0.0,0.0,0.0,0.0,0.0,0.0,0.0,0.0,0.0,0.0,0.0,0.0,0.0,0.0,0.0,0.0,0.0,-2.0586,-2.2285,-2.3984,-2.5625,-2.5703,-2.5703,-2.5664,-2.4062,-2.2363,0.0,0.0,0.0,0.0,0.0,0.0,0.0,0.0,0.0,0.0,0.0,0.0,0.0,0.0,0.0,0.0,0.0,0.0,0.0,0.0,0.0,0.0,0.0,0.0,0.0,0.0,0.0,0.0,0.0,0.0,0.0,0.0,0.0,0.0,0.0,0.0,0.0,0.0,0.0,0.0,-1.0798,-1.1286,-1.2529,0.0,0.0,0.0,0.0,0.0,0.0,-1.2442,-1.2576,0.0,0.0,0.0,0.0,0.0,0.0,0.0,0.0,0.0,0.0,0.0,0.0,0.0,0.0,0.0,0.0,0.0,0.0,0.0,0.0,0.0,0.0,0.0,0.0,0.0,0.0,0.0,0.0,0.0,0.0,0.0,0.0,0.0,0.0,0.0,0.0,0.0,0.0,0.0,0.0,0.0,0.0,0.0,0.0,0.0,0.0,0.0,0.0,0.0,0.0,0.0,0.0,0.0,0.0,0.0,-2.0586,-2.2324,-2.4004,-2.5605,-2.5703,-2.5605,-2.543,-2.3965,-2.2285,0.0,0.0,0.0,0.0,0.0,0.0,0.0,0.0,0.0,0.0,0.0,0.0,0.0,0.0,0.0,0.0,0.0,0.0,0.0,0.0,0.0,0.0,0.0,0.0,0.0,0.0,0.0,0.0,0.0,0.0,0.0,0.0,0.0,0.0,0.0,0.0,0.0,0.0,0.0,0.0,0.0,-1.2363,-1.2895,-1.3092,0.0,0.0,0.0,0.0,-1.3324,-1.35,0.0,0.0,0.0,0.0,0.0,0.0,0.0,0.0,0.0,0.0,0.0,0.0,0.0,0.0,0.0,0.0,0.0,0.0,0.0,0.0,0.0,0.0,0.0,0.0,0.0,0.0,0.0,0.0,0.0,0.0,0.0,0.0,0.0,0.0,0.0,0.0,0.0,0.0,0.0,0.0,0.0,0.0,0.0,0.0,0.0,0.0,0.0,0.0,0.0,0.0,0.0,0.0,0.0,0.0,0.0,0.0,-2.0586,-2.2324,-2.4023,-2.5605,-2.5703,-2.5332,-2.457,-2.3613,-2.1953,0.0,0.0,0.0,0.0,0.0,0.0,0.0,0.0,0.0,0.0,0.0,0.0,0.0,0.0,0.0,0.0,0.0,0.0,0.0,0.0,0.0,0.0,0.0,0.0,0.0,0.0,0.0,0.0,0.0,0.0,0.0,0.0,0.0,0.0,0.0,0.0,0.0,0.0,0.0,0.0,0.0,-1.4533,-1.3927,-1.4521,-1.4996,0.0,0.0,0.0,-1.5035,-1.6232,0.0,0.0,0.0,0.0,0.0,0.0,0.0,0.0,0.0,0.0,0.0,0.0,0.0,0.0,0.0,0.0,0.0,0.0,0.0,0.0,0.0,0.0,0.0,0.0,0.0,0.0,0.0,0.0,0.0,0.0,0.0,0.0,0.0,0.0,0.0,0.0,0.0,0.0,0.0,0.0,0.0,0.0,0.0,0.0,0.0,0.0,0.0,0.0,0.0,0.0,0.0,0.0,0.0,0.0,0.0,-1.8867,-2.0586,-2.2285,-2.3984,-2.5625,-2.5703,-2.5293,-2.4414,-2.3105,-2.1445,0.0,0.0,0.0,0.0,0.0,0.0,0.0,0.0,0.0,0.0,0.0,0.0,0.0,0.0,0.0,0.0,0.0,0.0,0.0,0.0,0.0,0.0,0.0,0.0,0.0,0.0,0.0,0.0,0.0,0.0,0.0,0.0,0.0,0.0,0.0,0.0,0.0,0.0,0.0,0.0,0.0,0.0,-1.4772,-1.5446,0.0,0.0,0.0,-1.5798,-1.5364,0.0,0.0,0.0,0.0,0.0,0.0,0.0,0.0,0.0,0.0,0.0,0.0,0.0,0.0,0.0,0.0,0.0,0.0,0.0,0.0,0.0,0.0,0.0,0.0,0.0,0.0,0.0,0.0,0.0,0.0,0.0,0.0,0.0,0.0,0.0,0.0,0.0,0.0,0.0,0.0,0.0,0.0,0.0,0.0,0.0,0.0,0.0,0.0,0.0,0.0,0.0,0.0,0.0,0.0,0.0,0.0,0.0,-2.0586,-2.2266,-2.3965,-2.5625,-2.5703,-2.5195,-2.4121,-2.2676,0.0,0.0,0.0,0.0,0.0,0.0,0.0,0.0,0.0,0.0,0.0,0.0,0.0,0.0,0.0,0.0,0.0,0.0,0.0,0.0,0.0,0.0,0.0,0.0,0.0,0.0,0.0,-0.6591,0.0,0.0,0.0,0.0,0.0,0.0,0.0,0.0,0.0,0.0,0.0,0.0,0.0,0.0,-1.5705,-1.5319,-1.6163,-1.6559,0.0,0.0,-1.6604,-1.6022,-1.557,-1.5276,0.0,0.0,0.0,0.0,0.0,0.0,0.0,0.0,0.0,0.0,0.0,0.0,0.0,0.0,0.0,0.0,0.0,0.0,0.0,0.0,0.0,0.0,0.0,0.0,0.0,0.0,0.0,0.0,0.0,0.0,0.0,0.0,0.0,0.0,0.0,0.0,0.0,0.0,0.0,0.0,0.0,0.0,0.0,0.0,0.0,0.0,0.0,0.0,0.0,0.0,0.0,0.0,0.0,0.0,0.0,-2.0586,-2.2305,-2.4004,-2.5625,-2.5703,-2.4922,-2.334,-2.2383,-2.0703,0.0,0.0,0.0,0.0,0.0,0.0,0.0,0.0,0.0,0.0,0.0,0.0,0.0,0.0,0.0,0.0,0.0,0.0,0.0,0.0,0.0,0.0,0.0,0.0,0.0,0.0,0.0,0.0,0.0,0.0,0.0,0.0,0.0,0.0,0.0,0.0,0.0,0.0,0.0,0.0,0.0,-1.7035,-1.5446,-1.663,-1.7497,0.0,0.0,-1.768,-1.7635,-1.8252,-1.7957,-1.5615,0.0,0.0,0.0,0.0,0.0,0.0,0.0,0.0,0.0,0.0,0.0,0.0,0.0,0.0,0.0,0.0,0.0,0.0,0.0,0.0,0.0,0.0,0.0,0.0,0.0,0.0,0.0,0.0,0.0,0.0,0.0,0.0,0.0,0.0,0.0,0.0,0.0,0.0,0.0,0.0,0.0,0.0,0.0,0.0,0.0,0.0,0.0,0.0,0.0,0.0,0.0,0.0,0.0,-1.9121,-2.1367,-2.2539,-2.3965,-2.5586,-2.5176,-2.4336,-2.3164,-2.1289,-1.957,0.0,0.0,0.0,0.0,0.0,0.0,0.0,0.0,0.0,0.0,0.0,0.0,0.0,0.0,0.0,0.0,0.0,0.0,0.0,0.0,0.0,0.0,0.0,0.0,0.0,0.0,0.0,0.0,-0.9407,-0.9816,-1.012,0.0,0.0,0.0,0.0,0.0,0.0,0.0,0.0,0.0,0.0,-1.8232,-1.7411,-1.8453,0.0,0.0,-1.9184,-1.9349,-1.9351,-1.9171,-1.8708,-1.7706,-1.6968,0.0,0.0,0.0,0.0,0.0,0.0,0.0,0.0,0.0,0.0,0.0,0.0,0.0,0.0,0.0,0.0,0.0,0.0,0.0,0.0,0.0,0.0,0.0,0.0,0.0,0.0,0.0,0.0,0.0,0.0,0.0,0.0,0.0,0.0,0.0,0.0,0.0,0.0,0.0,0.0,0.0,0.0,0.0,0.0,0.0,0.0,0.0,0.0,0.0,0.0,0.0,0.0,-1.9277,-2.1855,-2.2715,-2.3945,-2.5664,-2.4863,-2.3984,-2.3086,-2.0879,-1.916,0.0,0.0,0.0,0.0,0.0,0.0,0.0,0.0,0.0,0.0,0.0,0.0,0.0,0.0,0.0,0.0,0.0,0.0,0.0,0.0,0.0,0.0,0.0,0.0,0.0,0.0,0.0,0.0,-0.9826,-1.0286,-1.046,0.0,0.0,0.0,0.0,0.0,0.0,0.0,0.0,0.0,0.0,-1.9027,-1.9096,-1.9788,-2.0288,-2.0288,-2.0288,-2.02,-1.9969,-1.9399,-1.8915,-1.8637,0.0,0.0,0.0,0.0,0.0,0.0,0.0,0.0,0.0,0.0,0.0,0.0,0.0,0.0,0.0,0.0,0.0,0.0,0.0,0.0,0.0,0.0,0.0,0.0,0.0,0.0,0.0,0.0,0.0,0.0,-1.4061,0.0,0.0,0.0,0.0,0.0,0.0,0.0,0.0,0.0,0.0,0.0,0.0,0.0,0.0,0.0,0.0,0.0,0.0,0.0,0.0,0.0,0.0,0.0,-2.1875,-2.2773,-2.4004,-2.5625,-2.4844,-2.3965,-2.3105,-2.1445,-1.9766,-1.8008,0.0,0.0,0.0,0.0,0.0,0.0,0.0,0.0,0.0,0.0,0.0,0.0,0.0,0.0,0.0,0.0,0.0,0.0,0.0,0.0,0.0,0.0,0.0,0.0,0.0,0.0,-1.0105,-1.0211,-1.054,0.0,0.0,0.0,0.0,0.0,0.0,0.0,0.0,0.0,0.0,-1.8434,-1.9319,-2.0119,-2.0288,-2.0288,-2.0288,-2.0288,-2.0023,-1.9203,-1.9042,-1.8712,0.0,0.0,0.0,0.0,0.0,0.0,0.0,0.0,0.0,0.0,0.0,0.0,0.0,0.0,0.0,0.0,0.0,0.0,0.0,0.0,0.0,0.0,0.0,0.0,0.0,0.0,0.0,-1.7031,-1.7539,0.0,0.0,0.0,0.0,0.0,0.0,0.0,0.0,0.0,0.0,0.0,-2.2246,-2.1953,0.0,0.0,0.0,0.0,0.0,0.0,0.0,0.0,0.0,0.0,0.0,0.0,-2.0137,-2.2578,-2.3027,-2.4023,-2.5605,-2.4336,-2.3437,-2.3086,-2.0918,-1.8652,-1.6328,0.0,0.0,0.0,0.0,0.0,0.0,0.0,0.0,0.0,0.0,0.0,0.0,0.0,0.0,0.0,0.0,0.0,0.0,0.0,0.0,0.0,0.0,0.0,0.0,0.0,-0.9554,0.0,0.0,0.0,0.0,0.0,0.0,0.0,0.0,0.0,0.0,0.0,-1.7603,-1.8453,-1.9311,-1.9965,-2.025,-2.0288,-2.0288,0.0,0.0,0.0,0.0,0.0,0.0,0.0,0.0,0.0,0.0,0.0,0.0,0.0,0.0,-1.5629,-1.4532,-1.4287,-1.407,-1.3425,0.0,0.0,0.0,0.0,0.0,0.0,0.0,0.0,0.0,0.0,0.0,0.0,0.0,0.0,0.0,0.0,-2.0215,0.0,0.0,0.0,0.0,0.0,0.0,0.0,0.0,-2.3359,-2.4004,-2.3984,-2.3691,-2.3574,0.0,-2.2734,-2.1445,0.0,0.0,0.0,0.0,0.0,0.0,0.0,0.0,-2.0859,-2.3027,-2.3437,-2.4297,-2.5547,-2.4062,-2.3184,-2.3086,-2.0644,-1.8223,-1.5918,-1.4512,-1.3105,0.0,0.0,0.0,0.0,0.0,0.0,0.0,0.0,0.0,0.0,0.0,0.0,0.0,0.0,0.0,0.0,0.0,0.0,0.0,0.0,0.0,0.0,0.0,-1.0296,0.0,0.0,0.0,0.0,0.0,0.0,0.0,0.0,0.0,-1.5269,-1.6907,-1.8241,-1.8511,-1.9561,-2.0288,-2.0288,0.0,0.0,0.0,0.0,0.0,0.0,0.0,-2.1062,-2.0769,-2.0258,-1.9773,-1.95,-1.8984,-1.8504,-1.8199,0.0,0.0,-1.6327,-1.5781,-1.5319,-1.4718,-1.4549,-1.4224,-1.3352,-1.3387,-1.3477,0.0,0.0,0.0,0.0,0.0,0.0,0.0,0.0,-2.1269,-2.1953,0.0,-2.1973,0.0,0.0,0.0,0.0,0.0,0.0,0.0,0.0,-2.5234,-2.5684,-2.5605,-2.4824,-2.4434,-2.4394,-2.3594,-2.3184,-2.3047,-2.0684,0.0,0.0,0.0,0.0,0.0,0.0,-2.1484,-2.3125,-2.3965,-2.4824,-2.5625,-2.4062,-2.3164,-2.3027,-2.0644,-1.8496,-1.6836,-1.5859,-1.4238,-1.1816,-1.1602,0.0,0.0,0.0,0.0,0.0,0.0,0.0,0.0,0.0,0.0,0.0,0.0,0.0,0.0,0.0,0.0,0.0,0.0,0.0,0.0,-1.0545,0.0,0.0,0.0,0.0,0.0,0.0,0.0,0.0,0.0,0.0,-1.5615,-1.7507,-1.8742,-1.793,0.0,0.0,0.0,0.0,-2.1543,-2.1543,-2.2254,-2.2778,-2.2778,-2.2778,-2.2466,-2.162,0.0,0.0,-2.0423,-2.0288,-1.9985,-1.9203,-1.9049,-1.8773,-1.7933,-1.698,-1.6336,-1.6269,-1.6121,-1.5777,-1.5115,-1.5271,-1.5506,-2.4469,0.0,0.0,0.0,0.0,-2.1328,-2.2187,-2.3867,-2.373,-2.3691,-2.3672,-2.3672,0.0,0.0,0.0,0.0,0.0,0.0,-2.4414,-2.4453,-2.5293,-2.5703,-2.5703,-2.5449,-2.5332,-2.5332,-2.5078,-2.4648,-2.4043,-2.332,-2.25,-2.1641,0.0,0.0,0.0,0.0,-2.293,-2.3965,-2.4277,-2.4824,-2.5684,-2.4023,-2.2539,-2.1387,-2.0019,-1.8769,-1.7656,-1.6191,-1.4785,-1.3437,-1.2246,0.0,0.0,0.0,0.0,0.0,0.0,0.0,0.0,0.0,0.0,0.0,0.0,0.0,0.0,0.0,0.0,0.0,0.0,0.0,-1.0644,-1.1221,-1.1969,0.0,0.0,0.0,0.0,0.0,0.0,0.0,0.0,0.0,-1.8087,-1.9081,-1.985,0.0,0.0,-2.2081,-2.2085,-2.2278,-2.2427,-2.2408,0.0,0.0,0.0,-2.2797,-2.2504,-2.1635,-2.1043,-2.0562,-2.0327,-2.0288,-2.0212,-1.9946,-1.9927,-1.9807,-1.9411,-1.8226,-1.7242,-1.7046,-1.6964,-1.6843,-1.6535,-1.619,-1.585,-2.7559,-2.5624,-2.4219,-2.4258,-2.5156,-2.4648,-2.5312,-2.6699,-2.6172,-2.5957,-2.5918,-2.5586,-2.5137,-2.4629,-2.4336,0.0,0.0,0.0,-2.4922,-2.4941,-2.5449,-2.5703,-2.5703,-2.5703,-2.5703,-2.5703,-2.5703,-2.5429,-2.4922,-2.4922,-2.4648,-2.4102,0.0,0.0,-2.3203,-2.3477,-2.3867,-2.4394,-2.4746,-2.5176,-2.5684,-2.4023,-2.2324,-2.0664,-1.9746,-1.8887,-1.8027,-1.666,-1.5352,-1.4141,-1.2832,-1.1719,0.0,0.0,0.0,0.0,0.0,0.0,0.0,0.0,0.0,0.0,0.0,-0.8222,0.0,0.0,0.0,0.0,-0.9496,-1.0397,-1.142,-1.2108,0.0,0.0,0.0,0.0,0.0,0.0,0.0,-1.8734,-2.0235,-2.0966,-2.0146,-2.1066,-2.1562,-2.0865,-2.1947,-2.2797,-2.2797,0.0,-2.3317,-2.3317,-2.3581,-2.3769,-2.3793,-2.3793,-2.3389,-2.2197,-2.1058,-2.0308,-2.0288,-2.0288,-2.0288,-2.0285,-2.0264,-2.0186,-2.005,-1.9134,-1.8268,-1.7858,-1.7729,-1.7571,-1.7182,-1.6947,-1.6687,-2.9859,-2.9723,-2.8906,-2.8476,-2.8301,-2.8281,-2.8281,-2.8281,-2.8281,-2.8281,-2.8242,-2.7461,-2.7109,-2.7051,-2.6269,0.0,0.0,-2.5488,-2.582,-2.58,-2.5742,-2.5703,-2.57,-2.5702,-2.5702,-2.57,-2.5702,-2.5702,-2.5683,-2.5683,-2.5703,-2.5644,-2.4101,-2.334,-2.3437,-2.4141,-2.4512,-2.4531,-2.5293,-2.5644,-2.5469,-2.3984,-2.2363,-2.0644,-1.9766,-1.8906,-1.8027,-1.7168,-1.5937,-1.4297,-1.3379,-1.2539,-1.1719,0.0,0.0,0.0,0.0,0.0,0.0,0.0,0.0,0.0,0.0,0.0,0.0,0.0,0.0,0.0,-1.1041,0.0,-1.1782,-1.3238,0.0,0.0,0.0,-1.7056,-1.7896,-1.9415,-2.0427,-2.0481,0.0,0.0,0.0,0.0,-2.3605,-2.2004,-2.2489,-2.299,-2.3004,-2.3721,-2.4182,-2.4182,-2.4812,-2.5269,-2.5115,-2.4962,-2.4269,-2.2754,-2.137,-2.0346,-2.0288,-2.0288,-2.0288,-2.0273,-2.019,-2.0055,-1.9918,-1.9735,-1.9457,-1.8701,-1.8491,-1.8191,-1.7615,-1.782,-1.7776,-3.2107,-3.1502,-3.1268,-3.0096,-2.8299,-2.8301,-2.8301,-2.83,-2.8301,-2.8301,-2.828,-2.8086,-2.7988,-2.7968,-2.7773,-2.7578,-2.736,-2.6893,-2.6698,-2.6657,-2.6013,-2.5701,-2.57,-2.57,-2.57,-2.57,-2.57,-2.5701,-2.57,-2.57,-2.5701,-2.5682,-2.5272,-2.5077,-2.5117,-2.5293,-2.539,-2.539,-2.5586,-2.5059,-2.375,-2.332,-2.2324,-2.0644,-1.9766,-1.8887,-1.8027,-1.7148,-1.6211,-1.5137,-1.3691,-1.2793,-1.2598,-1.0937,0.0,0.0,0.0,0.0,0.0,0.0,0.0,0.0,0.0,-0.9996,-0.9996,0.0,-1.0728,0.0,-1.1028,-1.2292,-1.4219,-1.4778,0.0,0.0,-1.7926,-1.8757,-1.9629,-2.0608,-2.1485,-2.212,-2.3144,-2.3706,-2.3514,-2.4389,-2.487,-2.4442,-2.4558,-2.4692,-2.4712,-2.4865,-2.5019,-2.5005,-2.5154,-2.5308,-2.5192,-2.4197,-2.3081,-2.1985,-2.0966,-2.0308,-2.0288,-2.0288,-2.0273,-2.0162,-2.0131,-2.0001,-1.9792,-1.9713,-1.9645,-1.9404,-1.9313,-1.9249,-1.9033,-1.8636,-1.8166,-3.3121,-3.2634,-3.2264,-3.1287,-2.9976,-2.9627,-2.9452,-2.9451,-2.9471,-2.9452,-2.9431,-2.9041,-2.8651,-2.8298,-2.8299,-2.8299,-2.8277,-2.781,-2.7594,-2.7532,-2.6674,-2.6284,-2.6263,-2.5892,-2.5697,-2.5696,-2.5697,-2.5698,-2.5698,-2.5698,-2.5699,-2.57,-2.5697,-2.5697,-2.5699,-2.5701,-2.5702,-2.5702,-2.5703,-2.5039,-2.3711,-2.332,-2.2519,-2.1211,-1.9941,-1.8887,-1.8047,-1.7148,-1.6289,-1.543,-1.4141,-1.3437,-1.3418,-1.2168,-1.1465,0.0,0.0,0.0,0.0,0.0,0.0,0.0,0.0,0.0,0.0,0.0,-1.2037,0.0,-1.3056,0.0,-1.5695,-1.6186,-1.7087,-1.8734,-1.931,-2.0053,-2.1293,-2.2147,-2.2855,-2.3317,-2.4125,-2.4625,-2.4639,-2.5019,-2.5308,-2.5308,-2.5308,-2.5308,-2.5308,-2.5308,-2.5308,-2.5308,-2.5308,-2.5154,-2.4851,-2.3682,-2.2485,-2.1639,-2.0827,-2.0288,-2.0288,-2.0288,-2.026,-2.0112,-2.0055,-1.9955,-1.9744,-1.9669,-1.9635,-1.9618,-1.9583,-1.9583,-1.9583,-1.923,-1.8803,-3.3665,-3.3473,-3.2615,-3.2205,-3.2046,-3.1246,-3.0914,-3.0914,-3.0915,-3.0915,-3.0856,-3.0094,-2.9351,-2.8648,-2.8629,-2.8629,-2.8628,-2.8511,-2.8471,-2.8408,-2.7455,-2.7005,-2.698,-2.6123,-2.5693,-2.5689,-2.5694,-2.5694,-2.5694,-2.5694,-2.5696,-2.5699,-2.5693,-2.5689,-2.5693,-2.5697,-2.5699,-2.57,-2.5702,-2.5273,-2.4433,-2.3613,-2.2773,-2.1894,-2.0215,-1.8945,-1.8184,-1.7207,-1.6348,-1.5586,-1.4629,-1.4102,-1.4082,-1.334,-1.291,0.0,-1.291,0.0,0.0,0.0,0.0,0.0,0.0,0.0,0.0,-1.3133,-1.3606,-1.4429,-1.5864,-1.6774,-1.6811,-1.7596,-1.8753,-2.0265,-2.0569,-2.1236,-2.2782,-2.3648,-2.4149,-2.424,-2.487,-2.5308,-2.5269,-2.5308,-2.5308,-2.5308,-2.5308,-2.5308,-2.5308,-2.5308,-2.5308,-2.5308,-2.5308,-2.5058,-2.4279,-2.3394,-2.2504,-2.1658,-2.0827,-2.0308,-2.0288,-2.0288,-2.0256,-2.0093,-1.9984,-1.9838,-1.972,-1.9647,-1.959,-1.9583,-1.9583,-1.9583,-1.9583,-1.9564,-1.9342,-3.5114,-3.439,-3.3514,-3.2732,-3.2045,-3.1246,-3.0915,-3.0916,-3.0917,-3.0918,-3.0898,-3.0721,-3.0565,-3.0408,-3.041,-3.0429,-3.0367,-2.9666,-2.9353,-2.9292,-2.7731,-2.7008,-2.6948,-2.6109,-2.5699,-2.5698,-2.5699,-2.5699,-2.5699,-2.5696,-2.5694,-2.5695,-2.569,-2.5687,-2.5688,0.0,0.0,0.0,-2.57,-2.5271,-2.4412,-2.3552,-2.2732,-2.1892,-2.0193,0.0,-1.9021,-1.7538,-1.664,-1.6425,-1.4941,0.0,0.0,0.0,0.0,0.0,0.0,0.0,0.0,0.0,0.0,0.0,-1.5486,-1.5276,-1.3953,-1.5016,-1.6155,-1.699,-1.7391,-1.7846,-1.849,-1.9316,-2.023,-2.1228,-2.1948,-2.2744,-2.3721,-2.4014,-2.4336,-2.5,-2.5212,-2.5308,-2.5308,-2.5308,-2.5308,-2.5308,-2.5308,-2.5308,-2.5308,-2.5308,-2.5308,-2.5308,-2.5308,-2.5,-2.4221,-2.3394,-2.2586,-2.1639,-2.0831,-2.0365,-2.0327,-2.0288,-2.0208,-1.9986,-1.9879,-1.9775,-1.9653,-1.9604,-1.9583,-1.9583,-1.9583,-1.9583,-1.9583,-1.9583,-1.9546,-3.5757,0.0,-3.4392,-3.3767,0.0,-3.2498,-3.1912,-3.1523,-3.1073,-3.0917,-3.0917,-3.0916,-3.0915,-3.0916,-3.0916,-3.0916,-3.0875,-3.0427,-3.0251,-3.0172,-2.8881,-2.8061,-2.7613,-2.6753,-2.6109,-2.572,-2.5698,-2.5698,-2.5697,-2.5695,-2.5694,-2.5694,-2.5694,-2.5694,-2.5691,-2.5688,-2.5691,-2.5697,-2.5698,-2.5483,-2.5016,-2.4196,-2.3337,-2.2498,0.0,0.0,0.0,0.0,0.0,0.0,0.0,0.0,0.0,0.0,0.0,-1.4785,-1.5176,-1.5409,-1.5381,-1.5763,-1.6134,-1.6509,-1.7309,-1.7244,-1.5961,-1.7004,-1.7917,-1.8358,-1.877,-1.9361,-2.0203,-2.0666,-2.1405,-2.266,-2.3191,-2.3759,-2.4524,-2.4697,-2.4851,-2.5192,-2.5308,-2.5308,-2.5308,-2.5308,-2.5308,-2.5308,-2.5308,-2.5308,-2.5308,-2.5308,-2.5308,-2.5308,-2.5308,-2.5019,-2.4259,-2.3783,-2.3124,-2.2278,-2.1446,-2.0962,-2.0885,-2.0558,-2.0212,-1.9979,-1.9838,-1.9763,-1.962,-1.9583,-1.9583,-1.9583,-1.9583,-1.9583,-1.9583,-1.9583,-1.9583,-3.6008,-3.5915,-3.5073,-3.4704,-3.4628,-3.3592,-3.2714,-3.1914,0.0,0.0,0.0,-3.0915,-3.0915,-3.0915,-3.0915,-3.0915,-3.0915,-3.0915,-3.0915,-3.0876,-2.9993,-2.9212,-2.8492,-2.7474,-2.6615,-2.5934,-2.5756,-2.5696,-2.5696,-2.5695,-2.5695,-2.5695,-2.5699,-2.5699,-2.5694,-2.5689,-2.5689,-2.5693,-2.5693,-2.5695,-2.5679,-2.4839,-2.4058,-2.3357,-2.2398,-2.1226,-1.9822,-1.9471,-1.8631,-1.7244,-1.7011,-1.6601,-1.5937,-1.6543,-1.6934,-1.6973,-1.7597,-1.7984,-1.7991,-1.7917,-1.7921,-1.8004,-1.8767,-1.8885,-1.8062,-1.8747,-1.9223,-1.9226,-2.0018,-2.0801,-2.1513,-2.1844,-2.2528,-2.3975,-2.4221,-2.4582,-2.5192,-2.5308,-2.5269,-2.5308,-2.5308,-2.5308,-2.5308,-2.5308,-2.5308,-2.5308,-2.5308,-2.5308,-2.5308,-2.5308,-2.5308,-2.5308,-2.5288,-2.5058,-2.449,-2.4144,-2.3836,-2.3124,-2.2293,-2.1716,-2.1427,-2.0827,-2.0265,-1.9991,-1.9857,-1.9726,-1.964,-1.9604,-1.959,-1.9583,-1.9583,-1.9583,-1.9583,-1.9583,-1.9583,-3.6021,-3.5939,-3.505,-3.4701,-3.4562,-3.2963,-3.1832,-3.1071,-3.0956,-3.0918,-3.0918,-3.0918,-3.0918,-3.0918,-3.0918,-3.0918,-3.0918,-3.0918,-3.0918,0.0,-3.0018,-2.9549,-2.9334,-2.775,-2.693,-2.6756,-2.6052,-2.57,-2.5702,-2.57,-2.5699,-2.5699,-2.57,-2.5698,-2.5694,-2.5689,-2.5687,-2.5688,-2.5687,-2.5688,-2.5689,-2.4829,-2.4361,-2.4167,-2.2702,-2.1804,-2.1531,-2.011,-1.9194,-1.892,-1.822,-1.7753,-1.7655,-1.7754,-1.7812,-1.7812,-1.7884,-1.7905,-1.7922,-1.7859,-1.8105,-1.8789,-1.9617,-1.9761,-1.8945,-1.963,-2.0123,-2.0142,-2.0854,-2.1374,-2.1585,-2.284,-2.3759,-2.411,-2.4716,-2.5192,-2.5308,-2.5308,-2.5308,-2.5308,-2.5308,-2.5308,-2.5308,-2.5308,-2.5308,-2.5308,-2.5308,-2.5308,-2.5308,-2.5308,-2.5308,-2.5308,-2.5308,-2.525,-2.5019,-2.4505,-2.4144,-2.3956,-2.3182,-2.237,-2.1696,-2.0869,-2.0286,-2.0088,-1.9847,-1.9681,-1.9675,-1.9635,-1.9604,-1.9583,-1.9583,-1.9583,-1.9583,-1.9583,-1.9583,-3.6018,-3.596,-3.5591,-3.5399,-3.5305,-3.4057,-3.3042,-3.2222,-3.1735,-3.1287,-3.0917,-3.0917,-3.0917,-3.0917,-3.0918,-3.0918,-3.0918,-3.0918,-3.0918,-3.0879,-3.0506,-3.0056,-2.951,-2.8297,-2.7457,-2.6969,-2.611,-2.57,-2.5699,-2.5698,-2.5698,-2.57,-2.57,-2.5698,-2.5694,-2.5689,-2.5687,-2.5687,-2.5687,-2.5687,-2.5687,-2.5317,-2.4868,-2.4401,-2.319,-2.2331,-2.1903,-2.0676,-1.9798,-1.933,-1.8922,-1.8494,-1.8044,-1.8411,-1.8643,-1.8662,-1.9032,-1.9252,-1.9256,-1.9206,-1.9313,-1.9692,-2.0073,-2.0339,-2.0373,-2.0716,-2.0946,-2.0966,-2.1716,-2.2408,-2.2855,-2.3629,-2.4259,-2.4697,-2.5096,-2.5288,-2.5308,-2.5308,-2.5308,-2.5308,-2.5308,-2.5308,-2.5308,-2.5308,-2.5308,-2.5308,-2.5308,-2.5308,-2.5308,-2.5308,-2.5308,-2.5308,-2.5308,-2.5308,-2.5288,-2.5019,-2.4774,-2.4755,-2.4048,-2.3201,-2.2312,-2.1235,-2.0367,-2.0126,-1.9909,-1.9775,-1.9732,-1.9648,-1.9604,-1.9583,-1.9583,-1.9583,-1.9583,-1.9583,-1.9583,-3.6016,-3.6021,-3.6014,-3.5901,-3.5656,-3.4992,-3.4191,-3.3332,-3.2472,-3.175,-3.1185,-3.0993,-3.0916,-3.0916,-3.0918,-3.0918,-3.0918,-3.0918,-3.0918,-3.0918,-3.0916,-3.0446,-2.9567,-2.8726,-2.7846,-2.6986,-2.6108,-2.5696,-2.5694,-2.5694,-2.5698,-2.57,-2.57,-2.5698,-2.5694,-2.569,-2.5688,-2.5687,-2.5687,-2.5687,-2.5687,-2.5687,-2.5376,-2.4695,-2.364,-2.282,-2.2178,-2.1164,-2.0285,-1.9661,-1.9584,-1.9273,-1.8686,-1.916,-1.948,-1.9536,-2.0048,-2.0386,-2.0365,-2.032,-2.0289,-2.0312,-2.0481,-2.0827,-2.1427,-2.1889,-2.1989,-2.1927,-2.2586,-2.3374,-2.3918,-2.4283,-2.4625,-2.5231,-2.5308,-2.5308,-2.5308,-2.5308,-2.5308,-2.5308,-2.5308,-2.5308,-2.5308,-2.5308,-2.5308,-2.5308,-2.5308,-2.5308,-2.5308,-2.5308,-2.5308,-2.5308,-2.5308,-2.5308,-2.5308,-2.5288,-2.525,-2.5288,-2.4606,-2.3721,-2.2836,-2.1639,-2.0679,-2.0341,-1.9986,-1.9838,-1.9719,-1.9648,-1.9604,-1.9583,-1.9583,-1.9583,-1.9583,-1.9583,-1.9583,-3.6012,-3.6013,-3.6012,-3.5525,-3.4903,-3.4766,-3.4239,-3.336,-3.2483,-3.2073,-3.188,-3.1224,-3.0896,-3.0916,-3.0917,-3.0917,-3.0917,-3.0918,-3.0918,-3.0917,-3.0916,-3.0446,-2.9562,-2.8703,-2.7843,-2.6984,-2.6102,-2.5691,-2.5694,-2.5698,-2.57,-2.5702,-2.5701,-2.5698,-2.5694,-2.5693,-2.5691,-2.5688,-2.5687,-2.5687,-2.5687,-2.5687,-2.5668,-2.559,-2.395,-2.3072,-2.2897,-2.1453,-2.0575,-2.0497,-2.0461,-2.0424,-2.0345,-2.0352,-2.038,-2.0357,-2.0325,-2.0305,-2.03,-2.03,-2.0312,-2.0346,-2.0981,-2.1423,-2.1639,-2.2951,-2.3494,-2.3067,-2.3514,-2.4028,-2.4125,-2.4736,-2.5154,-2.5269,-2.5308,-2.5308,-2.5308,-2.5308,-2.5308,-2.5308,-2.5308,-2.5308,-2.5308,-2.5308,-2.5308,-2.5308,-2.5308,-2.5308,-2.5308,-2.5308,-2.5308,-2.5308,-2.5308,-2.5308,-2.5308,-2.5308,-2.5308,-2.5231,-2.4639,-2.3836,-2.3043,-2.2581,-2.2094,-2.0407,-1.996,-1.9815,-1.9738,-1.9655,-1.959,-1.9583,-1.9583,-1.9583,-1.9583,-1.9583,-1.9583,-3.6461,-3.6012,-3.6012,-3.5797,-3.5485,-3.5485,-3.4959,-3.412,-3.3241,-3.2598,-3.2036,-3.1218,-3.0851,-3.0915,-3.0916,-3.0917,-3.0918,-3.0917,-3.0917,-3.0917,-3.0916,-3.0446,-2.9585,-2.8705,-2.7825,-2.6983,-2.6103,-2.5692,-2.5695,-2.57,-2.5702,-2.5701,-2.57,-2.5698,-2.5694,-2.5691,-2.5689,-2.5687,-2.5687,-2.5687,-2.5687,-2.5687,-2.5687,-2.557,-2.4497,-2.3599,-2.3052,-2.1959,-2.1119,-2.0652,-2.0595,-2.0572,-2.0542,-2.0476,-2.0426,-2.0393,-2.0331,-2.0292,-2.0292,-2.0288,-2.05,-2.0962,-2.1312,-2.1889,-2.2947,-2.3721,-2.4105,-2.4332,-2.462,-2.4812,-2.4812,-2.5096,-2.5308,-2.5308,-2.5308,-2.5308,-2.5308,-2.5308,-2.5308,-2.5308,-2.5308,-2.5308,-2.5308,-2.5308,-2.5308,-2.5308,-2.5308,-2.5308,-2.5308,-2.5308,-2.5308,-2.5308,-2.5308,-2.5308,-2.5308,-2.5308,-2.5308,-2.525,-2.5038,-2.4447,-2.3139,-2.2797,-2.2222,-2.0504,-2.0045,-1.9816,-1.9821,-1.9694,-1.9583,-1.9583,-1.9583,-1.9583,-1.9583,-1.9583,-1.9583,-3.6792,-3.607,-3.6012,-3.6012,-3.6012,-3.6012,-3.5504,-3.4627,-3.3768,-3.2911,-3.2055,-3.1174,-3.0846,-3.0912,-3.0915,-3.0917,-3.0917,-3.0917,-3.0917,-3.0917,-3.0915,-3.0308,-2.9254,-2.8629,-2.7729,-2.6692,-2.6007,-2.5694,-2.5696,-2.57,-2.5701,-2.57,-2.57,-2.5699,-2.5693,-2.5692,-2.5691,-2.5688,-2.5687,-2.5687,-2.5687,-2.5687,-2.5687,-2.5629,-2.4867,-2.4086,-2.3482,-2.2467,-2.1627,-2.0983,-2.075,-2.0585,-2.05,-2.0445,-2.0366,-2.0305,-2.03,-2.0404,-2.06,-2.0635,-2.0981,-2.1754,-2.2028,-2.2729,-2.383,-2.4312,-2.4711,-2.5149,-2.5313,-2.5269,-2.5308,-2.5308,-2.5308,-2.5308,-2.5308,-2.5308,-2.5308,-2.5308,-2.5308,-2.5308,-2.5308,-2.5308,-2.5308,-2.5308,-2.5308,-2.5308,-2.5308,-2.5308,-2.5308,-2.5308,-2.5308,-2.5308,-2.5308,-2.5308,-2.5308,-2.5308,-2.5308,-2.5212,-2.5115,-2.4332,-2.2985,-2.2601,-2.1978,-2.0287,-1.9949,-1.977,-1.9781,-1.9675,-1.9611,-1.9597,-1.9583,-1.9583,-1.9583,-1.9583,-1.9583,-3.6792,-3.607,-3.6012,-3.6012,-3.6012,-3.6012,-3.5524,-3.4725,-3.3788,-3.291,-3.211,-3.1172,-3.0824,-3.0889,-3.0913,-3.0914,-3.0915,-3.0916,-3.0916,-3.0915,-3.0914,-2.9994,-2.8427,-2.8275,-2.7438,-2.607,-2.5813,-2.5696,-2.57,-2.57,-2.57,-2.57,-2.5702,-2.57,-2.5692,-2.5696,-2.5696,-2.5688,-2.5687,-2.5687,-2.5687,-2.5687,-2.5687,-2.5629,-2.4867,-2.4418,-2.4144,-2.2777,-2.1919,-2.1841,-2.1081,-2.0604,-2.0539,-2.048,-2.0421,-2.0396,-2.0389,-2.0692,-2.135,-2.1466,-2.1812,-2.2682,-2.3373,-2.3964,-2.419,-2.483,-2.5254,-2.5374,-2.5341,-2.5313,-2.5308,-2.5308,-2.5308,-2.5293,-2.5308,-2.5308,-2.5308,-2.5313,-2.5308,-2.5308,-2.5308,-2.5308,-2.5308,-2.5308,-2.5308,-2.5308,-2.5308,-2.5308,-2.5308,-2.5308,-2.5308,-2.5308,-2.5308,-2.5308,-2.5308,-2.5308,-2.5308,-2.5231,-2.4832,-2.3975,-2.2759,-2.1669,-2.0892,-2.0276,-2.0183,-2.0049,-1.9822,-1.9688,-1.9661,-1.9633,-1.9597,-1.9583,-1.9583,-1.9583,-1.9583,-3.7301,-3.6012,-3.6012,-3.6012,-3.6012,-3.6012,-3.5817,-3.5389,-3.4021,-3.3243,-3.2719,-3.1447,-3.0826,-3.0912,-3.0913,-3.0915,-3.0915,-3.0913,-3.0913,-3.0915,-3.0914,-3.0269,-2.9176,-2.8592,-2.7694,-2.6619,-2.5951,-2.5696,-2.57,-2.5702,-2.5703,-2.5703,-2.5702,-2.5701,-2.5698,-2.5696,-2.5694,-2.5688,-2.5687,-2.5687,-2.5687,-2.5687,-2.5687,-2.5687,-2.5395,-2.4965,-2.4398,-2.3813,-2.3247,-2.2681,-2.1862,-2.1377,-2.1284,-2.1174,-2.1359,-2.1844,-2.1908,-2.2023,-2.2297,-2.2331,-2.2701,-2.3533,-2.3903,-2.4369,-2.4807,-2.5154,-2.5346,-2.5346,-2.538,-2.5351,-2.5313,-2.5308,-2.5298,-2.5332,-2.5322,-2.5317,-2.5332,-2.5361,-2.5351,-2.5313,-2.5308,-2.5308,-2.5308,-2.5308,-2.5308,-2.5308,-2.5308,-2.5308,-2.5308,-2.5308,-2.5308,-2.5308,-2.5308,-2.5308,-2.5308,-2.5308,-2.5288,-2.525,-2.4904,-2.412,-2.3062,-2.2427,-2.172,-2.0444,-2.0296,-2.0203,-1.9934,-1.9719,-1.9694,-1.962,-1.9583,-1.9583,-1.9583,-1.9583,-1.9583,-3.7087,-3.6109,-3.6012,-3.6012,-3.6012,-3.6012,-3.5836,-3.5446,-3.404,-3.3243,-3.2739,-3.1427,-3.0846,-3.0892,-3.0913,-3.0914,-3.0916,-3.0913,-3.0912,-3.0914,-3.0913,-3.0424,-2.9625,-2.9002,-2.828,-2.74,-2.6539,-2.6128,-2.6072,-2.582,-2.5703,-2.5703,-2.5703,-2.5702,-2.5699,-2.5697,-2.5694,-2.5689,-2.5687,-2.5687,-2.5687,-2.5687,-2.5687,-2.5687,-2.5687,-2.5434,-2.4828,-2.4554,-2.4163,-2.3499,-2.2713,-2.2213,-2.2084,-2.1987,-2.2177,-2.2701,-2.2778,-2.2951,-2.3182,-2.3201,-2.3586,-2.4394,-2.4519,-2.4793,-2.5289,-2.5337,-2.5337,-2.5341,-2.536,-2.5364,-2.5341,-2.5317,-2.5341,-2.5394,-2.5361,-2.5341,-2.5384,-2.5379,-2.5361,-2.5317,-2.5308,-2.5308,-2.5308,-2.5308,-2.5308,-2.5308,-2.5308,-2.5308,-2.5308,-2.5308,-2.5308,-2.5308,-2.5308,-2.5308,-2.5308,-2.5308,-2.5308,-2.5269,-2.5207,-2.4385,-2.3389,-2.2889,-2.21,-2.0846,-2.0264,-2.0199,-2.005,-1.9815,-1.9701,-1.9625,-1.9583,-1.9583,-1.9583,-1.9583,-1.9583,-3.6031,-3.6012,-3.6012,-3.6012,-3.6012,-3.6012,-3.5524,-3.4822,-3.3827,-3.3066,-3.2522,-3.127,-3.0883,-3.0946,-3.0967,-3.0912,-3.0915,-3.0914,-3.0912,-3.091,-3.0909,-3.0479,-2.9737,-2.9546,-2.8922,-2.8024,-2.7341,-2.6913,-2.6718,-2.6054,-2.5703,-2.5703,-2.5703,-2.5702,-2.5694,-2.5698,-2.5696,-2.569,-2.5687,-2.5687,-2.5687,-2.5687,-2.5687,-2.5687,-2.5687,-2.5668,-2.5609,-2.4886,-2.4496,-2.4317,-2.3517,-2.3004,-2.2934,-2.286,-2.284,-2.2998,-2.2936,-2.3297,-2.3975,-2.411,-2.4437,-2.5029,-2.5303,-2.5297,-2.536,-2.5397,-2.5391,-2.5387,-2.5395,-2.5395,-2.5387,-2.5406,-2.5402,-2.5384,-2.5369,-2.5382,-2.5387,-2.5388,-2.5365,-2.5322,-2.5298,-2.5308,-2.5308,-2.5308,-2.5308,-2.5308,-2.5308,-2.5308,-2.5308,-2.5308,-2.5308,-2.5308,-2.5308,-2.5308,-2.5308,-2.5308,-2.5308,-2.5288,-2.5212,-2.475,-2.337,-2.2543,-2.1773,-2.0673,-2.0308,-2.0225,-2.0069,-1.9868,-1.9738,-1.9667,-1.9645,-1.9604,-1.9583,-1.9583,-1.9583,-3.6012,-3.6012,-3.6012,-3.6012,-3.6012,-3.6012,-3.5817,-3.5426,-3.406,-3.3595,-3.3462,-3.1701,-3.1119,-3.1476,-3.1182,-3.0909,-3.0911,-3.0913,-3.0914,-3.0914,-3.0911,-3.0772,-3.0424,-2.988,-2.8826,-2.7577,-2.7148,-2.6679,-2.6171,-2.584,-2.5703,-2.5703,-2.5703,-2.5703,-2.5699,-2.5699,-2.5697,-2.5689,-2.5687,-2.5687,-2.5687,-2.5687,-2.5687,-2.5687,-2.5687,-2.5687,-2.5687,-2.5434,-2.5297,-2.5257,-2.4449,-2.392,-2.3862,-2.3786,-2.403,-2.452,-2.4537,-2.4577,-2.4851,-2.4966,-2.5057,-2.5331,-2.5384,-2.5397,-2.5382,-2.5387,-2.5395,-2.5391,-2.5385,-2.5393,-2.54,-2.5455,-2.544,-2.5385,-2.5395,-2.54,-2.5389,-2.5391,-2.5387,-2.5387,-2.5364,-2.5365,-2.5356,-2.5327,-2.5308,-2.5308,-2.5308,-2.5308,-2.5308,-2.5308,-2.5308,-2.5308,-2.5308,-2.5308,-2.5308,-2.5308,-2.5308,-2.5308,-2.525,-2.4692,-2.3351,-2.2427,-2.16,-2.0804,-2.0438,-2.0216,-2.006,-1.9928,-1.9811,-1.9726,-1.9701,-1.9655,-1.9611,-1.9611,-1.9633,-3.6012,-3.6012,-3.6012,-3.6012,-3.6012,-3.6012,-3.6012,-3.5797,-3.4509,-3.4199,-3.4144,-3.2287,-3.1567,-3.1866,-3.126,-3.0929,-3.0911,-3.0912,-3.0913,-3.0915,-3.0913,-3.0911,-3.0854,-3.0367,-2.9393,-2.8143,-2.7656,-2.7031,-2.6191,-2.5859,-2.5703,-2.5703,-2.5703,-2.5703,-2.57,-2.57,-2.5697,-2.5689,-2.5687,-2.5687,-2.5687,-2.5687,-2.5687,-2.5687,-2.5687,-2.5687,-2.5687,-2.5687,-2.5687,-2.5608,-2.5113,-2.4838,-2.4756,-2.4707,-2.4869,-2.5244,-2.5344,-2.5303,-2.5313,-2.5312,-2.5388,-2.5384,-2.5397,-2.5391,-2.5391,-2.5395,-2.538,-2.5385,-2.5421,-2.5425,-2.544,-2.5472,-2.5464,-2.5452,-2.544,-2.5417,-2.5401,-2.5385,-2.5387,-2.5387,-2.536,-2.5365,-2.5351,-2.5327,-2.5308,-2.5308,-2.5308,-2.5308,-2.5308,-2.5308,-2.5308,-2.5308,-2.5308,-2.5308,-2.5308,-2.5308,-2.5308,-2.5308,-2.5288,-2.437,-2.3201,-2.2716,-2.2043,-2.0887,-2.0264,-2.0199,-2.0055,-1.9986,-1.989,-1.9845,-1.978,-1.9763,-1.9745,-1.9751,-1.9751,-3.6012,-3.6012,-3.6012,-3.6012,-3.6012,-3.6012,-3.6012,-3.5856,-3.5037,-3.4629,-3.4316,-3.2773,-3.2054,-3.1921,-3.1238,-3.0889,-3.0892,-3.091,-3.089,-3.0893,-3.0892,-3.0911,-3.087,-3.0795,-3.0134,-2.9198,-2.8514,-2.7714,-2.6621,-2.5996,-2.5703,-2.5703,-2.5703,-2.5703,-2.5701,-2.57,-2.5697,-2.5689,-2.5687,-2.5687,-2.5687,-2.5687,-2.5687,-2.5687,-2.5687,-2.5687,-2.5687,-2.5687,-2.5687,-2.5704,-2.5566,-2.5453,-2.5454,-2.5439,-2.5356,-2.541,-2.5395,-2.537,-2.5332,-2.5364,-2.5387,-2.5393,-2.5406,-2.5395,-2.5423,-2.5417,-2.5406,-2.5401,-2.5456,-2.5488,-2.5488,-2.5488,-2.5488,-2.5507,-2.5503,-2.5456,-2.5401,-2.5408,-2.54,-2.5397,-2.5341,-2.5298,-2.5313,-2.5308,-2.5322,-2.5322,-2.5322,-2.5322,-2.5317,-2.5317,-2.5313,-2.5313,-2.5317,-2.5308,-2.5308,-2.5308,-2.5308,-2.5293,-2.526,-2.4519,-2.3349,-2.2825,-2.229,-2.1131,-2.0299,-2.0224,-2.0116,-2.0074,-2.0021,-1.996,-1.9915,-1.9923,-1.9885,-1.9845,-1.9839,-3.6012,-3.6012,-3.6012,-3.6012,-3.6012,-3.6012,-3.6012,-3.5875,-3.5076,-3.4744,-3.4334,-3.2871,-3.213,-3.2014,-3.1214,-3.0824,-3.0846,-3.0867,-3.0866,-3.0826,-3.0889,-3.0909,-3.0908,-3.0873,-3.0114,-2.8846,-2.8417,-2.7519,-2.6113,-2.584,-2.5703,-2.5703,-2.5703,-2.5703,-2.57,-2.57,-2.5696,-2.5689,-2.5687,-2.5687,-2.5687,-2.5687,-2.5687,-2.5687,-2.5687,-2.5687,-2.5687,-2.5687,-2.5687,-2.5705,-2.5641,-2.5598,-2.5576,-2.5499,-2.5464,-2.5449,-2.5421,-2.5402,-2.5402,-2.54,-2.5408,-2.5408,-2.544,-2.5476,-2.5476,-2.548,-2.5484,-2.5484,-2.5488,-2.5507,-2.5507,-2.5507,-2.5507,-2.5507,-2.5507,-2.5488,-2.548,-2.5476,-2.5472,-2.5468,-2.54,-2.5367,-2.5363,-2.5373,-2.5364,-2.5364,-2.5364,-2.536,-2.5346,-2.5346,-2.5341,-2.5351,-2.5351,-2.5317,-2.5308,-2.5308,-2.5308,-2.5293,-2.5192,-2.4946,-2.3775,-2.2797,-2.2169,-2.1317,-2.0743,-2.0511,-2.0354,-2.0239,-2.0174,-2.0069,-2.0065,-2.005,-1.9955,-1.9896,-1.9912,-3.6012,-3.6012,-3.6012,-3.6012,-3.6012,-3.6012,-3.6012,-3.5914,-3.5504,-3.5018,-3.4452,-3.328,-3.2441,-3.2032,-3.1192,-3.08,-3.0821,-3.0844,-3.0844,-3.0822,-3.0866,-3.0908,-3.0911,-3.0894,-3.0174,-2.8945,-2.8457,-2.7539,-2.6406,-2.5898,-2.5703,-2.5703,-2.5703,-2.5703,-2.57,-2.57,-2.5697,-2.569,-2.5687,-2.5687,-2.5687,-2.5687,-2.5687,-2.5687,-2.5687,-2.5687,-2.5687,-2.5687,-2.5687,-2.5705,-2.5673,-2.5639,-2.56,-2.5561,-2.5534,-2.5489,-2.5467,-2.5457,-2.5445,-2.5441,-2.5429,-2.5425,-2.546,-2.5507,-2.5507,-2.5507,-2.5507,-2.5507,-2.5507,-2.5507,-2.5507,-2.5507,-2.5507,-2.5507,-2.5507,-2.5507,-2.5507,-2.548,-2.546,-2.5452,-2.5421,-2.5389,-2.5389,-2.54,-2.5395,-2.5387,-2.5387,-2.5378,-2.5393,-2.5393,-2.5393,-2.5384,-2.5374,-2.5346,-2.5341,-2.5341,-2.5337,-2.5337,-2.5278,-2.5069,-2.4264,-2.311,-2.2589,-2.1995,-2.132,-2.0822,-2.0745,-2.0567,-2.0277,-2.0207,-2.0199,-2.0169,-2.0093,-2.0016,-2.0021,-3.6012,-3.6012,-3.6012,-3.6012,-3.6012,-3.6012,-3.6012,-3.6012,-3.5953,-3.5369,-3.4471,-3.371,-3.2733,-3.1934,-3.1114,-3.08,-3.08,-3.0801,-3.0822,-3.0843,-3.0867,-3.0911,-3.0914,-3.0915,-3.037,-2.9492,-2.875,-2.7891,-2.6973,-2.6191,-2.582,-2.5742,-2.5703,-2.5703,-2.5701,-2.57,-2.5697,-2.569,-2.5687,-2.5687,-2.5687,-2.5687,-2.5687,-2.5687,-2.5687,-2.5687,-2.5687,-2.5687,-2.5687,-2.5687,-2.5685,-2.5668,-2.5603,-2.5607,-2.557,-2.5526,-2.5492,-2.5506,-2.5499,-2.5487,-2.548,-2.5437,-2.5484,-2.5511,-2.5506,-2.551,-2.5515,-2.5518,-2.5503,-2.5507,-2.5507,-2.5507,-2.5507,-2.5507,-2.5507,-2.5507,-2.5488,-2.5452,-2.5425,-2.5406,-2.5408,-2.54,-2.5415,-2.5415,-2.5419,-2.5436,-2.5432,-2.5427,-2.5423,-2.54,-2.5395,-2.5391,-2.5382,-2.5397,-2.5378,-2.5378,-2.5373,-2.5373,-2.5372,-2.5172,-2.469,-2.3844,-2.3338,-2.2779,-2.2211,-2.1708,-2.1357,-2.1057,-2.0641,-2.0295,-2.0254,-2.0265,-2.0265,-2.0195,-2.0186,-3.6012,-3.6012,-3.6012,-3.6012,-3.6012,-3.6012,-3.6012,-3.6012,-3.5992,-3.5094,-3.3904,-3.3455,-3.2498,-3.1114,-3.0917,-3.08,-3.08,-3.0801,-3.0823,-3.0867,-3.0871,-3.0914,-3.0916,-3.0916,-3.0428,-2.9745,-2.9453,-2.8496,-2.7305,-2.6777,-2.6348,-2.5762,-2.5703,-2.5703,-2.57,-2.57,-2.5697,-2.5689,-2.5687,-2.5687,-2.5687,-2.5687,-2.5687,-2.5687,-2.5687,-2.5687,-2.5687,-2.5687,-2.5687,-2.5683,-2.5651,-2.5637,-2.5605,-2.5615,-2.5585,-2.5569,-2.5524,-2.552,-2.5511,-2.5508,-2.548,-2.5496,-2.5499,-2.5523,-2.5583,-2.5523,-2.5505,-2.5522,-2.5518,-2.5511,-2.5519,-2.5507,-2.5507,-2.5507,-2.5507,-2.5507,-2.5507,-2.5484,-2.5464,-2.546,-2.5476,-2.5476,-2.5476,-2.5491,-2.5495,-2.5476,-2.5476,-2.5476,-2.5472,-2.544,-2.5417,-2.5412,-2.5408,-2.5419,-2.5391,-2.5395,-2.5395,-2.5419,-2.5417,-2.5406,-2.4903,-2.4579,-2.4092,-2.3636,-2.316,-2.2657,-2.2067,-2.1571,-2.1159,-2.0739,-2.0297,-2.0303,-2.0295,-2.0295,-2.0295,-3.6012,-3.6012,-3.6012,-3.6012,-3.6012,-3.6012,-3.6012,-3.5914,-3.5524,-3.4665,-3.3513,-3.3007,-3.201,-3.0839,-3.08,-3.08,-3.0801,-3.0824,-3.0848,-3.0891,-3.0914,-3.0916,-3.0916,-3.0898,-3.0605,-3.0176,-2.9766,-2.8828,-2.7851,-2.7148,-2.6523,-2.5781,-2.5703,-2.5703,-2.57,-2.57,-2.5697,-2.5689,-2.5687,-2.5687,-2.5687,-2.5687,-2.5687,-2.5687,-2.5687,-2.5688,-2.5691,-2.569,-2.5691,-2.5688,-2.5663,-2.5629,-2.5618,-2.5641,-2.5621,-2.559,-2.5603,-2.5598,-2.5595,-2.5556,-2.5542,-2.5542,-2.5561,-2.5539,-2.5554,-2.5539,-2.5529,-2.5513,-2.5514,-2.5515,-2.5523,-2.5507,-2.5511,-2.5507,-2.5507,-2.5507,-2.5507,-2.5507,-2.5507,-2.5507,-2.5507,-2.5507,-2.5507,-2.5507,-2.5507,-2.5503,-2.5503,-2.5503,-2.5503,-2.5476,-2.5476,-2.5452,-2.5448,-2.544,-2.5408,-2.5389,-2.5417,-2.544,-2.5452,-2.546,-2.5286,-2.5058,-2.485,-2.4405,-2.3979,-2.3248,-2.2664,-2.2188,-2.1507,-2.0753,-2.033,-2.0304,-2.0297,-2.029,-2.0287,-3.6012,-3.6012,-3.6012,-3.6012,-3.6012,-3.6012,-3.6012,-3.5895,-3.5213,-3.4471,-3.3416,-3.2578,-3.1934,-3.0976,-3.08,-3.08,-3.0803,-3.0867,-3.0911,-3.0913,-3.0916,-3.0917,-3.0917,-3.0898,-3.0859,-3.0801,-3.0254,-2.9316,-2.8301,-2.7539,-2.6777,-2.5898,-2.5703,-2.5703,-2.5701,-2.57,-2.5697,-2.5689,-2.5687,-2.5687,-2.5687,-2.5687,-2.5687,-2.5687,-2.5687,-2.5689,-2.5692,-2.5693,-2.5694,-2.5695,-2.5698,-2.5672,-2.5644,-2.565,-2.5698,-2.5627,-2.5663,-2.568,-2.5676,-2.5645,-2.5611,-2.5609,-2.5629,-2.5601,-2.557,-2.5576,-2.5565,-2.5537,-2.551,-2.5508,-2.5513,-2.5503,-2.5518,-2.5511,-2.5523,-2.5507,-2.5507,-2.5507,-2.5507,-2.5507,-2.5507,-2.5507,-2.5507,-2.5507,-2.5507,-2.5507,-2.5507,-2.5507,-2.5507,-2.5507,-2.5507,-2.5488,-2.548,-2.5476,-2.5448,-2.5444,-2.5452,-2.5456,-2.5484,-2.5507,-2.5507,-2.5376,-2.5182,-2.5178,-2.4714,-2.3983,-2.3252,-2.2633,-2.1852,-2.0833,-2.0344,-2.0337,-2.0311,-2.0301,-2.0304,-3.6012,-3.6012,-3.6012,-3.6012,-3.6012,-3.6012,-3.6012,-3.5992,-3.5758,-3.486,-3.3474,-3.3182,-3.2168,-3.1132,-3.08,-3.08,-3.0804,-3.0869,-3.0913,-3.0914,-3.0917,-3.0918,-3.0918,-3.0918,-3.0918,-3.0879,-3.0586,-2.9805,-2.8613,-2.8066,-2.7109,-2.6016,-2.5703,-2.5703,-2.5701,-2.57,-2.5697,-2.569,-2.5688,-2.5688,-2.5688,-2.5687,-2.5688,-2.5688,-2.5688,-2.5691,-2.5694,-2.5694,-2.5696,-2.5699,-2.57,-2.57,-2.5679,-2.5681,-2.5682,-2.568,-2.5694,-2.5691,-2.5689,-2.5685,-2.5682,-2.5702,-2.5682,-2.569,-2.5672,-2.5669,-2.5629,-2.5598,-2.5542,-2.5521,-2.5576,-2.5532,-2.5508,-2.5512,-2.5517,-2.5519,-2.5519,-2.5511,-2.5511,-2.5507,-2.5507,-2.5507,-2.5507,-2.5507,-2.5507,-2.5507,-2.5507,-2.5507,-2.5507,-2.5507,-2.5507,-2.5507,-2.5507,-2.5507,-2.5503,-2.5503,-2.5503,-2.5484,-2.5507,-2.5507,-2.5507,-2.5507,-2.5449,-2.5372,-2.5256,-2.4757,-2.4002,-2.3155,-2.2278,-2.1339,-2.0856,-2.0373,-2.0344,-2.0318,-2.0344,-3.6012,-3.6012,-3.6012,-3.6012,-3.6012,-3.6012,-3.6012,-3.5914,-3.5504,-3.4606,-3.3552,-3.2889,-3.2051,-3.1055,-3.08,-3.08,-3.0804,-3.0868,-3.0912,-3.0914,-3.0917,-3.0917,-3.0918,-3.0918,-3.0918,-3.0898,-3.082,-3.0,-2.8457,-2.8281,-2.7305,-2.6094,-2.5703,-2.5703,-2.5701,-2.57,-2.5697,-2.5692,-2.569,-2.5691,-2.569,-2.5689,-2.5688,-2.569,-2.5691,-2.5694,-2.5699,-2.5699,-2.57,-2.5701,-2.5702,-2.5702,-2.5702,-2.5703,-2.5703,-2.5703,-2.5703,-2.5703,-2.5703,-2.5699,-2.5699,-2.57,-2.5703,-2.5698,-2.57,-2.5697,-2.5672,-2.5654,-2.5639,-2.5601,-2.5598,-2.5561,-2.5569,-2.5537,-2.5534,-2.5518,-2.552,-2.5515,-2.5523,-2.5515,-2.5511,-2.5511,-2.5507,-2.5507,-2.5507,-2.5507,-2.5507,-2.5507,-2.5507,-2.5507,-2.5507,-2.5507,-2.5507,-2.5507,-2.5507,-2.5507,-2.5507,-2.5507,-2.5507,-2.5507,-2.5507,-2.5507,-2.5507,-2.5488,-2.5314,-2.5178,-2.435,-2.3368,-2.2606,-2.1807,-2.1053,-2.0473,-2.0395,-2.0357,-2.0379,-3.6012,-3.6012,-3.6012,-3.6012,-3.6012,-3.6012,-3.6012,-3.5817,-3.5096,-3.4393,-3.3593,-3.2617,-3.1777,-3.1172,-3.0878,-3.08,-3.0801,-3.0866,-3.0911,-3.0914,-3.0916,-3.0917,-3.0917,-3.0918,-3.0918,-3.0918,-3.0898,-3.0,-2.8594,-2.8281,-2.7285,-2.6152,-2.5703,-2.5703,-2.5701,-2.57,-2.5698,-2.5695,-2.5694,-2.5694,-2.5694,-2.5691,-2.5691,-2.5695,-2.5695,-2.5698,-2.5702,-2.5702,-2.5702,-2.5703,-2.5703,-2.5703,-2.5703,-2.5703,-2.5703,-2.5703,-2.5703,-2.5703,-2.5703,-2.5703,-2.5703,-2.5703,-2.5703,-2.5703,-2.5698,-2.57,-2.57,-2.5694,-2.5686,-2.5663,-2.5633,-2.5637,-2.5634,-2.5625,-2.5576,-2.5518,-2.5504,-2.5518,-2.5517,-2.5503,-2.5503,-2.5515,-2.5515,-2.5507,-2.5507,-2.5507,-2.5507,-2.5507,-2.5507,-2.5507,-2.5507,-2.5507,-2.5507,-2.5507,-2.5507,-2.5507,-2.5507,-2.5507,-2.5507,-2.5507,-2.5507,-2.5507,-2.5507,-2.5507,-2.5488,-2.524,-2.4389,-2.3635,-2.2861,-2.2026,-2.1079,-2.0534,-2.0418,-2.0379,-2.0379,-3.6012,-3.6012,-3.6012,-3.6012,-3.6012,-3.6012,-3.5992,-3.5836,-3.5096,-3.4668,-3.412,-3.2891,-3.2071,-3.166,-3.1055,-3.082,-3.0822,-3.0865,-3.091,-3.0913,-3.0915,-3.0917,-3.0918,-3.0918,-3.0918,-3.0918,-3.0918,-2.9902,-2.8769,-2.8379,-2.7383,-2.6055,-2.5703,-2.5703,-2.57,-2.57,-2.5698,-2.5694,-2.5694,-2.5696,-2.5698,-2.5696,-2.5696,-2.5698,-2.57,-2.57,-2.5702,-2.5703,-2.5703,-2.5703,-2.5703,-2.5703,-2.5703,-2.5703,-2.5703,-2.5703,-2.5703,-2.5703,-2.5703,-2.5703,-2.5703,-2.5703,-2.5703,-2.5703,-2.5702,-2.5699,-2.5699,-2.5703,-2.5698,-2.5695,-2.5677,-2.5692,-2.5667,-2.5655,-2.5637,-2.56,-2.5565,-2.5532,-2.5537,-2.5522,-2.5531,-2.551,-2.5507,-2.5515,-2.5507,-2.5507,-2.5507,-2.5507,-2.5507,-2.5507,-2.5507,-2.5507,-2.5507,-2.5507,-2.5507,-2.5507,-2.5507,-2.5507,-2.5507,-2.5507,-2.5507,-2.5507,-2.5507,-2.5507,-2.5507,-2.5492,-2.4969,-2.4196,-2.3213,-2.2323,-2.1488,-2.0885,-2.0399,-2.0379,-2.0402,-3.6012,-3.6012,-3.6012,-3.6012,-3.6012,-3.6012,-3.5699,-3.5369,-3.5408,-3.4588,-3.3437,-3.3085,-3.2343,-3.1485,-3.0917,-3.08,-3.0821,-3.0843,-3.0867,-3.0892,-3.0914,-3.0916,-3.0917,-3.0918,-3.0918,-3.0918,-3.0801,-3.0332,-2.9238,-2.834,-2.7422,-2.5977,-2.5703,-2.5702,-2.57,-2.57,-2.5699,-2.5699,-2.5699,-2.57,-2.5701,-2.57,-2.5699,-2.5701,-2.5702,-2.5702,-2.5703,-2.5703,-2.5703,-2.5703,-2.5703,-2.5703,-2.5703,-2.5703,-2.5703,-2.5703,-2.5703,-2.5703,-2.5703,-2.5703,-2.5703,-2.5703,-2.5703,-2.5703,-2.5703,-2.5703,-2.5703,-2.5703,-2.5702,-2.5703,-2.5703,-2.5702,-2.5701,-2.5697,-2.5684,-2.5658,-2.5624,-2.5595,-2.5569,-2.5559,-2.5546,-2.5534,-2.5531,-2.5518,-2.5503,-2.5507,-2.5507,-2.5507,-2.5507,-2.5507,-2.5507,-2.5507,-2.5507,-2.5507,-2.5507,-2.5507,-2.5507,-2.5507,-2.5507,-2.5507,-2.5507,-2.5507,-2.5507,-2.5507,-2.5507,-2.5472,-2.5376,-2.466,-2.3596,-2.2745,-2.1952,-2.1314,-2.0692,-2.0402,-2.0402,-3.6012,-3.6012,-3.6012,-3.6012,-3.5973,-3.5778,-3.531,-3.4803,-3.4803,-3.4003,-3.2929,-3.2812,-3.2147,-3.1093,-3.082,-3.08,-3.08,-3.08,-3.0845,-3.0889,-3.0913,-3.0916,-3.0917,-3.0918,-3.0918,-3.0918,-3.0918,-3.0195,-2.9277,-2.8535,-2.7519,-2.6055,-2.582,-2.5722,-2.5701,-2.57,-2.57,-2.5701,-2.5702,-2.5702,-2.5702,-2.5702,-2.5702,-2.5702,-2.5703,-2.5703,-2.5703,-2.5703,-2.5703,-2.5703,-2.5703,-2.5703,-2.5703,-2.5703,-2.5703,-2.5703,-2.5703,-2.5703,-2.5703,-2.5703,-2.5703,-2.5703,-2.5703,-2.5703,-2.5703,-2.5703,-2.5703,-2.5703,-2.5703,-2.5703,-2.5703,-2.5703,-2.5703,-2.5703,-2.5699,-2.5697,-2.5691,-2.5633,-2.5614,-2.5609,-2.5595,-2.5574,-2.5557,-2.5522,-2.5506,-2.5515,-2.5507,-2.5507,-2.5507,-2.5507,-2.5507,-2.5507,-2.5507,-2.5507,-2.5507,-2.5507,-2.5507,-2.5507,-2.5507,-2.5507,-2.5507,-2.5507,-2.5507,-2.5507,-2.5507,-2.5488,-2.5453,-2.4718,-2.4002,-2.3287,-2.2555,-2.1646,-2.1024,-2.0672,-2.0402,-3.6012,-3.6012,-3.5992,-3.5953,-3.5895,-3.5115,-3.4764,-3.4354,-3.3105,-3.2929,-3.2968,-3.25,-3.166,-3.0977,-3.08,-3.08,-3.08,-3.08,-3.0847,-3.0891,-3.0914,-3.0916,-3.0917,-3.0918,-3.0918,-3.0898,-3.0742,-2.9844,-2.8769,-2.834,-2.7637,-2.6953,-2.6055,-2.578,-2.5702,-2.5701,-2.5701,-2.5702,-2.5703,-2.5703,-2.5703,-2.5703,-2.5703,-2.5703,-2.5703,-2.5703,-2.5703,-2.5703,-2.5703,-2.5703,-2.5703,-2.5703,-2.5703,-2.5703,-2.5703,-2.5703,-2.5703,-2.5703,-2.5703,-2.5703,-2.5703,-2.5703,-2.5703,-2.5703,-2.5703,-2.5703,-2.5703,-2.5703,-2.5703,-2.5703,-2.5703,-2.5703,-2.5703,-2.5703,-2.5703,-2.5703,-2.5703,-2.5694,-2.5666,-2.5661,-2.5653,-2.5621,-2.5601,-2.5583,-2.5515,-2.5508,-2.5511,-2.5507,-2.5507,-2.5507,-2.5507,-2.5507,-2.5507,-2.5507,-2.5507,-2.5507,-2.5507,-2.5507,-2.5507,-2.5507,-2.5507,-2.5507,-2.5507,-2.5507,-2.5507,-2.5507,-2.5449,-2.4931,-2.4409,-2.3871,-2.3097,-2.2014,-2.1179,-2.0692,-2.0479,-3.6012,-3.5953,-3.5428,-3.5213,-3.5172,-3.4861,-3.4081,-3.3222,-3.2949,-3.2714,-3.2539,-3.1699,-3.1114,-3.0859,-3.08,-3.08,-3.08,-3.08,-3.0826,-3.0871,-3.0913,-3.0916,-3.0917,-3.0918,-3.0918,-3.0781,-3.041,-2.9941,-2.9219,-2.8125,-2.7461,-2.6797,-2.6094,-2.582,-2.5702,-2.5702,-2.5702,-2.5703,-2.5703,-2.5703,-2.5703,-2.5703,-2.5703,-2.5703,-2.5703,-2.5703,-2.5703,-2.5703,-2.5703,-2.5703,-2.5703,-2.5703,-2.5703,-2.5703,-2.5703,-2.5703,-2.5703,-2.5703,-2.5703,-2.5703,-2.5703,-2.5703,-2.5703,-2.5703,-2.5703,-2.5703,-2.5703,-2.5703,-2.5703,-2.5703,-2.5703,-2.5703,-2.5703,-2.5703,-2.5703,-2.5703,-2.5703,-2.5703,-2.5703,-2.5684,-2.5684,-2.5673,-2.5661,-2.5663,-2.5574,-2.5511,-2.5517,-2.5507,-2.5507,-2.5507,-2.5507,-2.5507,-2.5507,-2.5507,-2.5507,-2.5507,-2.5507,-2.5507,-2.5507,-2.5507,-2.5507,-2.5507,-2.5507,-2.5507,-2.5507,-2.5507,-2.543,-2.5221,-2.4815,-2.4312,-2.3348,-2.2168,-2.143,-2.0711,-2.0537,-3.5602,-3.5504,-3.4686,-3.4471,-3.4627,-3.4139,-3.3241,-3.2306,-3.2401,-3.2323,-3.166,-3.1055,-3.08,-3.08,-3.08,-3.08,-3.0801,-3.0822,-3.0866,-3.089,-3.0914,-3.0916,-3.0917,-3.0918,-3.0898,-3.0703,-3.0059,-2.9512,-2.8965,-2.7656,-2.6953,-2.6465,-2.6054,-2.5761,-2.5703,-2.5703,-2.5703,-2.5703,-2.5703,-2.5703,-2.5703,-2.5703,-2.5703,-2.5703,-2.5703,-2.5703,-2.5703,-2.5703,-2.5703,-2.5703,-2.5703,-2.5703,-2.5703,-2.5703,-2.5703,-2.5703,-2.5703,-2.5703,-2.5703,-2.5703,-2.5703,-2.5703,-2.5703,-2.5703,-2.5703,-2.5703,-2.5703,-2.5703,-2.5703,-2.5703,-2.5703,-2.5703,-2.5703,-2.5703,-2.5703,-2.5703,-2.5703,-2.5703,-2.5703,-2.5684,-2.5703,-2.5703,-2.5697,-2.5665,-2.5603,-2.5549,-2.5522,-2.551,-2.5507,-2.5507,-2.5507,-2.5507,-2.5507,-2.5507,-2.5507,-2.5507,-2.5507,-2.5507,-2.5507,-2.5507,-2.5507,-2.5507,-2.5507,-2.5507,-2.5507,-2.5507,-2.5449,-2.5337,-2.5066,-2.4757,-2.3596,-2.2342,-2.1179,-2.0498,-2.0479,-3.4725,-3.4608,-3.3788,-3.3886,-3.4315,-3.2871,-3.215,-3.1875,-3.1348,-3.1034,-3.0976,-3.08,-3.08,-3.08,-3.08,-3.0801,-3.0823,-3.0865,-3.0909,-3.0913,-3.0915,-3.0917,-3.0918,-3.0918,-3.0898,-3.0684,-2.9902,-2.9004,-2.8418,-2.7285,-2.6523,-2.6074,-2.5781,-2.5703,-2.5703,-2.5703,-2.5703,-2.5703,-2.5703,-2.5703,-2.5703,-2.5703,-2.5703,-2.5703,-2.5703,-2.5703,-2.5703,-2.5703,-2.5703,-2.5703,-2.5703,-2.5703,-2.5703,-2.5703,-2.5703,-2.5703,-2.5703,-2.5703,-2.5703,-2.5703,-2.5703,-2.5703,-2.5703,-2.5703,-2.5703,-2.5703,-2.5703,-2.5703,-2.5703,-2.5703,-2.5703,-2.5703,-2.5703,-2.5703,-2.5703,-2.5703,-2.5703,-2.5703,-2.5703,-2.5703,-2.5703,-2.5703,-2.5703,-2.5677,-2.5624,-2.558,-2.554,-2.5515,-2.5506,-2.5511,-2.5511,-2.5507,-2.5507,-2.5507,-2.5507,-2.5507,-2.5507,-2.5507,-2.5507,-2.5507,-2.5507,-2.5507,-2.5507,-2.5507,-2.5507,-2.5507,-2.5507,-2.5488,-2.5143,-2.4699,-2.3674,-2.2474,-2.1233,-2.044,-2.0479,-3.3846,-3.3768,-3.289,-3.2714,-3.289,-3.2384,-3.1797,-3.125,-3.0937,-3.08,-3.08,-3.08,-3.08,-3.08,-3.0801,-3.0822,-3.0885,-3.0886,-3.0911,-3.0915,-3.0916,-3.0917,-3.0918,-3.0918,-3.0918,-3.0488,-2.9609,-2.8711,-2.832,-2.6973,-2.6191,-2.5742,-2.5703,-2.5703,-2.5703,-2.5703,-2.5703,-2.5703,-2.5703,-2.5703,-2.5703,-2.5703,-2.5703,-2.5703,-2.5703,-2.5703,-2.5703,-2.5703,-2.5703,-2.5703,-2.5703,-2.5703,-2.5703,-2.5703,-2.5703,-2.5703,-2.5703,-2.5703,-2.5703,-2.5703,-2.5703,-2.5703,-2.5703,-2.5703,-2.5703,-2.5703,-2.5703,-2.5703,-2.5703,-2.5703,-2.5703,-2.5703,-2.5703,-2.5703,-2.5703,-2.5703,-2.5703,-2.5703,-2.5703,-2.5703,-2.5703,-2.5703,-2.5703,-2.5703,-2.5648,-2.5619,-2.5589,-2.5526,-2.5522,-2.5522,-2.5511,-2.5511,-2.5507,-2.5507,-2.5507,-2.5507,-2.5507,-2.5507,-2.5507,-2.5507,-2.5507,-2.5507,-2.5507,-2.5507,-2.5507,-2.5507,-2.5507,-2.543,-2.5082,-2.4505,-2.3712,-2.2865,-2.1781,-2.1024,-2.0714,-3.2949,-3.2851,-3.2031,-3.166,-3.166,-3.1641,-3.1289,-3.0839,-3.08,-3.08,-3.08,-3.08,-3.08,-3.0801,-3.0823,-3.0845,-3.0908,-3.0911,-3.0913,-3.0916,-3.0917,-3.0918,-3.0918,-3.0918,-3.0918,-3.043,-2.9316,-2.8281,-2.8203,-2.6543,-2.582,-2.5723,-2.5703,-2.5703,-2.5703,-2.5703,-2.5703,-2.5703,-2.5703,-2.5703,-2.5703,-2.5703,-2.5703,-2.5703,-2.5703,-2.5703,-2.5703,-2.5703,-2.5703,-2.5703,-2.5703,-2.5703,-2.5703,-2.5703,-2.5703,-2.5703,-2.5703,-2.5703,-2.5703,-2.5703,-2.5703,-2.5703,-2.5703,-2.5703,-2.5703,-2.5703,-2.5703,-2.5703,-2.5703,-2.5703,-2.5703,-2.5703,-2.5703,-2.5703,-2.5703,-2.5703,-2.5703,-2.5703,-2.5703,-2.5703,-2.5703,-2.5703,-2.5703,-2.5703,-2.5681,-2.5649,-2.5626,-2.5576,-2.5537,-2.5531,-2.552,-2.5513,-2.5526,-2.5506,-2.5515,-2.5507,-2.5507,-2.5507,-2.5507,-2.5507,-2.5507,-2.5507,-2.5507,-2.5511,-2.5511,-2.5515,-2.5511,-2.5376,-2.5194,-2.4787,-2.4138,-2.3252,-2.2288,-2.1788,-2.1385,-3.2071,-3.1934,-3.1153,-3.0839,-3.082,-3.0898,-3.0839,-3.08,-3.08,-3.08,-3.08,-3.08,-3.08,-3.0822,-3.0865,-3.0888,-3.0889,-3.0914,-3.0916,-3.0917,-3.0918,-3.0918,-3.0918,-3.0918,-3.0918,-3.0332,-2.9336,-2.8262,-2.8086,-2.6543,-2.5742,-2.5703,-2.5703,-2.5703,-2.5703,-2.5703,-2.5703,-2.5703,-2.5703,-2.5703,-2.5703,-2.5703,-2.5703,-2.5703,-2.5703,-2.5703,-2.5703,-2.5703,-2.5703,-2.5703,-2.5703,-2.5703,-2.5703,-2.5703,-2.5703,-2.5703,-2.5703,-2.5703,-2.5703,-2.5703,-2.5703,-2.5703,-2.5703,-2.5703,-2.5703,-2.5703,-2.5703,-2.5703,-2.5703,-2.5703,-2.5703,-2.5703,-2.5703,-2.5703,-2.5703,-2.5703,-2.5703,-2.5703,-2.5703,-2.5703,-2.5703,-2.5703,-2.5703,-2.5703,-2.5703,-2.5682,-2.5672,-2.5643,-2.56,-2.5568,-2.5573,-2.5546,-2.5534,-2.5515,-2.5518,-2.5517,-2.5506,-2.5513,-2.5515,-2.5507,-2.5507,-2.5507,-2.5507,-2.5511,-2.5519,-2.5515,-2.5534,-2.5531,-2.5475,-2.5006,-2.4607,-2.4028,-2.3191,-2.273,-2.2423,-3.1172,-3.1133,-3.0898,-3.08,-3.08,-3.08,-3.08,-3.08,-3.08,-3.08,-3.08,-3.08,-3.08,-3.0801,-3.0822,-3.0867,-3.0892,-3.0914,-3.0917,-3.0918,-3.0918,-3.0918,-3.0918,-3.0918,-3.0918,-3.0312,-2.9355,-2.8262,-2.793,-2.6562,-2.5723,-2.5703,-2.5703,-2.5703,-2.5703,-2.5703,-2.5703,-2.5703,-2.5703,-2.5703,-2.5703,-2.5703,-2.5703,-2.5703,-2.5703,-2.5703,-2.5703,-2.5703,-2.5703,-2.5703,-2.5703,-2.5703,-2.5703,-2.5703,-2.5703,-2.5703,-2.5703,-2.5703,-2.5703,-2.5703,-2.5703,-2.5703,-2.5703,-2.5703,-2.5703,-2.5703,-2.5703,-2.5703,-2.5703,-2.5703,-2.5703,-2.5703,-2.5703,-2.5703,-2.5703,-2.5703,-2.5703,-2.5703,-2.5703,-2.5703,-2.5703,-2.5703,-2.5703,-2.5703,-2.5703,-2.5703,-2.5684,-2.5684,-2.5654,-2.5636,-2.5611,-2.5589,-2.5574,-2.5561,-2.5543,-2.5526,-2.5528,-2.5512,-2.5506,-2.5511,-2.5507,-2.5507,-2.5507,-2.5511,-2.5527,-2.5537,-2.5561,-2.5549,-2.554,-2.5571,-2.5216,-2.4688,-2.418,-2.3728,-2.3487,-3.08,-3.08,-3.08,-3.08,-3.08,-3.08,-3.08,-3.08,-3.08,-3.08,-3.08,-3.08,-3.08,-3.0803,-3.0826,-3.0871,-3.0914,-3.0916,-3.0918,-3.0918,-3.0918,-3.0918,-3.0918,-3.0918,-3.0918,-3.0293,-2.9375,-2.8281,-2.7812,-2.6699,-2.5703,-2.5703,-2.5703,-2.5703,-2.5703,-2.5703,-2.5703,-2.5703,-2.5703,-2.5703,-2.5703,-2.5703,-2.5703,-2.5703,-2.5703,-2.5703,-2.5703,-2.5703,-2.5703,-2.5703,-2.5703,-2.5703,-2.5703,-2.5703,-2.5703,-2.5703,-2.5703,-2.5703,-2.5703,-2.5703,-2.5703,-2.5703,-2.5703,-2.5703,-2.5703,-2.5703,-2.5703,-2.5703,-2.5703,-2.5703,-2.5703,-2.5703,-2.5703,-2.5703,-2.5703,-2.5703,-2.5703,-2.5703,-2.5703,-2.5703,-2.5703,-2.5703,-2.5703,-2.5703,-2.5703,-2.5703,-2.5703,-2.5684,-2.5684,-2.5678,-2.5665,-2.5648,-2.5639,-2.5611,-2.5595,-2.5549,-2.5535,-2.5518,-2.5518,-2.5511,-2.5511,-2.5526,-2.5522,-2.5544,-2.5546,-2.5569,-2.5601,-2.5598,-2.5587,-2.5605,-2.5614,-2.5251,-2.4923,-2.4739,-2.462,-3.0801,-3.0801,-3.0801,-3.0804,-3.0822,-3.0804,-3.0804,-3.0801,-3.0804,-3.0801,-3.0803,-3.0821,-3.0803,-3.0825,-3.0871,-3.0894,-3.0915,-3.0917,-3.0918,-3.0918,-3.0918,-3.0918,-3.0918,-3.0898,-3.0762,-3.0215,-2.9277,-2.8047,-2.7559,-2.6562,-2.5703,-2.5703,-2.5703,-2.5703,-2.5703,-2.5703,-2.5703,-2.5703,-2.5703,-2.5703,-2.5703,-2.5703,-2.5703,-2.5703,-2.5703,-2.5703,-2.5703,-2.5703,-2.5703,-2.5703,-2.5703,-2.5703,-2.5703,-2.5703,-2.5703,-2.5703,-2.5703,-2.5703,-2.5703,-2.5703,-2.5703,-2.5703,-2.5703,-2.5703,-2.5703,-2.5703,-2.5703,-2.5703,-2.5703,-2.5703,-2.5703,-2.5703,-2.5703,-2.5703,-2.5703,-2.5703,-2.5703,-2.5703,-2.5703,-2.5703,-2.5703,-2.5703,-2.5703,-2.5703,-2.5703,-2.5703,-2.5703,-2.5703,-2.5703,-2.5703,-2.5703,-2.5703,-2.5684,-2.5644,-2.5602,-2.5578,-2.5549,-2.5541,-2.5527,-2.5524,-2.5554,-2.5551,-2.5538,-2.5571,-2.5607,-2.5609,-2.5623,-2.5627,-2.5633,-2.5632,-2.5636,-2.5654,-2.5533,-2.5354,-2.5325,-3.0823,-3.0886,-3.0871,-3.0872,-3.0892,-3.0872,-3.0872,-3.0872,-3.0872,-3.087,-3.0887,-3.0887,-3.0888,-3.0871,-3.0893,-3.0915,-3.0916,-3.0917,-3.0918,-3.0918,-3.0918,-3.0918,-3.0918,-3.0898,-3.0547,-2.9746,-2.8769,-2.7598,-2.666,-2.5977,-2.5703,-2.5703,-2.5703,-2.5703,-2.5703,-2.5703,-2.5703,-2.5703,-2.5703,-2.5703,-2.5703,-2.5703,-2.5703,-2.5703,-2.5703,-2.5703,-2.5703,-2.5703,-2.5703,-2.5703,-2.5703,-2.5703,-2.5703,-2.5703,-2.5703,-2.5703,-2.5703,-2.5703,-2.5703,-2.5703,-2.5703,-2.5703,-2.5703,-2.5703,-2.5703,-2.5703,-2.5703,-2.5703,-2.5703,-2.5703,-2.5703,-2.5703,-2.5703,-2.5703,-2.5703,-2.5703,-2.5703,-2.5703,-2.5703,-2.5703,-2.5703,-2.5703,-2.5703,-2.5703,-2.5703,-2.5703,-2.5703,-2.5703,-2.5703,-2.5703,-2.5703,-2.5703,-2.5703,-2.5664,-2.5625,-2.5606,-2.5593,-2.558,-2.5586,-2.5583,-2.5581,-2.5583,-2.561,-2.565,-2.5674,-2.567,-2.5651,-2.5679,-2.568,-2.5657,-2.5657,-2.5677,-2.568,-2.5544,-2.5604,-3.0869,-3.0911,-3.0913,-3.0914,-3.0914,-3.0914,-3.0914,-3.0914,-3.0914,-3.0914,-3.0912,-3.0911,-3.0912,-3.0914,-3.0915,-3.0916,-3.0917,-3.0917,-3.0918,-3.0918,-3.0918,-3.0918,-3.0918,-3.0898,-3.0332,-2.9551,-2.8242,-2.7012,-2.5879,-2.5703,-2.5703,-2.5703,-2.5703,-2.5703,-2.5703,-2.5703,-2.5703,-2.5703,-2.5703,-2.5703,-2.5703,-2.5703,-2.5703,-2.5703,-2.5703,-2.5703,-2.5703,-2.5703,-2.5703,-2.5703,-2.5703,-2.5703,-2.5703,-2.5703,-2.5703,-2.5703,-2.5703,-2.5703,-2.5703,-2.5703,-2.5703,-2.5703,-2.5703,-2.5703,-2.5703,-2.5703,-2.5703,-2.5703,-2.5703,-2.5703,-2.5703,-2.5703,-2.5703,-2.5703,-2.5703,-2.5703,-2.5703,-2.5703,-2.5703,-2.5703,-2.5703,-2.5703,-2.5703,-2.5703,-2.5703,-2.5703,-2.5703,-2.5703,-2.5703,-2.5703,-2.5703,-2.5703,-2.5703,-2.5703,-2.5684,-2.5661,-2.5651,-2.5645,-2.5644,-2.5614,-2.5586,-2.5639,-2.5676,-2.5684,-2.5703,-2.5702,-2.5703,-2.5703,-2.5703,-2.5683,-2.5684,-2.5703,-2.5702,-2.5701,-2.5701,-3.0894,-3.0914,-3.0915,-3.0915,-3.0915,-3.0915,-3.0915,-3.0915,-3.0915,-3.0916,-3.0916,-3.0915,-3.0915,-3.0915,-3.0916,-3.0916,-3.0917,-3.0918,-3.0918,-3.0918,-3.0918,-3.0918,-3.0918,-3.0859,-3.0176,-2.9043,-2.7617,-2.668,-2.5723,-2.5703,-2.5703,-2.5703,-2.5703,-2.5703,-2.5703,-2.5703,-2.5703,-2.5703,-2.5703,-2.5703,-2.5703,-2.5703,-2.5703,-2.5703,-2.5703,-2.5703,-2.5703,-2.5703,-2.5703,-2.5703,-2.5703,-2.5703,-2.5703,-2.5703,-2.5703,-2.5703,-2.5703,-2.5703,-2.5703,-2.5703,-2.5703,-2.5703,-2.5703,-2.5703,-2.5703,-2.5703,-2.5703,-2.5703,-2.5703,-2.5703,-2.5703,-2.5703,-2.5703,-2.5703,-2.5703,-2.5703,-2.5703,-2.5703,-2.5703,-2.5703,-2.5703,-2.5703,-2.5703,-2.5703,-2.5703,-2.5703,-2.5703,-2.5703,-2.5703,-2.5703,-2.5703,-2.5703,-2.5703,-2.5703,-2.5703,-2.5684,-2.5684,-2.5669,-2.5646,-2.562,-2.5619,-2.5648,-2.5684,-2.5684,-2.5703,-2.5703,-2.5703,-2.5703,-2.5703,-2.5702,-2.5702,-2.5701,-2.5699,-2.5698,-2.5695,-3.0915,-3.0916,-3.0917,-3.0918,-3.0918,-3.0918,-3.0918,-3.0918,-3.0918,-3.0918,-3.0918,-3.0918,-3.0918,-3.0918,-3.0918,-3.0918,-3.0918,-3.0918,-3.0918,-3.0918,-3.0918,-3.0918,-3.0781,-3.0488,-2.9824,-2.8535,-2.709,-2.6035,-2.5703,-2.5703,-2.5703,-2.5703,-2.5703,-2.5703,-2.5703,-2.5703,-2.5703,-2.5703,-2.5703,-2.5703,-2.5703,-2.5703,-2.5703,-2.5703,-2.5703,-2.5703,-2.5703,-2.5703,-2.5703,-2.5703,-2.5703,-2.5703,-2.5703,-2.5703,-2.5703,-2.5703,-2.5703,-2.5703,-2.5703,-2.5703,-2.5703,-2.5703,-2.5703,-2.5703,-2.5703,-2.5703,-2.5703,-2.5703,-2.5703,-2.5703,-2.5703,-2.5703,-2.5703,-2.5703,-2.5703,-2.5703,-2.5703,-2.5703,-2.5703,-2.5703,-2.5703,-2.5703,-2.5703,-2.5703,-2.5703,-2.5703,-2.5703,-2.5703,-2.5703,-2.5703,-2.5703,-2.5703,-2.5703,-2.5703,-2.5703,-2.5703,-2.5684,-2.5684,-2.5664,-2.5664,-2.5664,-2.5684,-2.5703,-2.5703,-2.5703,-2.5703,-2.5703,-2.5702,-2.5701,-2.57,-2.57,-2.57,-2.5696,-2.5694,-2.5692]},{"header":{"parameterUnit":"m.s-1","parameterCategory":1,"la1":31.0,"la2":29.5877,"lo1":-88.7671,"lo2":-86.6584,"dy":0.0162,"dx":0.0185,"nx":115,"ny":88,"refTime":"2024-07-01T00:00:00:Z","depth":0,"parameterNumber":3,"parameterNumberName":"V-component_of_WINDS"},"data":[0.0,0.0,0.0,0.0,0.0,0.0,0.0,0.0,0.0,0.0,0.0,0.0,0.0,0.0,0.0,0.0,0.0,0.0,0.0,0.0,0.0,0.0,0.0,0.0,0.0,0.0,0.0,0.0,0.0,0.0,0.0,0.0,0.0,0.0,0.0,0.0,0.0,0.0,0.0,0.0,0.0,0.0,0.0,0.0,0.0,0.0,0.0,0.0,0.0,0.0,0.0,0.0,0.0,0.0,0.0,0.0,0.0,0.0,0.0,0.0,0.0,0.0,0.0,0.0,0.0,0.0,0.0,0.0,0.0,0.0,0.0,0.0,0.0,0.0,0.0,0.0,0.0,0.0,0.0,0.0,0.0,0.0,0.0,0.0,0.0,0.0,0.0,0.0,0.0,0.0,0.0,0.0,0.0,0.0,0.0,0.0,0.0,0.0,0.0,0.0,0.0,0.0,0.0,0.0,0.0,0.0,0.0,0.0,0.0,0.0,0.0,0.0,0.0,0.0,0.0,0.0,0.0,0.0,0.0,0.0,0.0,0.0,0.0,0.0,0.0,0.0,0.0,0.0,0.0,0.0,0.0,0.0,0.0,0.0,0.0,0.0,0.0,0.0,0.0,0.0,0.0,0.0,0.0,0.0,0.0,0.0,0.0,0.0,0.0,0.0,0.0,0.0,0.0,0.0,0.0,0.0,0.0,0.0,0.0,0.0,0.0,0.0,0.0,0.0,0.0,0.0,0.0,0.0,0.0,0.0,0.0,0.0,0.0,0.0,0.0,0.0,0.0,0.0,0.0,0.0,0.0,0.0,0.0,0.0,0.0,0.0,0.0,0.0,0.0,0.0,0.0,0.0,0.0,0.0,0.0,0.0,0.0,0.0,0.0,0.0,0.0,0.0,0.0,0.0,0.0,0.0,0.0,0.0,0.0,0.0,0.0,0.0,0.0,0.0,0.0,0.0,0.0,0.0,0.0,0.0,0.0,0.0,0.0,0.0,0.0,0.0,0.0,0.0,0.0,0.0,0.0,0.0,0.0,0.0,0.0,0.0,0.0,0.0,0.0,0.0,0.0,0.0,0.0,0.0,0.0,0.0,0.0,0.0,0.0,0.0,0.0,0.0,0.0,0.0,0.0,0.0,0.0,0.0,0.0,0.0,0.0,0.0,0.0,0.0,0.0,0.0,0.0,0.0,0.0,0.0,0.0,0.0,0.0,0.0,0.0,0.0,0.0,0.0,0.0,0.0,0.0,0.0,0.0,0.0,0.0,0.0,0.0,0.0,0.0,0.0,0.0,0.0,0.0,0.0,0.0,0.0,0.0,0.0,0.0,0.0,0.0,0.0,0.0,0.0,0.0,0.0,0.0,0.0,0.0,0.0,0.0,0.0,0.0,0.0,0.0,0.0,0.0,0.0,0.0,0.0,0.0,0.0,0.0,0.0,0.0,0.0,0.0,0.0,0.0,0.0,0.0,0.0,0.0,0.0,0.0,0.0,0.0,0.0,0.0,0.0,0.0,0.0,0.0,0.0,0.0,0.0,0.0,0.0,0.0,0.0,0.0,0.0,0.0,0.0,0.0,0.0,0.0,0.0,0.0,0.0,0.0,0.0,0.0,0.0,0.0,0.0,0.0,0.0,0.0,0.0,0.0,0.0,0.0,0.0,0.0,0.0,0.0,0.0,0.0,0.0,0.0,0.0,0.0,0.0,0.0,0.0,0.0,0.0,0.0,0.0,0.0,0.0,0.0,0.0,0.0,0.0,0.0,0.0,0.0,0.0,0.0,0.0,0.0,0.0,0.0,0.0,0.0,0.0,0.0,0.0,0.0,0.0,0.0,0.0,0.0,0.0,0.0,0.0,0.0,0.0,0.0,0.0,0.0,0.0,0.0,0.0,0.0,0.0,0.0,0.0,0.0,0.0,0.0,0.0,0.0,0.0,0.0,0.0,0.0,0.0,0.0,0.0,0.0,0.0,0.0,0.0,0.0,0.0,0.0,0.0,0.0,0.0,0.0,0.0,0.0,0.0,0.0,0.0,0.0,0.0,0.0,0.0,0.0,0.0,0.0,0.0,0.0,0.0,0.0,0.0,0.0,0.0,0.0,0.0,0.0,0.0,0.0,0.0,0.0,0.0,0.0,0.0,0.0,0.0,0.0,0.0,0.0,0.0,0.0,0.0,0.0,0.0,0.0,0.0,0.0,0.0,0.0,0.0,0.0,0.0,0.0,0.0,0.0,0.0,0.0,0.0,0.0,0.0,0.0,0.0,0.0,0.0,0.0,0.0,0.0,0.0,0.0,0.0,0.0,0.0,0.0,0.0,0.0,0.0,0.0,0.0,0.0,0.0,0.0,0.0,0.0,0.0,0.0,0.0,0.0,0.0,0.0,0.0,0.0,0.0,0.0,0.0,0.0,0.0,0.0,0.0,0.0,0.0,0.0,0.0,0.0,0.0,0.0,0.0,0.0,0.0,0.0,0.0,0.0,0.0,0.0,0.0,0.0,0.0,0.0,0.0,0.0,0.0,0.0,0.0,0.0,0.0,0.0,0.0,0.0,0.0,0.0,0.0,0.0,0.0,0.0,0.0,0.0,0.0,0.0,0.0,0.0,0.0,0.0,0.0,0.0,0.0,0.0,0.0,0.0,0.0,0.0,0.0,0.0,0.0,0.0,0.0,0.0,0.0,0.0,0.0,0.0,0.0,0.0,0.0,0.0,0.0,0.0,0.0,0.0,0.0,0.0,0.0,0.0,0.0,0.0,0.0,0.0,0.0,0.0,0.0,0.0,0.0,0.0,0.0,0.0,0.0,0.0,0.0,0.0,0.0,0.0,0.0,0.0,0.0,0.0,0.0,0.0,0.0,0.0,0.0,0.0,0.0,0.0,0.0,0.0,0.0,0.0,0.0,0.0,0.0,0.0,0.0,0.0,0.0,0.0,0.0,0.0,0.0,0.0,0.0,0.0,0.0,0.0,0.0,0.0,0.0,0.0,0.0,0.0,0.0,0.0,0.0,0.0,0.0,0.0,0.0,0.0,0.0,0.0,0.0,0.0,0.0,0.0,0.0,0.0,0.0,0.0,0.0,0.0,0.0,0.0,0.0,0.0,0.0,0.0,0.0,0.0,0.0,0.0,0.0,0.0,0.0,0.0,0.0,0.0,0.0,0.0,0.0,0.0,0.0,0.0,0.0,0.0,0.0,0.0,0.0,0.0,0.0,0.0,0.0,0.0,0.0,0.0,0.0,0.0,0.0,0.0,0.0,0.0,0.0,0.0,0.0,0.0,0.0,0.0,0.0,0.0,0.0,0.0,0.0,0.0,0.0,0.0,0.0,0.0,0.0,0.0,0.0,0.0,0.0,0.0,0.0,0.0,0.0,0.0,0.0,0.0,0.0,0.0,0.0,0.0,0.0,0.0,0.0,0.0,0.0,0.0,0.0,0.0,0.0,0.0,0.0,0.0,0.0,0.0,0.0,0.0,0.0,0.0,0.0,0.0,0.0,0.0,0.0,0.0,0.0,0.0,0.0,0.0,0.0,0.0,0.0,0.0,0.0,0.0,0.0,0.0,0.0,0.0,0.0,0.0,0.0,0.0,0.0,0.0,0.0,0.0,0.0,0.0,0.0,0.0,0.0,0.0,0.0,0.0,0.0,0.0,0.0,0.0,0.0,0.0,0.0,0.0,0.0,0.0,0.0,0.0,0.0,0.0,0.0,0.0,0.0,0.0,0.0,0.0,0.0,0.0,0.0,0.0,0.0,0.0,0.0,0.0,0.0,0.0,0.0,0.0,0.0,0.0,0.0,0.0,0.0,0.0,0.0,0.0,0.0,0.0,0.0,0.0,0.0,0.0,0.0,0.0,0.0,0.0,0.0,0.0,0.0,0.0,0.0,0.0,0.0,0.0,0.0,0.0,0.0,0.0,0.0,0.0,0.0,0.0,0.0,0.0,0.0,0.0,0.0,0.0,0.0,0.0,0.0,0.0,0.0,0.0,0.0,0.0,0.0,0.0,0.0,0.0,0.0,0.0,0.0,0.0,0.0,0.0,0.0,0.0,0.0,0.0,0.0,0.0,0.0,0.0,0.0,0.0,0.0,0.0,0.0,0.0,0.0,0.0,0.0,0.0,0.0,0.0,0.0,0.0,0.0,0.0,0.0,0.0,0.0,0.0,0.0,0.0,0.0,0.0,0.0,0.0,0.0,0.0,0.0,0.0,0.0,0.0,0.0,0.0,0.0,0.0,0.0,0.0,0.0,0.0,0.0,0.0,0.0,0.0,0.0,0.0,0.0,0.0,0.0,0.0,0.0,0.0,0.0,0.0,0.0,0.0,0.0,0.0,0.0,0.0,0.0,0.0,0.0,0.0,0.0,0.0,0.0,0.0,0.0,0.0,0.0,0.0,0.0,0.0,0.0,0.0,0.0,0.0,0.0,0.0,0.0,0.0,0.0,0.0,0.0,0.0,0.0,0.0,0.0,0.0,0.0,0.0,0.0,0.0,0.0,0.0,0.0,0.0,0.0,0.0,0.0,0.0,0.0,0.0,0.0,0.0,0.0,0.0,0.0,0.0,0.0,0.0,0.0,0.0,0.0,0.0,0.0,0.0,0.0,0.0,0.0,0.0,0.0,0.0,0.0,0.0,0.0,0.0,0.0,0.0,0.0,0.0,0.0,0.0,0.0,0.0,0.0,0.0,0.0,0.0,0.0,0.0,0.0,0.0,0.0,0.0,0.0,0.0,0.0,0.0,0.0,0.0,0.0,0.0,0.0,0.0,0.0,0.0,0.0,0.0,0.0,0.0,0.0,0.0,0.0,0.0,0.0,0.0,0.0,0.0,0.0,0.0,0.0,0.0,0.0,0.0,0.0,0.0,0.0,0.0,0.0,0.0,0.0,0.0,0.0,0.0,0.0,0.0,0.0,0.0,0.0,0.0,0.0,0.0,0.0,0.0,0.0,0.0,0.0,0.0,0.0,0.0,0.0,0.0,0.0,0.0,0.0,0.0,0.0,0.0,0.0,0.0,0.0,0.0,0.0,0.0,0.0,0.0,0.0,0.0,0.0,0.0,0.0,0.0,0.0,0.0,0.0,0.0,0.0,0.0,0.0,0.0,0.0,0.0,0.0,0.0,0.0,0.0,0.0,0.0,0.0,0.0,0.0,0.0,0.0,0.0,0.0,0.0,0.0,0.0,0.0,0.0,0.0,0.0,0.0,0.0,0.0,0.0,0.0,0.0,0.0,0.0,0.0,0.0,0.0,0.0,0.0,0.0,0.0,0.0,0.0,0.0,0.0,0.0,0.0,0.0,0.0,0.0,0.0,0.0,0.0,0.0,0.0,0.0,0.0,0.0,0.0,0.0,0.0,0.0,0.0,0.0,0.0,0.0,0.0,0.0,0.0,0.0,0.0,0.0,0.0,0.0,0.0,0.0,0.0,0.0,0.0,0.0,0.0,0.0,0.0,0.0,0.0,0.0,0.0,0.0,0.0,0.0,0.0,0.0,0.0,0.0,0.0,0.0,0.0,0.0,0.0,0.0,0.0,0.0,0.0,0.0,0.0,0.0,0.0,0.0,0.0,0.0,0.0,0.0,0.0,0.0,0.0,0.0,0.0,0.0,0.0,0.0,0.0,0.0,0.0,0.0,0.0,0.0,0.0,0.0,0.0,0.0,0.0,0.0,0.0,0.0,0.0,0.0,0.0,0.0,0.0,0.0,0.0,0.0,0.0,0.0,0.0,0.0,0.0,0.0,0.0,0.0,0.0,0.0,0.0,0.0,0.0,0.0,0.0,0.0,0.0,0.0,0.0,0.0,0.0,0.0,0.0,0.0,0.0,0.0,0.0,0.0,0.0,0.0,0.0,0.0,0.0,0.0,0.0,0.0,0.0,0.0,0.0,0.0,0.0,0.0,0.0,0.0,0.0,0.0,0.0,0.0,0.0,0.0,0.0,0.0,0.0,0.0,0.0,0.0,0.0,0.0,0.0,0.0,0.0,0.0,0.0,0.0,0.0,0.0,0.0,0.0,0.0,0.0,0.0,0.0,0.0,0.0,0.0,0.0,0.0,0.0,0.0,0.0,0.0,0.0,0.0,0.0,0.0,0.0,0.0,0.0,0.0,0.0,0.0,0.0,0.0,0.0,0.0,0.0,0.0,0.0,0.0,0.0,0.0,0.0,0.0,0.0,0.0,0.0,0.0,0.0,0.0,0.0,0.0,0.0,0.0,0.0,0.0,0.0,0.0,0.0,0.0,0.0,0.0,0.0,0.0,0.0,0.0,0.0,0.0,0.0,0.0,0.0,0.0,0.0,0.0,0.0,0.0,0.0,0.0,0.0,0.0,0.0,0.0,0.0,0.0,0.0,0.0,0.0,0.0,0.0,0.0,0.0,0.0,0.0,0.0,0.0,0.0,0.0,0.0,0.0,0.0,0.0,0.0,0.0,0.0,0.0,0.0,0.0,0.0,0.0,0.0,0.0,0.0,0.0,0.0,0.0,0.0,0.0,0.0,0.0,0.0,0.0,0.0,0.0,0.0,0.0,0.0,0.0,0.0,0.0,0.0,0.0,0.0,0.0,0.0,0.0,0.0,0.0,0.0,0.0,0.0,0.0,0.0,0.0,0.0,0.0,0.0,0.0,0.0,0.0,0.0,0.0,0.0,0.0,0.0,0.0,0.0,0.0,0.0,0.0,0.0,0.0,0.0,0.0,0.0,0.0,0.0,0.0,0.0,0.0,0.0,0.0,0.0,0.0,0.0,0.0,0.0,0.0,0.0,0.0,0.0,0.0,0.0,0.0,0.0,0.0,0.0,0.0,0.0,0.0,0.0,0.0,0.0,0.0,0.0,0.0,0.0,0.0,0.0,0.0,0.0,0.0,0.0,0.0,0.0,0.0,0.0,0.0,0.0,0.0,0.0,0.0,0.0,0.0,0.0,0.0,0.0,0.0,0.0,0.0,0.0,0.0,0.0,0.0,0.0,0.0,0.0,0.0,0.0,0.0,0.0,0.0,0.0,0.0,0.0,0.0,0.0,0.0,0.0,0.0,0.0,0.0,0.0,0.0,0.0,0.0,0.0,0.0,0.0,0.0,0.0,0.0,0.0,0.0,0.0,0.0,0.0,0.0,0.0,0.0,0.0,0.0,0.0,0.0,0.0,0.0,0.0,0.0,0.0,0.0,0.0,0.0,0.0,0.0,0.0,0.0,0.0,0.0,0.0,0.0,0.0,0.0,0.0,0.0,0.0,0.0,0.0,0.0,0.0,0.0,0.0,0.0,0.0,0.0,0.0,0.0,0.0,0.0,0.0,0.0,0.0,0.0,0.0,0.0,0.0,0.0,0.0,0.0,0.0,0.0,0.0,0.0,0.0,0.0,0.0,0.0,0.0,0.0,0.0,0.0,0.0,0.0,0.0,0.0,0.0,0.0,0.0,0.0,0.0,0.0,0.0,0.0,0.0,0.0,0.0,0.0,0.0,0.0,0.0,0.0,0.0,0.0,0.0,0.0,0.0,0.0,0.0,0.0,0.0,0.0,0.0,0.0,0.0,0.0,0.0,0.0,0.0,0.0,0.0,0.0,0.0,0.0,0.0,0.0,0.0,0.0,0.0,0.0,0.0,0.0,0.0,0.0,0.0,0.0,0.0,0.0,0.0,0.0,0.0,0.0,0.0,0.0,0.0,0.0,0.0,0.0,0.0,0.0,0.0,0.0,0.0,0.0,0.0,0.0,0.0,0.0,0.0,0.0,0.0,0.0,0.0,0.0,0.0,0.0,0.0,0.0,0.0,0.0,0.0,0.0,0.0,0.0,0.0,0.0,0.0,0.0,0.0,0.0,0.0,0.0,0.0,0.0,0.0,0.0,0.0,0.0,0.0,0.0,0.0,0.0,0.0,0.0,0.0,0.0,0.0,0.0,0.0,0.0,0.0,0.0,0.0,0.0,0.0,0.0,0.0,0.0,0.0,0.0,0.0,0.0,0.0,0.0,0.0,0.0,0.0,0.0,0.0,0.0,0.0,0.0,0.0,0.0,0.0,0.0,0.0,0.0,0.0,0.0,0.0,0.0,0.0,0.0,0.0,0.0,0.0,0.0,0.0,0.0,0.0,0.0,0.0,0.0,0.0,0.0,0.0,0.0,0.0,0.0,0.0,0.0,0.0,0.0,0.0,0.0,0.0,0.0,0.0,0.0,0.0,0.0,0.0,0.0,0.0,0.0,0.0,0.0,0.0,0.0,0.0,0.0,0.0,0.0,0.0,0.0,0.0,0.0,0.0,0.0,0.0,0.0,0.0,0.0,0.0,0.0,0.0,0.0,0.0,0.0,0.0,0.0,0.0,0.0,0.0,0.0,0.0,0.0,0.0,0.0,0.0,0.0,0.0,0.0,0.0,0.0,0.0,0.0,0.0,0.0,0.0,0.0,0.0,0.0,0.0,0.0,0.0,0.0,0.0,0.0,0.0,0.0,0.0,0.0,0.0,0.0,0.0,0.0,0.0,0.0,0.0,0.0,0.0,0.0,0.0,0.0,0.0,0.0,0.0,0.0,0.0,0.0,0.0,0.0,0.0,0.0,0.0,0.0,0.0,0.0,0.0,0.0,0.0,0.0,0.0,0.0,0.0,0.0,0.0,0.0,0.0,0.0,0.0,0.0,0.0,0.0,0.0,0.0,0.0,0.0,0.0,0.0,0.0,0.0,0.0,0.0,0.0,0.0,0.0,0.0,0.0,0.0,0.0,0.0,0.0,0.0,0.0,0.0,0.0,0.0,0.0,0.0,0.0,0.0,0.0,0.0,0.0,0.0,0.0,0.0,0.0,0.0,0.0,0.0,0.0,0.0,0.0,0.0,0.0,0.0,0.0,0.0,0.0,0.0,0.0,0.0,0.0,0.0,0.0,0.0,0.0,0.0,0.0,0.0,0.0,0.0,0.0,0.0,0.0,0.0,0.0,0.0,0.0,0.0,0.0,0.0,0.0,0.0,0.0,0.0,0.0,0.0,0.0,0.0,0.0,0.0,0.0,0.0,0.0,0.0,0.0,0.0,0.0,0.0,0.0,0.0,0.0,0.0,0.0,0.0,0.0,0.0,0.0,0.0,0.0,0.0,0.0,0.0,0.0,0.0,0.0,0.0,0.0,0.0,0.0,0.0,0.0,0.0,0.0,0.0,0.0,0.0,0.0,0.0,0.0,0.0,0.0,0.0,0.0,0.0,0.0,0.0,0.0,0.0,0.0,0.0,0.0,0.0,0.0,0.0,0.0,0.0,0.0,0.0,0.0,0.0,0.0,0.0,0.0,0.0,0.0,0.0,0.0,0.0,0.0,0.0,0.0,0.0,0.0,0.0,0.0,0.0,0.0,0.0,0.0,0.0,0.0,0.0,0.0,0.0,0.0,0.0,0.0,0.0,0.0,0.0,0.0,0.0,0.0,0.0,0.0,0.0,0.0,0.0,0.0,0.0,0.0,0.0,0.0,0.0,0.0,0.0,0.0,0.0,0.0,0.0,0.0,0.0,0.0,0.0,0.0,0.0,0.0,0.0,0.0,0.0,0.0,0.0,0.0,0.0,0.0,0.0,0.0,0.0,0.0,0.0,0.0,0.0,0.0,0.0,0.0,0.0,0.0,0.0,0.0,0.0,0.0,0.0,0.0,0.0,0.0,0.0,0.0,0.0,0.0,0.0,0.0,0.0,0.0,0.0,0.0,0.0,0.0,0.0,0.0,0.0,0.0,0.0,0.0,0.0,0.0,0.0,0.0,0.0,0.0,0.0,0.0,0.0,0.0,0.0,0.0,0.0,0.0,0.0,0.0,0.0,0.0,0.0,0.0,0.0,0.0,0.0,0.0,0.0,0.0,0.0,0.0,0.0,0.0,0.0,0.0,0.0,0.0,0.0,0.0,0.0,0.0,0.0,0.0,0.0,0.0,0.0,0.0,0.0,0.0,0.0,0.0,0.0,0.0,0.0,0.0,0.0,0.0,0.0,0.0,0.0,0.0,0.0,0.0,0.0,0.0,0.0,0.0,0.0,0.0,0.0,0.0,0.0,0.0,0.0,0.0,0.0,0.0,0.0,0.0,0.0,0.0,0.0,0.0,0.0,0.0,0.0,0.0,0.0,0.0,0.0,0.0,0.0,0.0,0.0,0.0,0.0,0.0,0.0,0.0,0.0,0.0,0.0,0.0,0.0,0.0,0.0,0.0,0.0,0.0,0.0,0.0,0.0,0.0,0.0,0.0,0.0,0.0,0.0,0.0,0.0,0.0,0.0,0.0,0.0,0.0,0.0,0.0,0.0,0.0,0.0,0.0,0.0,0.0,0.0,0.0,0.0,0.0,0.0,0.0,0.0,0.0,0.0,0.0,0.0,0.0,0.0,0.0,0.0,0.0,0.0,0.0,0.0,0.0,0.0,0.0,0.0,0.0,0.0,0.0,0.0,0.0,0.0,0.0,0.0,0.0,0.0,0.0,0.0,0.0,0.0,0.0,0.0,0.0,0.0,0.0,0.0,0.0,0.0,0.0,0.0,0.0,0.0,0.0,0.0,0.0,0.0,0.0,0.0,0.0,0.0,0.0,0.0,0.0,0.0,0.0,0.0,0.0,0.0,0.0,0.0,0.0,0.0,0.0,0.0,0.0,0.0,0.0,0.0,0.0,0.0,0.0,0.0,0.0,0.0,0.0,0.0,0.0,0.0,0.0,0.0,0.0,0.0,0.0,0.0,0.0,0.0,0.0,0.0,0.0,0.0,0.0,0.0,0.0,0.0,0.0,0.0,0.0,0.0,0.0,0.0,0.0,0.0,0.0,0.0,0.0,0.0,0.0,0.0,0.0,0.0,0.0,0.0,0.0,0.0,0.0,0.0,0.0,0.0,0.0,0.0,0.0,0.0,0.0,0.0,0.0,0.0,0.0,0.0,0.0,0.0,0.0,0.0,0.0,0.0,0.0,0.0,0.0,0.0,0.0,0.0,0.0,0.0,0.0,0.0,0.0,0.0,0.0,0.0,0.0,0.0,0.0,0.0,0.0,0.0,0.0,0.0,0.0,0.0,0.0,0.0,0.0,0.0,0.0,0.0,0.0,0.0,0.0,0.0,0.0,0.0,0.0,0.0,0.0,0.0,0.0,0.0,0.0,0.0,0.0,0.0,0.0,0.0,0.0,0.0,0.0,0.0,0.0,0.0,0.0,0.0,0.0,0.0,0.0,0.0,0.0,0.0,0.0,0.0,0.0,0.0,0.0,0.0,0.0,0.0,0.0,0.0,0.0,0.0,0.0,0.0,0.0,0.0,0.0,0.0,0.0,0.0,0.0,0.0,0.0,0.0,0.0,0.0,0.0,0.0,0.0,0.0,0.0,0.0,0.0,0.0,0.0,0.0,0.0,0.0,0.0,0.0,0.0,0.0,0.0,0.0,0.0,0.0,0.0,0.0,0.0,0.0,0.0,0.0,0.0,0.0,0.0,0.0,0.0,0.0,0.0,0.0,0.0,0.0,0.0,0.0,0.0,0.0,0.0,0.0,0.0,0.0,0.0,0.0,0.0,0.0,0.0,0.0,0.0,0.0,0.0,0.0,0.0,0.0,0.0,0.0,0.0,0.0,0.0,0.0,0.0,0.0,0.0,0.0,0.0,0.0,0.0,0.0,0.0,0.0,0.0,0.0,0.0,0.0,0.0,0.0,0.0,0.0,0.0,0.0,0.0,0.0,0.0,0.0,0.0,0.0,0.0,0.0,0.0,0.0,0.0,0.0,0.0,0.0,0.0,0.0,0.0,0.0,0.0,0.0,0.0,0.0,0.0,0.0,0.0,0.0,0.0,0.0,0.0,0.0,0.0,0.0,0.0,0.0,0.0,0.0,0.0,0.0,0.0,0.0,0.0,0.0,0.0,0.0,0.0,0.0,0.0,0.0,0.0,0.0,0.0,0.0,0.0,0.0,0.0,0.0,0.0,0.0,0.0,0.0,0.0,0.0,0.0,0.0,0.0,0.0,0.0,0.0,0.0,0.0,0.0,0.0,0.0,0.0,0.0,0.0,0.0,0.0,0.0,0.0,0.0,0.0,0.0,0.0,0.0,0.0,0.0,0.0,0.0,0.0,0.0,0.0,0.0,0.0,0.0,0.0,0.0,0.0,0.0,0.0,0.0,0.0,0.0,0.0,0.0,0.0,0.0,0.0,0.0,0.0,0.0,0.0,0.0,0.0,0.0,0.0,0.0,0.0,0.0,0.0,0.0,0.0,0.0,0.0,0.0,0.0,0.0,0.0,0.0,0.0,0.0,0.0,0.0,0.0,0.0,0.0,0.0,0.0,0.0,0.0,0.0,0.0,0.0,0.0,0.0,0.0,0.0,0.0,0.0,0.0,0.0,0.0,0.0,0.0,0.0,0.0,0.0,0.0,0.0,0.0,0.0,0.0,0.0,0.0,0.0,0.0,0.0,0.0,0.0,0.0,0.0,0.0,0.0,0.0,0.0,0.0,0.0,0.0,0.0,0.0,0.0,0.0,0.0,0.0,0.0,0.0,0.0,0.0,0.0,0.0,0.0,0.0,0.0,0.0,0.0,0.0,0.0,0.0,0.0,0.0,0.0,0.0,0.0,0.0,0.0,0.0,0.0,0.0,0.0,0.0,0.0,0.0,0.0,0.0,0.0,0.0,0.0,0.0,0.0,-0.0937,0.0,0.0,0.0,0.0,0.0,0.0,0.0,0.0,0.0,0.0,0.0,0.0,0.0,0.0,0.0,0.0,0.0,0.0,0.0,0.0,0.0,0.0,0.0,0.0,0.0,0.0,0.0,0.0,0.0,0.0,0.0,0.0,0.0,0.0,0.0,0.0,0.0,0.0,0.0,0.0,0.0,0.0,0.0,0.0,0.0,0.0,0.0,0.0,0.0,0.0,0.0,0.0,0.0,0.0,0.0,0.0,0.0,0.0,0.0,0.0,0.0,0.0,0.0,0.0,0.0,0.0,0.0,0.0,0.0,0.0,0.0,0.0,0.0,0.0,0.0,0.0,0.0,0.0,0.0,0.0,0.0,0.0,0.0,0.0,0.0,0.0,0.0,0.0,0.0,0.0,0.0,0.0,0.0,0.0,0.0,0.0,0.0,0.0,0.0,0.0,0.0,0.0,0.0,0.0,0.0,0.0,0.0,0.0,0.0,0.0,0.0,0.0,0.0,0.0,0.0,0.0,0.0,0.0,0.0,0.0,0.0,0.0,0.0,0.0,0.0,0.0,0.0,0.0,0.0,0.0,0.0,0.0,0.0,0.0,0.0,0.0,0.0,0.0,0.0,0.0,0.0,0.0,0.0,0.0,0.0,0.0,0.0,0.0,0.0,0.0,0.0,0.0,0.0,0.0,0.0,0.0,0.0,0.0,0.0,0.0,0.0,0.0,0.0,0.0,0.0,0.0,0.0,0.0,0.0,0.0,0.0,0.0,0.0,0.0,0.0,0.0,0.0,0.0,0.0,0.0,0.0,0.0,0.0,0.0,0.0,0.0,0.0,0.0,0.0,0.0,0.0,0.0,0.0,0.0,0.0,0.0,0.0,0.0,0.0,0.0,0.0,0.0,0.0,0.0,0.0,0.0,0.0,0.0,0.0,0.0,0.0,0.0,0.0,0.0,0.0,0.0,0.0,0.0,0.0,0.0,-0.1327,-0.14,0.0,0.0,0.0,0.0,0.0,0.0,0.0,0.0,-0.1589,0.0,0.0,0.0,0.0,0.0,0.0,0.0,0.0,0.0,0.0,0.0,0.0,0.0,0.0,0.0,0.0,0.0,0.0,0.0,0.0,0.0,0.0,0.0,0.0,0.0,0.0,0.0,0.0,0.0,0.0,0.0,0.0,0.0,0.0,0.0,0.0,0.0,0.0,0.0,0.0,0.0,0.0,0.0,0.0,0.0,0.0,0.0,0.0,0.0,0.0,0.0,0.0,0.0,0.0,0.0,0.0,0.0,0.0,0.0,0.0,0.0,0.0,0.0,0.0,0.0,0.0,0.0,0.0,0.0,0.0,0.0,0.0,0.0,0.0,0.0,0.0,0.0,0.0,0.0,0.0,0.0,0.0,0.0,0.0,0.0,0.0,0.0,0.0,0.0,0.0,0.0,0.0,0.0,0.0,0.0,0.0,0.0,0.0,0.0,0.0,0.0,0.0,0.0,0.0,0.0,-0.155,-0.1541,0.0,0.0,0.0,0.0,0.0,0.0,0.0,0.0,-0.1632,0.0,0.0,0.0,0.0,0.0,0.0,0.0,0.0,0.0,0.0,0.0,0.0,0.0,0.0,0.0,0.0,0.0,0.0,0.0,0.0,0.0,0.0,0.0,0.0,0.0,0.0,0.0,0.0,0.0,0.0,0.0,0.0,0.0,0.0,0.0,0.0,0.0,0.0,0.0,0.0,0.0,0.0,0.0,0.0,0.0,0.0,0.0,0.0,0.0,0.0,0.0,0.0,0.0,0.0,0.0,0.0,0.0,0.0,0.0,0.0,0.0,0.0,0.0,0.0,0.0,0.0,0.0,0.0,0.0,0.0,0.0,0.0,0.0,0.0,0.0,0.0,0.0,0.0,0.0,0.0,0.0,0.0,0.0,0.0,0.0,0.0,0.0,0.0,0.0,0.0,0.0,0.0,0.0,0.0,0.0,0.0,0.0,0.0,0.0,0.0,0.0,0.0,0.0,0.0,-0.1614,-0.1649,-0.1789,0.0,0.0,0.0,0.0,0.0,0.0,-0.1707,-0.1739,0.0,0.0,0.0,0.0,0.0,0.0,0.0,0.0,0.0,0.0,0.0,0.0,0.0,0.0,0.0,0.0,0.0,0.0,0.0,0.0,0.0,0.0,0.0,0.0,0.0,0.0,0.0,0.0,0.0,0.0,0.0,0.0,0.0,0.0,0.0,0.0,0.0,0.0,0.0,0.0,0.0,0.0,0.0,0.0,0.0,0.0,0.0,0.0,0.0,0.0,0.0,0.0,0.0,0.0,0.0,0.0,0.0,0.0,0.0,0.0,0.0,0.0,0.0,0.0,0.0,0.0,0.0,0.0,0.0,0.0,0.0,0.0,0.0,0.0,0.0,0.0,0.0,0.0,0.0,0.0,0.0,0.0,0.0,0.0,0.0,0.0,0.0,0.0,0.0,0.0,0.0,0.0,0.0,0.0,0.0,0.0,0.0,0.0,0.0,0.0,0.0,0.0,0.0,0.0,0.0,-0.1848,-0.1855,-0.1855,0.0,0.0,0.0,0.0,-0.1887,-0.1897,0.0,0.0,0.0,0.0,0.0,0.0,0.0,0.0,0.0,0.0,0.0,0.0,0.0,0.0,0.0,0.0,0.0,0.0,0.0,0.0,0.0,0.0,0.0,0.0,0.0,0.0,0.0,0.0,0.0,0.0,0.0,0.0,0.0,0.0,0.0,0.0,0.0,0.0,0.0,0.0,0.0,0.0,0.0,0.0,0.0,0.0,0.0,0.0,0.0,0.0,0.0,0.0,0.0,0.0,0.0,0.0,0.0,0.0,0.0,0.0,0.0,0.0,0.0,0.0,0.0,0.0,0.0,0.0,0.0,0.0,0.0,0.0,0.0,0.0,0.0,0.0,0.0,0.0,0.0,0.0,0.0,0.0,0.0,0.0,0.0,0.0,0.0,0.0,0.0,0.0,0.0,0.0,0.0,0.0,0.0,0.0,0.0,0.0,0.0,0.0,0.0,0.0,0.0,0.0,0.0,0.0,-0.2253,-0.2081,-0.2073,-0.2058,0.0,0.0,0.0,-0.2063,-0.2245,0.0,0.0,0.0,0.0,0.0,0.0,0.0,0.0,0.0,0.0,0.0,0.0,0.0,0.0,0.0,0.0,0.0,0.0,0.0,0.0,0.0,0.0,0.0,0.0,0.0,0.0,0.0,0.0,0.0,0.0,0.0,0.0,0.0,0.0,0.0,0.0,0.0,0.0,0.0,0.0,0.0,0.0,0.0,0.0,0.0,0.0,0.0,0.0,0.0,0.0,0.0,0.0,0.0,0.0,0.0,0.0,0.0,0.0,0.0,0.0,0.0,0.0,0.0,0.0,0.0,0.0,0.0,0.0,0.0,0.0,0.0,0.0,0.0,0.0,0.0,0.0,0.0,0.0,0.0,0.0,0.0,0.0,0.0,0.0,0.0,0.0,0.0,0.0,0.0,0.0,0.0,0.0,0.0,0.0,0.0,0.0,0.0,0.0,0.0,0.0,0.0,0.0,0.0,0.0,0.0,0.0,0.0,-0.2241,-0.236,0.0,0.0,0.0,-0.2379,-0.2245,0.0,0.0,0.0,0.0,0.0,0.0,0.0,0.0,0.0,0.0,0.0,0.0,0.0,0.0,0.0,0.0,0.0,0.0,0.0,0.0,0.0,0.0,0.0,0.0,0.0,0.0,0.0,0.0,0.0,0.0,0.0,0.0,0.0,0.0,0.0,0.0,0.0,0.0,0.0,0.0,0.0,0.0,0.0,0.0,0.0,0.0,0.0,0.0,0.0,0.0,0.0,0.0,0.0,0.0,0.0,0.0,0.0,0.0,0.0,0.0,0.0,0.0,0.0,0.0,0.0,0.0,0.0,0.0,0.0,0.0,0.0,0.0,0.0,0.0,0.0,0.0,0.0,0.0,0.0,0.0,0.0,0.0,0.0,0.0,0.0,0.0,0.0,0.0,0.0,0.0,0.0,0.0,-0.0381,0.0,0.0,0.0,0.0,0.0,0.0,0.0,0.0,0.0,0.0,0.0,0.0,0.0,0.0,-0.2593,-0.2409,-0.2578,-0.2697,0.0,0.0,-0.2667,-0.2466,-0.2449,-0.2437,0.0,0.0,0.0,0.0,0.0,0.0,0.0,0.0,0.0,0.0,0.0,0.0,0.0,0.0,0.0,0.0,0.0,0.0,0.0,0.0,0.0,0.0,0.0,0.0,0.0,0.0,0.0,0.0,0.0,0.0,0.0,0.0,0.0,0.0,0.0,0.0,0.0,0.0,0.0,0.0,0.0,0.0,0.0,0.0,0.0,0.0,0.0,0.0,0.0,0.0,0.0,0.0,0.0,0.0,0.0,0.0,0.0,0.0,0.0,0.0,0.0,0.0,0.0,0.0,0.0,0.0,0.0,0.0,0.0,0.0,0.0,0.0,0.0,0.0,0.0,0.0,0.0,0.0,0.0,0.0,0.0,0.0,0.0,0.0,0.0,0.0,0.0,0.0,0.0,0.0,0.0,0.0,0.0,0.0,0.0,0.0,0.0,0.0,0.0,0.0,0.0,0.0,0.0,0.0,0.0,-0.2812,-0.2602,-0.2746,-0.2889,0.0,0.0,-0.286,-0.2773,-0.287,-0.2864,-0.2543,0.0,0.0,0.0,0.0,0.0,0.0,0.0,0.0,0.0,0.0,0.0,0.0,0.0,0.0,0.0,0.0,0.0,0.0,0.0,0.0,0.0,0.0,0.0,0.0,0.0,0.0,0.0,0.0,0.0,0.0,0.0,0.0,0.0,0.0,0.0,0.0,0.0,0.0,0.0,0.0,0.0,0.0,0.0,0.0,0.0,0.0,0.0,0.0,0.0,0.0,0.0,0.0,0.0,0.0,0.0,0.0,0.0,0.0,0.0,0.0,0.0,0.0,0.0,0.0,0.0,0.0,0.0,0.0,0.0,0.0,0.0,0.0,0.0,0.0,0.0,0.0,0.0,0.0,0.0,0.0,0.0,0.0,0.0,0.0,0.0,0.0,0.0,0.0,0.0,0.0,0.0,-0.1113,-0.1303,-0.1524,0.0,0.0,0.0,0.0,0.0,0.0,0.0,0.0,0.0,0.0,-0.3112,-0.305,-0.3212,0.0,0.0,-0.334,-0.3303,-0.3173,-0.3187,-0.311,-0.2943,-0.2858,0.0,0.0,0.0,0.0,0.0,0.0,0.0,0.0,0.0,0.0,0.0,0.0,0.0,0.0,0.0,0.0,0.0,0.0,0.0,0.0,0.0,0.0,0.0,0.0,0.0,0.0,0.0,0.0,0.0,0.0,0.0,0.0,0.0,0.0,0.0,0.0,0.0,0.0,0.0,0.0,0.0,0.0,0.0,0.0,0.0,0.0,0.0,0.0,0.0,0.0,0.0,0.0,0.0,0.0,0.0,0.0,0.0,0.0,0.0,0.0,0.0,0.0,0.0,0.0,0.0,0.0,0.0,0.0,0.0,0.0,0.0,0.0,0.0,0.0,0.0,0.0,0.0,0.0,0.0,0.0,0.0,0.0,0.0,0.0,0.0,0.0,0.0,0.0,0.0,0.0,-0.1228,-0.1469,-0.175,0.0,0.0,0.0,0.0,0.0,0.0,0.0,0.0,0.0,0.0,-0.3333,-0.3389,-0.3512,-0.36,-0.36,-0.36,-0.3539,-0.3386,-0.3355,-0.3293,-0.3181,0.0,0.0,0.0,0.0,0.0,0.0,0.0,0.0,0.0,0.0,0.0,0.0,0.0,0.0,0.0,0.0,0.0,0.0,0.0,0.0,0.0,0.0,0.0,0.0,0.0,0.0,0.0,0.0,0.0,0.0,0.0215,0.0,0.0,0.0,0.0,0.0,0.0,0.0,0.0,0.0,0.0,0.0,0.0,0.0,0.0,0.0,0.0,0.0,0.0,0.0,0.0,0.0,0.0,0.0,0.0,0.0,0.0,0.0,0.0,0.0,0.0,0.0,0.0,0.0,0.0,0.0,0.0,0.0,0.0,0.0,0.0,0.0,0.0,0.0,0.0,0.0,0.0,0.0,0.0,0.0,0.0,0.0,0.0,0.0,0.0,0.0,0.0,0.0,0.0,0.0,-0.1018,-0.1299,-0.1622,0.0,0.0,0.0,0.0,0.0,0.0,0.0,0.0,0.0,0.0,-0.3209,-0.3363,-0.3548,-0.36,-0.36,-0.36,-0.36,-0.3531,-0.3343,-0.3358,-0.332,0.0,0.0,0.0,0.0,0.0,0.0,0.0,0.0,0.0,0.0,0.0,0.0,0.0,0.0,0.0,0.0,0.0,0.0,0.0,0.0,0.0,0.0,0.0,0.0,0.0,0.0,0.0,0.0,0.0,0.0,0.0,0.0,0.0,0.0,0.0,0.0,0.0,0.0,0.0,0.0,0.0024,0.0,0.0,0.0,0.0,0.0,0.0,0.0,0.0,0.0,0.0,0.0,0.0,0.0,0.0,0.0,0.0,0.0,0.0,0.0,0.0,0.0,0.0,0.0,0.0,0.0,0.0,0.0,0.0,0.0,0.0,0.0,0.0,0.0,0.0,0.0,0.0,0.0,0.0,0.0,0.0,0.0,0.0,0.0,0.0,0.0,0.0,0.0,0.0,0.0,-0.1025,0.0,0.0,0.0,0.0,0.0,0.0,0.0,0.0,0.0,0.0,0.0,-0.3084,-0.3212,-0.3405,-0.352,-0.3593,-0.36,-0.36,0.0,0.0,0.0,0.0,0.0,0.0,0.0,0.0,0.0,0.0,0.0,0.0,0.0,0.0,-0.2808,-0.2726,-0.2858,-0.3039,-0.3146,0.0,0.0,0.0,0.0,0.0,0.0,0.0,0.0,0.0,0.0,0.0,0.0,0.0,0.0,0.0,0.0,0.0044,0.0,0.0,0.0,0.0,0.0,0.0,0.0,0.0,0.0127,0.0079,0.0,0.0,0.0,0.0,0.0,0.0,0.0,0.0,0.0,0.0,0.0,0.0,0.0,0.0,0.0,0.0,0.0,0.0,0.0,0.0,0.0,0.0,0.0,0.0,0.0,0.0,0.0,0.0,0.0,0.0,0.0,0.0,0.0,0.0,0.0,0.0,0.0,0.0,0.0,0.0,0.0,0.0,0.0,0.0,0.0,0.0,0.0,0.0,0.0,0.0,-0.1071,0.0,0.0,0.0,0.0,0.0,0.0,0.0,0.0,0.0,-0.271,-0.2981,-0.3175,-0.3222,-0.3449,-0.36,-0.36,0.0,0.0,0.0,0.0,0.0,0.0,0.0,-0.3714,-0.3686,-0.3549,-0.3487,-0.346,-0.3347,-0.3263,-0.3189,0.0,0.0,-0.3008,-0.3157,-0.3361,-0.3449,-0.3729,-0.3961,-0.3955,-0.4109,-0.4217,0.0,0.0,0.0,0.0,0.0,0.0,0.0,0.0,0.0,0.0,0.0,0.0,0.0,0.0,0.0,0.0,0.0,0.0,0.0,0.0,0.0055,0.0,0.0,0.0,0.0,0.0,0.0,0.0,0.0,0.0,0.0,0.0,0.0,0.0,0.0,0.0,0.0,0.0,0.0,0.0,0.0,0.0,0.0,0.0,0.0,0.0,0.0,0.0,0.0,0.0,0.0,0.0,0.0,0.0,0.0,0.0,0.0,0.0,0.0,0.0,0.0,0.0,0.0,0.0,0.0,0.0,0.0,0.0,0.0,0.0,0.0,-0.068,0.0,0.0,0.0,0.0,0.0,0.0,0.0,0.0,0.0,0.0,-0.2771,-0.3067,-0.3262,-0.3141,0.0,0.0,0.0,0.0,-0.3799,-0.3799,-0.3924,-0.3991,-0.3991,-0.3991,-0.3961,-0.3812,0.0,0.0,-0.3624,-0.36,-0.3524,-0.3343,-0.3316,-0.331,-0.3344,-0.3532,-0.3734,-0.385,-0.4357,-0.4711,-0.4603,-0.476,-0.4926,0.0427,0.0,0.0,0.0,0.0,0.0,0.0,0.0,0.0,0.0,0.0,0.0,0.0,0.0,0.0,0.0,0.0,0.0,0.0053,0.0053,0.0028,0.0,0.0,0.0,0.0,0.0,0.0,0.0,0.0,0.0,0.0,0.0,0.0,0.0,0.0,0.0,0.0,0.0,0.0,0.0,0.0,0.0,0.0,0.0,0.0,0.0,0.0,0.0,0.0,0.0,0.0,0.0,0.0,0.0,0.0,0.0,0.0,0.0,0.0,0.0,0.0,0.0,0.0,0.0,0.0,0.0,0.0,0.0,0.0,0.0,-0.092,-0.1043,-0.1218,0.0,0.0,0.0,0.0,0.0,0.0,0.0,0.0,0.0,-0.3149,-0.3364,-0.35,0.0,0.0,-0.3894,-0.3869,-0.3903,-0.3955,-0.3951,0.0,0.0,0.0,-0.3994,-0.3968,-0.3839,-0.371,-0.3626,-0.3607,-0.36,-0.3587,-0.3517,-0.3514,-0.3626,-0.3927,-0.3874,-0.3981,-0.4528,-0.4824,-0.5029,-0.5233,-0.5222,-0.5131,0.0,-0.0196,-0.0053,0.0,0.0,0.0,0.0,0.0,0.0,0.0,0.0,0.0,0.0,0.0,0.0,0.0,0.0,0.0,-0.0027,-0.0082,-0.0028,-0.0056,-0.014,-0.0084,-0.0112,-0.014,-0.0112,-0.0083,-0.0082,-0.0082,-0.0054,0.0,0.0,0.0,0.0,0.0,0.0,0.0,0.0,0.0,0.0,0.0,0.0,0.0,0.0,0.0,0.0,0.0,0.0,0.0,0.0,0.0,0.0,0.0,0.0,0.0,0.0,0.0,0.0,0.0,0.0,0.0,0.0,-0.0063,0.0,0.0,0.0,0.0,-0.0539,-0.083,-0.1012,-0.1206,0.0,0.0,0.0,0.0,0.0,0.0,0.0,-0.3303,-0.3568,-0.3697,-0.3507,-0.3691,-0.3802,-0.3703,-0.387,-0.3994,-0.3994,0.0,-0.4085,-0.4085,-0.4158,-0.4218,-0.4195,-0.4195,-0.4124,-0.3914,-0.3737,-0.3604,-0.36,-0.36,-0.36,-0.3622,-0.3733,-0.4038,-0.4491,-0.455,-0.4639,-0.5036,-0.5273,-0.5456,-0.5583,-0.5547,-0.5462,-0.0489,-0.0454,-0.0158,0.0,0.0,0.0,0.0,-0.0031,0.0,0.0,-0.0031,0.0,0.0,0.0,0.0,0.0,0.0,-0.0028,-0.0084,-0.0225,-0.0084,-0.0168,-0.0393,-0.028,-0.028,-0.0393,-0.028,-0.0224,-0.0196,-0.0196,-0.0168,-0.0028,-0.0026,-0.0025,-0.0026,0.0,0.0,0.0,0.0,0.0,0.0,0.0,0.0,0.0,0.0,0.0,0.0,0.0,0.0,0.0,0.0,0.0,0.0,0.0,0.0,0.0,0.0,0.0,0.0,0.0,0.0,0.0,0.0,0.0,0.0,0.0,0.0,0.0,-0.0554,0.0,-0.0901,-0.1289,0.0,0.0,0.0,-0.2682,-0.2995,-0.338,-0.3602,-0.3634,0.0,0.0,0.0,0.0,-0.4136,-0.388,-0.394,-0.4028,-0.4056,-0.4156,-0.4237,-0.4237,-0.4375,-0.4484,-0.4457,-0.4429,-0.4307,-0.4012,-0.3768,-0.361,-0.36,-0.36,-0.36,-0.3689,-0.4016,-0.4469,-0.4966,-0.5357,-0.5625,-0.5429,-0.572,-0.5954,-0.5766,-0.5833,-0.584,-0.035,-0.0344,-0.0273,-0.0263,-0.034,-0.0093,-0.0093,-0.0216,-0.0062,-0.0062,-0.0216,-0.0061,-0.0092,-0.0214,-0.0061,-0.015,-0.0388,-0.0235,-0.0262,-0.0407,-0.0341,-0.0336,-0.0393,-0.0364,-0.0364,-0.0393,-0.0364,-0.0336,-0.0364,-0.0364,-0.0336,-0.0308,-0.0303,-0.0246,-0.0137,-0.0138,-0.0138,-0.0166,-0.0056,0.0,0.0,0.0,0.0,0.0,0.0,0.0,0.0,0.0,0.0,0.0,0.0,0.0,0.0,0.0,0.0,0.0,0.0,0.0,0.0,0.0,0.0,0.0,0.0,-0.0273,-0.0273,0.0,-0.055,0.0,-0.0771,-0.1129,-0.1667,-0.1765,0.0,0.0,-0.2679,-0.3055,-0.3285,-0.3587,-0.3788,-0.39,-0.4055,-0.4127,-0.4093,-0.43,-0.4385,-0.4337,-0.4358,-0.4382,-0.4385,-0.4412,-0.444,-0.4409,-0.4464,-0.4491,-0.447,-0.4267,-0.407,-0.3877,-0.3697,-0.3604,-0.36,-0.36,-0.3689,-0.4056,-0.421,-0.4618,-0.5373,-0.5653,-0.5819,-0.6072,-0.6229,-0.6301,-0.6207,-0.61,-0.5968,-0.0506,-0.0392,-0.0317,-0.0375,-0.0491,-0.0291,-0.0289,-0.0386,-0.0289,-0.0289,-0.0385,-0.0285,-0.0281,-0.0401,-0.0278,-0.0309,-0.0494,-0.0394,-0.0452,-0.0631,-0.0524,-0.0516,-0.0602,-0.0565,-0.0561,-0.0617,-0.0561,-0.0533,-0.0533,-0.0533,-0.0477,-0.0393,-0.0561,-0.0561,-0.0449,-0.0336,-0.028,-0.028,-0.014,-0.0055,0.0,0.0,0.0,0.0,0.0,0.0,0.0,0.0,0.0,0.0,0.0,0.0,0.0,0.0,0.0,0.0,0.0,0.0,0.0,0.0,0.0,0.0,0.0,0.0,0.0,0.0,-0.0895,0.0,-0.1343,0.0,-0.2136,-0.2293,-0.2477,-0.2821,-0.3058,-0.3356,-0.3635,-0.3855,-0.4004,-0.4085,-0.4227,-0.4314,-0.4345,-0.444,-0.4491,-0.4491,-0.4491,-0.4491,-0.4491,-0.4491,-0.4491,-0.4491,-0.4491,-0.4464,-0.4382,-0.4149,-0.3965,-0.3816,-0.3696,-0.36,-0.36,-0.36,-0.3755,-0.4206,-0.4469,-0.4814,-0.5545,-0.5873,-0.612,-0.6303,-0.641,-0.641,-0.641,-0.6295,-0.6155,-0.0698,-0.0511,-0.0356,-0.0386,-0.0524,-0.0511,-0.0472,-0.0472,-0.0438,-0.0438,-0.0438,-0.046,-0.048,-0.0469,-0.0437,-0.0468,-0.05,-0.0498,-0.0559,-0.0744,-0.0569,-0.0619,-0.0824,-0.0713,-0.0729,-0.0841,-0.0701,-0.0673,-0.0673,-0.0701,-0.0617,-0.0449,-0.0729,-0.0841,-0.0729,-0.0561,-0.0449,-0.0393,-0.028,-0.0165,-0.0053,-0.0052,-0.005,-0.0048,-0.0044,-0.0062,-0.004,-0.0038,-0.0036,-0.0017,0.0,0.0,0.0,0.0,0.0,0.0,-0.0056,0.0,0.0,0.0,0.0,0.0,0.0,0.0,0.0,-0.1149,-0.134,-0.1724,-0.2053,-0.232,-0.2475,-0.2767,-0.3075,-0.3391,-0.3465,-0.3625,-0.3966,-0.4117,-0.4204,-0.4247,-0.4385,-0.4491,-0.4484,-0.4491,-0.4491,-0.4491,-0.4491,-0.4491,-0.4491,-0.4491,-0.4491,-0.4491,-0.4491,-0.4447,-0.4254,-0.4099,-0.3968,-0.3819,-0.3696,-0.3604,-0.36,-0.36,-0.3777,-0.4294,-0.4775,-0.52,-0.5701,-0.6147,-0.6389,-0.641,-0.641,-0.641,-0.641,-0.6404,-0.6331,-0.046,-0.0563,-0.0366,-0.0393,-0.0594,-0.0511,-0.0438,-0.0337,-0.0169,-0.0101,-0.0101,-0.0268,-0.0333,-0.0332,-0.0166,-0.0232,-0.0497,-0.0324,-0.0384,-0.0543,-0.0454,-0.0442,-0.05,-0.0484,-0.0477,-0.0505,-0.0477,-0.0449,-0.0449,-0.0617,-0.0673,-0.0645,-0.0813,-0.0897,-0.0869,0.0,0.0,0.0,-0.0364,-0.0331,-0.032,-0.0334,-0.0322,-0.0334,-0.033,0.0,-0.0311,-0.021,-0.0163,-0.0161,-0.0049,0.0,0.0,0.0,0.0,0.0,0.0,0.0,0.0,0.0,0.0,0.0,-0.1576,-0.1707,-0.159,-0.191,-0.2234,-0.2463,-0.256,-0.2687,-0.2867,-0.3146,-0.3363,-0.3552,-0.3747,-0.3959,-0.4156,-0.418,-0.4264,-0.4436,-0.4474,-0.4491,-0.4491,-0.4491,-0.4491,-0.4491,-0.4491,-0.4491,-0.4491,-0.4491,-0.4491,-0.4491,-0.4491,-0.4436,-0.4244,-0.4099,-0.3957,-0.3816,-0.3673,-0.3614,-0.3607,-0.36,-0.3928,-0.4683,-0.5118,-0.5507,-0.6126,-0.6346,-0.641,-0.641,-0.641,-0.641,-0.641,-0.641,-0.6398,-0.0546,0.0,-0.045,-0.0405,0.0,-0.039,-0.0313,-0.0138,-0.0237,-0.0236,-0.0236,-0.0371,-0.0405,-0.0371,-0.0304,-0.0337,-0.0472,-0.0398,-0.0396,-0.0494,-0.0567,-0.0551,-0.0452,-0.0525,-0.0484,-0.0393,-0.0505,-0.0533,-0.0561,-0.0645,-0.0701,-0.0701,-0.0673,-0.0701,-0.0785,-0.0869,-0.0785,-0.0561,-0.0533,-0.05,-0.0409,-0.0396,-0.0356,-0.0295,0.0,0.0,0.0,0.0,0.0,0.0,0.0,0.0,0.0,0.0,0.0,0.0,-0.0033,-0.0202,-0.0554,-0.0757,-0.111,-0.1753,-0.2298,-0.2481,-0.2208,-0.2503,-0.2738,-0.2826,-0.2973,-0.311,-0.329,-0.3481,-0.3678,-0.3868,-0.4011,-0.4163,-0.4324,-0.4355,-0.4382,-0.447,-0.4491,-0.4491,-0.4491,-0.4491,-0.4491,-0.4491,-0.4491,-0.4491,-0.4491,-0.4491,-0.4491,-0.4491,-0.4491,-0.444,-0.425,-0.414,-0.4051,-0.3903,-0.3782,-0.372,-0.3706,-0.3648,-0.3906,-0.4797,-0.52,-0.562,-0.6233,-0.641,-0.641,-0.641,-0.641,-0.641,-0.641,-0.641,-0.641,-0.0746,-0.047,-0.0574,-0.0416,-0.0189,-0.0293,-0.025,-0.0104,0.0,0.0,0.0,-0.0405,-0.0438,-0.0405,-0.0405,-0.0405,-0.0405,-0.0405,-0.0405,-0.0404,-0.0622,-0.0606,-0.0466,-0.0599,-0.0552,-0.0396,-0.0562,-0.0617,-0.0617,-0.0645,-0.0645,-0.0645,-0.0477,-0.0477,-0.0701,-0.0841,-0.0841,-0.0729,-0.0729,-0.0645,-0.0504,-0.0488,-0.0446,-0.0331,-0.044,-0.0417,-0.0303,-0.0276,-0.0244,-0.0263,-0.013,-0.0036,-0.0052,-0.0018,0.0,0.0,-0.0154,-0.0412,-0.0785,-0.1076,-0.1548,-0.2251,-0.2867,-0.3118,-0.282,-0.299,-0.3109,-0.3088,-0.3327,-0.3504,-0.3624,-0.3778,-0.3947,-0.4174,-0.4244,-0.4334,-0.447,-0.4491,-0.4484,-0.4491,-0.4491,-0.4491,-0.4491,-0.4491,-0.4491,-0.4491,-0.4491,-0.4491,-0.4491,-0.4491,-0.4491,-0.4491,-0.4487,-0.4447,-0.4291,-0.423,-0.4176,-0.4051,-0.3931,-0.3829,-0.3778,-0.3696,-0.3939,-0.4661,-0.5205,-0.575,-0.6169,-0.6346,-0.6389,-0.641,-0.641,-0.641,-0.641,-0.641,-0.641,-0.1022,-0.1137,-0.0765,-0.0644,-0.0754,-0.0611,-0.0486,-0.0407,-0.0169,-0.0067,-0.0067,-0.0067,-0.0067,-0.0067,-0.0067,-0.0067,-0.0067,-0.0067,-0.0067,0.0,-0.0295,-0.0355,-0.032,-0.0454,-0.0441,-0.0321,-0.0398,-0.0393,-0.028,-0.0393,-0.0449,-0.0449,-0.0421,-0.0505,-0.0701,-0.0841,-0.0897,-0.0869,-0.0897,-0.0869,-0.0841,-0.084,-0.0824,-0.0791,-0.0768,-0.0738,-0.0728,-0.0549,-0.044,-0.0454,-0.0278,-0.0174,-0.0173,-0.0077,0.0,0.0,-0.0488,-0.0938,-0.1293,-0.1798,-0.2384,-0.2976,-0.3239,-0.3329,-0.3234,-0.3395,-0.3526,-0.3529,-0.3654,-0.3745,-0.3782,-0.3976,-0.4163,-0.4197,-0.4358,-0.447,-0.4491,-0.4491,-0.4491,-0.4491,-0.4491,-0.4491,-0.4491,-0.4491,-0.4491,-0.4491,-0.4491,-0.4491,-0.4491,-0.4491,-0.4491,-0.4491,-0.4491,-0.4481,-0.444,-0.4321,-0.423,-0.417,-0.4062,-0.3944,-0.3826,-0.368,-0.3829,-0.4316,-0.5318,-0.597,-0.5922,-0.612,-0.6346,-0.641,-0.641,-0.641,-0.641,-0.641,-0.641,-0.11,-0.1099,-0.101,-0.0888,-0.0732,-0.0632,-0.0577,-0.0562,-0.0415,-0.0307,-0.027,-0.0202,-0.0169,-0.0169,-0.0034,0.0,0.0,0.0,0.0,0.0,-0.03,-0.0361,-0.0322,-0.0432,-0.0449,-0.0412,-0.0399,-0.0421,-0.0477,-0.0533,-0.0505,-0.0421,-0.0393,-0.0505,-0.0701,-0.0841,-0.0897,-0.0897,-0.0897,-0.0897,-0.0897,-0.0884,-0.0868,-0.0799,-0.0784,-0.0755,-0.0693,-0.0564,-0.0497,-0.0485,-0.0392,-0.0303,-0.0315,-0.0502,-0.059,-0.0611,-0.1081,-0.1579,-0.196,-0.255,-0.3037,-0.3384,-0.3472,-0.3541,-0.3569,-0.3653,-0.3693,-0.3697,-0.3829,-0.3951,-0.4004,-0.4113,-0.425,-0.4355,-0.4453,-0.4487,-0.4491,-0.4491,-0.4491,-0.4491,-0.4491,-0.4491,-0.4491,-0.4491,-0.4491,-0.4491,-0.4491,-0.4491,-0.4491,-0.4491,-0.4491,-0.4491,-0.4491,-0.4491,-0.4487,-0.444,-0.4368,-0.4365,-0.4213,-0.4065,-0.3934,-0.3744,-0.3821,-0.4232,-0.5079,-0.5577,-0.5658,-0.6077,-0.6346,-0.641,-0.641,-0.641,-0.641,-0.641,-0.641,-0.1179,-0.1022,-0.1218,-0.1097,-0.0739,-0.0725,-0.0746,-0.0727,-0.0744,-0.0693,-0.0612,-0.044,-0.0337,-0.0304,-0.0135,0.0,-0.0067,-0.0034,0.0,-0.0101,-0.0337,-0.0465,-0.0419,-0.0501,-0.0547,-0.0559,-0.0541,-0.0589,-0.0673,-0.0673,-0.0533,-0.0364,-0.0364,-0.0505,-0.0701,-0.0813,-0.0869,-0.0897,-0.0897,-0.0897,-0.0897,-0.0897,-0.0858,-0.0755,-0.0774,-0.0747,-0.0653,-0.0577,-0.0553,-0.0536,-0.047,-0.0421,-0.0449,-0.0858,-0.1106,-0.1152,-0.1666,-0.2233,-0.2726,-0.3173,-0.3486,-0.3581,-0.3634,-0.3696,-0.3778,-0.386,-0.3853,-0.3866,-0.3957,-0.4095,-0.4164,-0.4227,-0.4314,-0.4477,-0.4491,-0.4491,-0.4491,-0.4491,-0.4491,-0.4491,-0.4491,-0.4491,-0.4491,-0.4491,-0.4491,-0.4491,-0.4491,-0.4491,-0.4491,-0.4491,-0.4491,-0.4491,-0.4491,-0.4491,-0.4491,-0.4487,-0.4481,-0.4487,-0.4311,-0.4156,-0.4001,-0.3816,-0.3856,-0.4254,-0.4683,-0.52,-0.5631,-0.6077,-0.6346,-0.641,-0.641,-0.641,-0.641,-0.641,-0.641,-0.1297,-0.1258,-0.1297,-0.1241,-0.1143,-0.1138,-0.1121,-0.1129,-0.1063,-0.105,-0.0974,-0.0647,-0.0404,-0.0304,-0.027,-0.027,-0.0236,-0.0067,-0.0101,-0.0236,-0.0304,-0.0465,-0.071,-0.0689,-0.0668,-0.0677,-0.0769,-0.0785,-0.0701,-0.0533,-0.0364,-0.0252,-0.0336,-0.0505,-0.0673,-0.0729,-0.0785,-0.0869,-0.0897,-0.0897,-0.0897,-0.0897,-0.0896,-0.0894,-0.0836,-0.0806,-0.0775,-0.0726,-0.0674,-0.0671,-0.0558,-0.049,-0.0533,-0.0889,-0.1113,-0.1178,-0.2069,-0.2876,-0.342,-0.3534,-0.3581,-0.361,-0.3723,-0.3802,-0.3816,-0.4021,-0.409,-0.4041,-0.4093,-0.421,-0.4227,-0.4362,-0.4464,-0.4484,-0.4491,-0.4491,-0.4491,-0.4491,-0.4491,-0.4491,-0.4491,-0.4491,-0.4491,-0.4491,-0.4491,-0.4491,-0.4491,-0.4491,-0.4491,-0.4491,-0.4491,-0.4491,-0.4491,-0.4491,-0.4491,-0.4491,-0.4491,-0.4477,-0.4345,-0.4176,-0.4063,-0.3982,-0.4045,-0.4129,-0.4792,-0.5286,-0.5567,-0.6056,-0.6389,-0.641,-0.641,-0.641,-0.641,-0.641,-0.641,-0.1313,-0.1297,-0.1297,-0.1289,-0.1278,-0.1278,-0.1221,-0.1191,-0.1161,-0.1103,-0.0979,-0.0886,-0.0707,-0.0405,-0.0337,-0.0236,-0.0135,-0.0169,-0.0169,-0.0169,-0.0337,-0.0465,-0.0516,-0.0564,-0.0607,-0.0707,-0.0741,-0.0757,-0.0645,-0.0421,-0.028,-0.0336,-0.0364,-0.0505,-0.0673,-0.0785,-0.0841,-0.0897,-0.0897,-0.0897,-0.0897,-0.0897,-0.0897,-0.0893,-0.0855,-0.0824,-0.0805,-0.0767,-0.0761,-0.0699,-0.0652,-0.0763,-0.1009,-0.1454,-0.1832,-0.2166,-0.2835,-0.335,-0.3578,-0.36,-0.3638,-0.372,-0.3758,-0.386,-0.4046,-0.4156,-0.4223,-0.429,-0.4341,-0.4375,-0.4375,-0.4453,-0.4491,-0.4491,-0.4491,-0.4491,-0.4491,-0.4491,-0.4491,-0.4491,-0.4491,-0.4491,-0.4491,-0.4491,-0.4491,-0.4491,-0.4491,-0.4491,-0.4491,-0.4491,-0.4491,-0.4491,-0.4491,-0.4491,-0.4491,-0.4491,-0.4491,-0.4481,-0.4443,-0.4311,-0.408,-0.3994,-0.3993,-0.3939,-0.4859,-0.5356,-0.5265,-0.5927,-0.641,-0.641,-0.641,-0.641,-0.641,-0.641,-0.641,-0.1325,-0.1299,-0.1297,-0.1297,-0.1297,-0.1297,-0.1279,-0.1209,-0.1179,-0.1113,-0.0979,-0.1055,-0.0909,-0.0607,-0.0405,-0.027,-0.0169,-0.0236,-0.0236,-0.0169,-0.0405,-0.0496,-0.0447,-0.0468,-0.0545,-0.0612,-0.0653,-0.0673,-0.0617,-0.0364,-0.0308,-0.0393,-0.0364,-0.0477,-0.0729,-0.0757,-0.0785,-0.0869,-0.0897,-0.0897,-0.0897,-0.0897,-0.0897,-0.0895,-0.0896,-0.0867,-0.082,-0.0785,-0.0779,-0.0733,-0.0702,-0.0921,-0.1389,-0.1834,-0.241,-0.3012,-0.342,-0.3621,-0.3632,-0.3662,-0.3723,-0.3836,-0.3859,-0.3931,-0.4095,-0.4177,-0.4274,-0.4378,-0.4463,-0.4484,-0.4491,-0.4491,-0.4491,-0.4491,-0.4491,-0.4491,-0.4491,-0.4491,-0.4491,-0.4491,-0.4491,-0.4491,-0.4491,-0.4491,-0.4491,-0.4491,-0.4491,-0.4491,-0.4491,-0.4491,-0.4491,-0.4491,-0.4491,-0.4491,-0.4491,-0.4491,-0.4491,-0.4474,-0.4457,-0.429,-0.4053,-0.3985,-0.4024,-0.4128,-0.5159,-0.5669,-0.5486,-0.5922,-0.6325,-0.6367,-0.641,-0.641,-0.641,-0.641,-0.641,-0.1325,-0.1299,-0.1297,-0.1297,-0.1297,-0.1297,-0.1279,-0.1213,-0.118,-0.1149,-0.1086,-0.1089,-0.0975,-0.0741,-0.0573,-0.0472,-0.0438,-0.0371,-0.0371,-0.0438,-0.0472,-0.0589,-0.0775,-0.0586,-0.0449,-0.0455,-0.062,-0.0617,-0.0421,-0.0393,-0.0393,-0.0393,-0.028,-0.0421,-0.0757,-0.0589,-0.0617,-0.0869,-0.0897,-0.0897,-0.0897,-0.0897,-0.0897,-0.0895,-0.0896,-0.0879,-0.087,-0.0845,-0.0789,-0.0787,-0.0736,-0.0922,-0.1391,-0.1882,-0.2598,-0.3436,-0.3595,-0.3672,-0.3765,-0.3785,-0.3846,-0.3974,-0.399,-0.401,-0.4075,-0.4155,-0.4226,-0.4218,-0.4411,-0.4463,-0.4491,-0.4491,-0.4491,-0.446,-0.4491,-0.4491,-0.4491,-0.4463,-0.4491,-0.4491,-0.4491,-0.4491,-0.4491,-0.4491,-0.4491,-0.4491,-0.4491,-0.4491,-0.4491,-0.4491,-0.4491,-0.4491,-0.4491,-0.4491,-0.4491,-0.4491,-0.4491,-0.4477,-0.4379,-0.4174,-0.3987,-0.387,-0.399,-0.3987,-0.4152,-0.4583,-0.5334,-0.5809,-0.6034,-0.619,-0.6367,-0.641,-0.641,-0.641,-0.641,-0.1303,-0.1297,-0.1297,-0.1297,-0.1297,-0.1297,-0.129,-0.1236,-0.1225,-0.1125,-0.1,-0.1064,-0.0908,-0.0607,-0.054,-0.0438,-0.0405,-0.054,-0.054,-0.0405,-0.0472,-0.0495,-0.0477,-0.0343,-0.0302,-0.0319,-0.0566,-0.0617,-0.0393,-0.0252,-0.014,-0.0168,-0.0196,-0.0336,-0.0533,-0.0589,-0.0701,-0.0869,-0.0897,-0.0897,-0.0897,-0.0897,-0.0897,-0.0897,-0.0887,-0.0872,-0.0879,-0.0858,-0.0837,-0.0792,-0.0763,-0.112,-0.1885,-0.2717,-0.3359,-0.3778,-0.3863,-0.3883,-0.3906,-0.3938,-0.3977,-0.4097,-0.4134,-0.4187,-0.4291,-0.435,-0.4384,-0.4384,-0.4304,-0.4356,-0.4463,-0.4491,-0.4432,-0.4353,-0.4408,-0.4436,-0.4353,-0.4301,-0.4356,-0.4463,-0.4491,-0.4491,-0.4491,-0.4491,-0.4491,-0.4491,-0.4491,-0.4491,-0.4491,-0.4491,-0.4491,-0.4491,-0.4491,-0.4491,-0.4491,-0.4491,-0.4487,-0.4481,-0.4419,-0.4253,-0.4066,-0.3955,-0.4026,-0.3835,-0.367,-0.395,-0.4901,-0.5631,-0.5857,-0.6233,-0.641,-0.641,-0.641,-0.641,-0.641,-0.1295,-0.13,-0.1297,-0.1297,-0.1297,-0.1297,-0.1291,-0.1277,-0.1226,-0.1125,-0.1,-0.1063,-0.0909,-0.064,-0.0573,-0.0472,-0.0337,-0.0573,-0.0607,-0.0472,-0.054,-0.0564,-0.0452,-0.0348,-0.0308,-0.0329,-0.0463,-0.0485,-0.0313,-0.0113,-0.0028,-0.0084,-0.0112,-0.0252,-0.0477,-0.0561,-0.0673,-0.0841,-0.0897,-0.0897,-0.0897,-0.0897,-0.0897,-0.0897,-0.0897,-0.0888,-0.0894,-0.0884,-0.0897,-0.0872,-0.0992,-0.1529,-0.2516,-0.3384,-0.391,-0.3977,-0.3991,-0.4021,-0.4062,-0.4065,-0.4132,-0.4274,-0.4241,-0.426,-0.4374,-0.4325,-0.4325,-0.4298,-0.4187,-0.4159,-0.4298,-0.4322,-0.4298,-0.4221,-0.4301,-0.4298,-0.4162,-0.419,-0.4301,-0.4436,-0.4491,-0.4491,-0.4491,-0.4491,-0.4491,-0.4491,-0.4491,-0.4491,-0.4491,-0.4491,-0.4491,-0.4491,-0.4491,-0.4491,-0.4491,-0.4491,-0.4491,-0.4484,-0.4501,-0.4327,-0.4124,-0.4036,-0.3897,-0.3699,-0.3733,-0.3972,-0.4491,-0.5286,-0.5836,-0.6282,-0.641,-0.641,-0.641,-0.641,-0.641,-0.1298,-0.1297,-0.1297,-0.1297,-0.1297,-0.1297,-0.1279,-0.1216,-0.1181,-0.1155,-0.1065,-0.1092,-0.0977,-0.081,-0.0777,-0.0607,-0.0405,-0.0472,-0.0607,-0.0708,-0.0742,-0.0765,-0.0714,-0.0548,-0.0442,-0.0428,-0.0358,-0.0264,-0.0233,-0.0085,-0.0056,-0.014,-0.0056,-0.0224,-0.0673,-0.0533,-0.0589,-0.0813,-0.0897,-0.0897,-0.0897,-0.0897,-0.0897,-0.0897,-0.0897,-0.0896,-0.0894,-0.0896,-0.0882,-0.0955,-0.1335,-0.2164,-0.2968,-0.3621,-0.3976,-0.3978,-0.3993,-0.4082,-0.4174,-0.4197,-0.4254,-0.4385,-0.4291,-0.4205,-0.4187,-0.4079,-0.3993,-0.4021,-0.3965,-0.3965,-0.4021,-0.4024,-0.4052,-0.4162,-0.4132,-0.4049,-0.4021,-0.4135,-0.4273,-0.4408,-0.4432,-0.4491,-0.4491,-0.4491,-0.4491,-0.4491,-0.4491,-0.4491,-0.4491,-0.4491,-0.4491,-0.4491,-0.4491,-0.4491,-0.4491,-0.4491,-0.4491,-0.4487,-0.4474,-0.4392,-0.4121,-0.3975,-0.3839,-0.3668,-0.3604,-0.384,-0.4403,-0.5161,-0.5707,-0.6083,-0.6218,-0.6346,-0.641,-0.641,-0.641,-0.1297,-0.1297,-0.1297,-0.1297,-0.1297,-0.1297,-0.129,-0.1276,-0.1227,-0.11,-0.0986,-0.1072,-0.0917,-0.0721,-0.0748,-0.0742,-0.0641,-0.054,-0.0472,-0.0506,-0.0674,-0.0739,-0.0597,-0.0424,-0.0346,-0.0271,-0.0148,-0.0146,-0.0171,-0.0085,-0.0028,-0.0028,0.0,-0.0168,-0.0477,-0.0449,-0.0561,-0.0841,-0.0897,-0.0897,-0.0897,-0.0897,-0.0897,-0.0897,-0.0897,-0.0897,-0.0897,-0.0888,-0.0883,-0.091,-0.1067,-0.1463,-0.2219,-0.3079,-0.3591,-0.3747,-0.4134,-0.4361,-0.4382,-0.429,-0.4221,-0.4239,-0.4162,-0.4079,-0.4049,-0.4021,-0.3965,-0.3993,-0.3907,-0.3852,-0.3938,-0.3833,-0.3802,-0.3907,-0.3965,-0.3938,-0.3879,-0.3993,-0.4021,-0.4021,-0.4159,-0.4273,-0.4328,-0.438,-0.4491,-0.4491,-0.4491,-0.4491,-0.4491,-0.4491,-0.4491,-0.4491,-0.4491,-0.4491,-0.4491,-0.4491,-0.4491,-0.4491,-0.4481,-0.4382,-0.4117,-0.3955,-0.3809,-0.3715,-0.365,-0.3884,-0.4447,-0.4923,-0.5448,-0.575,-0.5836,-0.6056,-0.6325,-0.6325,-0.619,-0.1297,-0.1297,-0.1297,-0.1297,-0.1297,-0.1297,-0.1297,-0.1289,-0.1243,-0.1157,-0.1043,-0.1057,-0.0964,-0.0765,-0.0784,-0.0742,-0.0674,-0.0607,-0.054,-0.0405,-0.0573,-0.0641,-0.0572,-0.0464,-0.0321,-0.0246,-0.0151,-0.0118,-0.0114,0.0,0.0,0.0,0.0,0.0,-0.0364,-0.0393,-0.0561,-0.0841,-0.0897,-0.0897,-0.0897,-0.0897,-0.0897,-0.0897,-0.0897,-0.0897,-0.0897,-0.0897,-0.0897,-0.0922,-0.1096,-0.1492,-0.2084,-0.2952,-0.3523,-0.366,-0.4042,-0.4405,-0.4463,-0.4236,-0.4135,-0.4162,-0.4079,-0.3993,-0.3993,-0.3965,-0.3935,-0.3907,-0.3799,-0.3771,-0.3802,-0.3722,-0.3635,-0.3719,-0.3802,-0.3827,-0.3796,-0.3907,-0.4021,-0.4021,-0.4187,-0.4273,-0.4356,-0.438,-0.4491,-0.4491,-0.4491,-0.4491,-0.4491,-0.4491,-0.4491,-0.4491,-0.4491,-0.4491,-0.4491,-0.4491,-0.4491,-0.4491,-0.4487,-0.4297,-0.4065,-0.4005,-0.3887,-0.3801,-0.3733,-0.3972,-0.4469,-0.4683,-0.5075,-0.5248,-0.5416,-0.555,-0.5685,-0.5734,-0.5663,-0.1297,-0.1297,-0.1297,-0.1297,-0.1297,-0.1297,-0.1297,-0.1291,-0.1224,-0.1171,-0.1161,-0.1144,-0.1014,-0.0906,-0.0852,-0.0775,-0.0607,-0.0708,-0.0708,-0.0573,-0.0607,-0.0641,-0.0741,-0.0571,-0.0394,-0.0287,-0.0249,-0.0151,0.0,0.0,0.0,0.0,0.0,-0.014,-0.0336,-0.0393,-0.0561,-0.0841,-0.0897,-0.0897,-0.0897,-0.0897,-0.0897,-0.0897,-0.0897,-0.0897,-0.0897,-0.0897,-0.0897,-0.0982,-0.1424,-0.1947,-0.2591,-0.3236,-0.3564,-0.3599,-0.3965,-0.4245,-0.4353,-0.4159,-0.4021,-0.4107,-0.4024,-0.3965,-0.3913,-0.3827,-0.3769,-0.3796,-0.3691,-0.361,-0.361,-0.361,-0.361,-0.3613,-0.3641,-0.3691,-0.3796,-0.3882,-0.3938,-0.4079,-0.4298,-0.4432,-0.4349,-0.4377,-0.4408,-0.4408,-0.4408,-0.4408,-0.4436,-0.4436,-0.4463,-0.4463,-0.4436,-0.4491,-0.4491,-0.4491,-0.4491,-0.446,-0.4426,-0.4241,-0.4012,-0.3948,-0.383,-0.3773,-0.3762,-0.4046,-0.4184,-0.429,-0.453,-0.4792,-0.4896,-0.4944,-0.5096,-0.5248,-0.527,-0.1297,-0.1297,-0.1297,-0.1297,-0.1297,-0.1297,-0.1297,-0.1292,-0.1225,-0.1213,-0.1199,-0.1148,-0.1087,-0.1048,-0.1022,-0.0975,-0.0909,-0.0842,-0.0876,-0.0908,-0.0775,-0.0742,-0.0776,-0.0606,-0.0427,-0.0283,-0.0155,-0.003,0.0,0.0,0.0,0.0,0.0,-0.014,-0.0364,-0.0393,-0.0589,-0.0841,-0.0897,-0.0897,-0.0897,-0.0897,-0.0897,-0.0897,-0.0897,-0.0897,-0.0897,-0.0897,-0.0897,-0.0954,-0.1484,-0.1846,-0.2125,-0.2905,-0.3352,-0.3463,-0.3799,-0.4052,-0.4052,-0.3938,-0.3882,-0.3882,-0.3802,-0.3694,-0.3694,-0.3666,-0.3638,-0.3638,-0.361,-0.3613,-0.3613,-0.3613,-0.3613,-0.3613,-0.3613,-0.361,-0.3666,-0.3694,-0.3722,-0.3749,-0.3938,-0.4018,-0.4045,-0.4104,-0.4159,-0.4159,-0.4159,-0.4187,-0.427,-0.427,-0.4298,-0.4356,-0.4356,-0.4436,-0.4491,-0.4491,-0.4491,-0.446,-0.4357,-0.4175,-0.3952,-0.3764,-0.361,-0.3496,-0.3494,-0.3686,-0.3566,-0.3546,-0.3899,-0.4312,-0.4334,-0.4399,-0.4814,-0.5053,-0.4988,-0.1297,-0.1297,-0.1297,-0.1297,-0.1297,-0.1297,-0.1297,-0.1293,-0.1279,-0.1223,-0.1203,-0.1162,-0.1133,-0.1084,-0.1089,-0.1109,-0.1076,-0.0976,-0.0976,-0.1043,-0.0876,-0.0776,-0.0641,-0.0506,-0.0329,-0.0189,-0.0062,0.0,0.0,0.0,0.0,0.0,0.0,0.0,-0.0364,-0.0393,-0.0561,-0.0813,-0.0897,-0.0897,-0.0897,-0.0897,-0.0897,-0.0897,-0.0897,-0.0897,-0.0897,-0.0897,-0.0897,-0.0954,-0.1233,-0.1512,-0.1818,-0.2293,-0.2768,-0.2989,-0.3325,-0.3549,-0.3633,-0.366,-0.3744,-0.3771,-0.3663,-0.3613,-0.3613,-0.3613,-0.3613,-0.3613,-0.3613,-0.3613,-0.3613,-0.3613,-0.3613,-0.3613,-0.3613,-0.3613,-0.3613,-0.3666,-0.3663,-0.3719,-0.3799,-0.3879,-0.3879,-0.3938,-0.3965,-0.4021,-0.4021,-0.4076,-0.4107,-0.4107,-0.4107,-0.4162,-0.4218,-0.427,-0.4298,-0.4298,-0.4325,-0.4325,-0.4202,-0.4027,-0.387,-0.366,-0.3578,-0.3459,-0.3353,-0.3251,-0.3239,-0.3235,-0.3439,-0.3722,-0.3766,-0.3921,-0.4294,-0.4552,-0.453,-0.1297,-0.1297,-0.1297,-0.1297,-0.1297,-0.1297,-0.1297,-0.1297,-0.1295,-0.1235,-0.1204,-0.1177,-0.1179,-0.1115,-0.1087,-0.1109,-0.1109,-0.1076,-0.1043,-0.101,-0.0842,-0.0641,-0.0472,-0.0405,-0.0232,-0.0097,-0.0031,0.0,0.0,0.0,0.0,0.0,0.0,0.0,-0.0336,-0.0393,-0.0561,-0.0813,-0.0897,-0.0897,-0.0897,-0.0897,-0.0897,-0.0897,-0.0897,-0.0897,-0.0897,-0.0897,-0.0897,-0.0897,-0.0953,-0.1345,-0.1762,-0.1706,-0.1956,-0.2458,-0.2792,-0.3019,-0.3074,-0.3327,-0.3524,-0.3547,-0.3497,-0.3444,-0.333,-0.3302,-0.3416,-0.3388,-0.3499,-0.3471,-0.3613,-0.3613,-0.3613,-0.3613,-0.3613,-0.3613,-0.361,-0.3719,-0.3771,-0.3769,-0.3882,-0.3938,-0.3968,-0.3968,-0.3941,-0.383,-0.3858,-0.3885,-0.3913,-0.3938,-0.3965,-0.3993,-0.4049,-0.4079,-0.4076,-0.4076,-0.4104,-0.4104,-0.399,-0.3874,-0.38,-0.3643,-0.3592,-0.3506,-0.3344,-0.3269,-0.324,-0.3264,-0.3269,-0.3328,-0.3458,-0.3505,-0.3619,-0.3788,-0.3832,-0.1297,-0.1297,-0.1297,-0.1297,-0.1297,-0.1297,-0.1297,-0.1297,-0.1296,-0.1264,-0.1221,-0.1205,-0.117,-0.1087,-0.1113,-0.1109,-0.1109,-0.1076,-0.1009,-0.0842,-0.0674,-0.0506,-0.0371,-0.0304,-0.0266,-0.0195,-0.0064,0.0,0.0,0.0,0.0,0.0,0.0,-0.014,-0.0364,-0.0421,-0.0561,-0.0841,-0.0897,-0.0897,-0.0897,-0.0897,-0.0897,-0.0897,-0.0897,-0.0897,-0.0897,-0.0897,-0.0897,-0.1009,-0.1288,-0.154,-0.1734,-0.1875,-0.2014,-0.2209,-0.2486,-0.271,-0.2794,-0.2822,-0.2903,-0.2933,-0.2905,-0.2683,-0.2266,-0.2683,-0.285,-0.288,-0.2907,-0.3132,-0.353,-0.3613,-0.3613,-0.3613,-0.3613,-0.3613,-0.3613,-0.3638,-0.3635,-0.3663,-0.3694,-0.3694,-0.3694,-0.3724,-0.3697,-0.3694,-0.3694,-0.3694,-0.3722,-0.3802,-0.3827,-0.3855,-0.3882,-0.3941,-0.3993,-0.3965,-0.3965,-0.3941,-0.3827,-0.3769,-0.3694,-0.3619,-0.3574,-0.3453,-0.3332,-0.326,-0.3249,-0.3128,-0.3115,-0.3146,-0.3192,-0.3284,-0.3328,-0.3328,-0.3328,-0.1297,-0.1297,-0.1297,-0.1297,-0.1297,-0.1297,-0.1297,-0.1293,-0.1279,-0.1248,-0.1207,-0.1153,-0.1153,-0.1111,-0.1109,-0.1109,-0.1076,-0.0975,-0.0841,-0.0674,-0.0506,-0.0371,-0.0304,-0.0202,-0.0167,0.0,-0.0032,0.0,0.0,0.0,0.0,0.0,0.0,0.0,-0.0364,-0.0393,-0.0561,-0.0841,-0.0897,-0.0897,-0.0897,-0.0897,-0.0897,-0.0897,-0.0897,-0.0869,-0.0785,-0.0813,-0.0785,-0.0869,-0.1036,-0.1343,-0.1539,-0.1484,-0.1483,-0.1677,-0.1762,-0.1846,-0.1874,-0.2124,-0.2291,-0.2291,-0.2293,-0.2319,-0.2151,-0.2319,-0.243,-0.2597,-0.2766,-0.2935,-0.3502,-0.3613,-0.3585,-0.3613,-0.3613,-0.3613,-0.3613,-0.3613,-0.3613,-0.3613,-0.3613,-0.3613,-0.3613,-0.3613,-0.3613,-0.3641,-0.3641,-0.3641,-0.3641,-0.3694,-0.3694,-0.3719,-0.3747,-0.3802,-0.3882,-0.3879,-0.3827,-0.3802,-0.3719,-0.3663,-0.3638,-0.3577,-0.352,-0.3457,-0.3397,-0.3267,-0.321,-0.3094,-0.3023,-0.3055,-0.3106,-0.3148,-0.3192,-0.3236,-0.3258,-0.1297,-0.1297,-0.1297,-0.1297,-0.1297,-0.1297,-0.1297,-0.1293,-0.123,-0.1204,-0.1203,-0.1138,-0.1115,-0.1116,-0.1109,-0.1109,-0.1042,-0.0842,-0.0641,-0.054,-0.0337,-0.0236,-0.0202,-0.0101,0.0,0.0,0.0,0.0,0.0,0.0,0.0,0.0,0.0,0.0,-0.0336,-0.0421,-0.0561,-0.0841,-0.0897,-0.0897,-0.0897,-0.0897,-0.0897,-0.0897,-0.0897,-0.0841,-0.0757,-0.0729,-0.0673,-0.0645,-0.0505,-0.0784,-0.1008,-0.084,-0.0505,-0.0951,-0.1036,-0.1093,-0.1177,-0.14,-0.1651,-0.1679,-0.168,-0.179,-0.1956,-0.1873,-0.2012,-0.2347,-0.2625,-0.2822,-0.3274,-0.3357,-0.3388,-0.3444,-0.3502,-0.3613,-0.3613,-0.3613,-0.3613,-0.3613,-0.3613,-0.3613,-0.3613,-0.3613,-0.3613,-0.3613,-0.3613,-0.3613,-0.3613,-0.3613,-0.3613,-0.361,-0.3666,-0.3694,-0.3747,-0.3774,-0.3719,-0.3691,-0.3638,-0.3613,-0.3613,-0.3566,-0.3539,-0.3567,-0.3501,-0.3371,-0.3242,-0.3156,-0.3095,-0.3044,-0.3018,-0.3062,-0.3103,-0.317,-0.3148,-0.1297,-0.1297,-0.1297,-0.1297,-0.1297,-0.1297,-0.1297,-0.1296,-0.1288,-0.1255,-0.1206,-0.1195,-0.1123,-0.1121,-0.1109,-0.1109,-0.1008,-0.0775,-0.0573,-0.0472,-0.027,-0.0101,-0.0101,0.0,0.0,0.0,0.0,0.0,0.0,0.0,0.0,0.0,0.0,0.0,-0.0336,-0.0421,-0.0561,-0.0813,-0.0869,-0.0869,-0.0869,-0.0897,-0.0869,-0.0869,-0.0869,-0.0785,-0.0701,-0.0673,-0.0617,-0.0477,-0.0421,-0.0421,-0.0476,-0.0336,-0.0308,-0.042,-0.0673,-0.0785,-0.0841,-0.0953,-0.1037,-0.1038,-0.1037,-0.0813,-0.0784,-0.0868,-0.1343,-0.1846,-0.2291,-0.2514,-0.2125,-0.2599,-0.2822,-0.2963,-0.3246,-0.353,-0.353,-0.3585,-0.3585,-0.3613,-0.3613,-0.3613,-0.3613,-0.3613,-0.3613,-0.3613,-0.3613,-0.3613,-0.3613,-0.3613,-0.3613,-0.3613,-0.3613,-0.3613,-0.3641,-0.3641,-0.3641,-0.3638,-0.3613,-0.3613,-0.3613,-0.3613,-0.3605,-0.3594,-0.3578,-0.3479,-0.3373,-0.3228,-0.3156,-0.3094,-0.3024,-0.2954,-0.3018,-0.3059,-0.3018,-0.1297,-0.1297,-0.1297,-0.1297,-0.1297,-0.1297,-0.1297,-0.1293,-0.1279,-0.1246,-0.1208,-0.1184,-0.1119,-0.1084,-0.1109,-0.1109,-0.1008,-0.0808,-0.0607,-0.0472,-0.027,-0.0169,-0.0101,-0.0067,0.0,0.0,0.0,0.0,0.0,0.0,0.0,0.0,0.0,0.0,-0.0336,-0.0393,-0.0561,-0.0757,-0.0813,-0.0785,-0.0813,-0.0841,-0.0869,-0.0813,-0.0785,-0.0673,-0.0477,-0.0449,-0.0393,-0.0308,-0.0224,-0.0224,-0.0196,-0.014,0.0,0.0,0.0,0.0,0.0,-0.0449,-0.0449,-0.0421,0.0,-0.0505,-0.0421,-0.0561,-0.0784,-0.1232,-0.1512,-0.179,-0.1846,-0.2068,-0.2209,-0.2347,-0.2768,-0.3077,-0.3218,-0.3416,-0.3502,-0.3557,-0.3585,-0.3585,-0.3613,-0.3613,-0.3613,-0.3613,-0.3613,-0.3613,-0.3613,-0.3613,-0.3613,-0.3613,-0.3613,-0.3613,-0.3613,-0.3613,-0.3613,-0.3613,-0.3613,-0.3613,-0.3613,-0.3613,-0.3613,-0.361,-0.3586,-0.3567,-0.3422,-0.3258,-0.3202,-0.3138,-0.3029,-0.2946,-0.2934,-0.2929,-0.2909,-0.1297,-0.1297,-0.1297,-0.1297,-0.1297,-0.1297,-0.1297,-0.129,-0.1226,-0.1201,-0.1173,-0.1139,-0.111,-0.1089,-0.1112,-0.1109,-0.1076,-0.0876,-0.0674,-0.0506,-0.0371,-0.027,-0.0202,-0.0135,-0.0067,-0.0135,0.0,0.0,0.0,0.0,0.0,0.0,0.0,-0.014,-0.0336,-0.0393,-0.0533,-0.0645,-0.0701,-0.0701,-0.0673,-0.0785,-0.0785,-0.0645,-0.0645,-0.0505,-0.0252,-0.0252,-0.0224,-0.0168,-0.0084,-0.0056,-0.0112,-0.0056,0.0,0.0,0.0,0.0,0.0,0.0,0.0,0.0,0.0,0.0,-0.0505,-0.0421,-0.0421,-0.0673,-0.0925,-0.1036,-0.1259,-0.154,-0.1596,-0.1736,-0.2125,-0.2541,-0.2681,-0.2907,-0.3246,-0.3357,-0.3499,-0.3557,-0.3557,-0.3613,-0.3613,-0.3613,-0.3613,-0.3613,-0.3613,-0.3613,-0.3613,-0.3613,-0.3613,-0.3613,-0.3613,-0.3613,-0.3613,-0.3613,-0.3613,-0.3613,-0.3613,-0.3613,-0.3613,-0.3613,-0.361,-0.3547,-0.3428,-0.3322,-0.3213,-0.312,-0.2986,-0.2932,-0.2915,-0.2909,-0.2909,-0.1297,-0.1297,-0.1297,-0.1297,-0.1297,-0.1297,-0.1296,-0.1291,-0.1226,-0.1173,-0.1191,-0.1113,-0.1085,-0.1106,-0.1084,-0.111,-0.1043,-0.0909,-0.0708,-0.054,-0.0405,-0.0236,-0.0101,-0.0034,0.0,0.0,0.0,0.0,0.0,0.0,0.0,0.0,0.0,-0.014,-0.0364,-0.0393,-0.0505,-0.0673,-0.0701,-0.0589,-0.0505,-0.0617,-0.0617,-0.0505,-0.0421,-0.0364,-0.0196,-0.0168,-0.014,0.0,0.0,0.0,-0.0028,0.0,0.0,0.0,0.0,0.0,0.0,0.0,0.0,0.0,0.0,0.0,-0.0196,-0.0477,-0.0449,-0.0112,-0.0533,-0.0645,-0.056,-0.0757,-0.0924,-0.1204,-0.154,-0.1818,-0.2012,-0.2402,-0.274,-0.288,-0.2965,-0.3302,-0.3471,-0.3557,-0.3613,-0.3613,-0.3613,-0.3613,-0.3613,-0.3613,-0.3613,-0.3613,-0.3613,-0.3613,-0.3613,-0.3613,-0.3613,-0.3613,-0.3613,-0.3613,-0.3613,-0.3613,-0.3613,-0.3613,-0.3613,-0.3583,-0.3509,-0.34,-0.3237,-0.3112,-0.302,-0.2958,-0.2912,-0.2909,-0.289,-0.1297,-0.1297,-0.1297,-0.1297,-0.1297,-0.1297,-0.1286,-0.1235,-0.1236,-0.1208,-0.1168,-0.1155,-0.1129,-0.1099,-0.1113,-0.1109,-0.1076,-0.101,-0.0842,-0.064,-0.0506,-0.0304,-0.0169,0.0,0.0,0.0,0.0,0.0,0.0,0.0,0.0,0.0,-0.0084,-0.0196,-0.0393,-0.0393,-0.0449,-0.0477,-0.0477,-0.0393,-0.0336,-0.0421,-0.0449,-0.0308,-0.028,-0.0196,0.0,-0.0084,-0.0056,0.0,0.0,0.0,0.0,0.0,0.0,0.0,0.0,0.0,0.0,0.0,0.0,0.0,0.0,0.0,0.0,0.0,0.0,-0.0056,-0.0224,0.0,0.0,-0.0224,-0.0336,-0.0561,-0.0981,-0.1148,-0.1427,-0.1874,-0.2209,-0.232,-0.246,-0.2768,-0.3135,-0.3388,-0.3499,-0.3613,-0.3613,-0.3613,-0.3613,-0.3613,-0.3613,-0.3613,-0.3613,-0.3613,-0.3613,-0.3613,-0.3613,-0.3613,-0.3613,-0.3613,-0.3613,-0.3613,-0.3613,-0.3613,-0.3613,-0.358,-0.3566,-0.3466,-0.3316,-0.3197,-0.3085,-0.2995,-0.2931,-0.289,-0.289,-0.1297,-0.1297,-0.1297,-0.1297,-0.1295,-0.1288,-0.1233,-0.1215,-0.1215,-0.1187,-0.115,-0.1146,-0.1158,-0.112,-0.111,-0.1109,-0.1109,-0.1109,-0.0942,-0.0741,-0.0573,-0.0371,-0.0202,0.0,0.0,0.0,0.0,0.0,0.0,0.0,0.0,0.0,0.0,-0.0224,-0.0336,-0.0393,-0.0421,-0.0336,-0.028,-0.0224,-0.0196,-0.028,-0.0252,-0.0196,-0.014,0.0,0.0,0.0,0.0,0.0,0.0,0.0,0.0,0.0,0.0,0.0,0.0,0.0,0.0,0.0,0.0,0.0,0.0,0.0,0.0,0.0,0.0,0.0,0.0,0.0,0.0,0.0,0.0,0.0,-0.0449,-0.0561,-0.0785,-0.1259,-0.1595,-0.1679,-0.1874,-0.2153,-0.2545,-0.3049,-0.333,-0.3557,-0.3613,-0.3613,-0.3613,-0.3613,-0.3613,-0.3613,-0.3613,-0.3613,-0.3613,-0.3613,-0.3613,-0.3613,-0.3613,-0.3613,-0.3613,-0.3613,-0.3613,-0.3613,-0.3613,-0.361,-0.3577,-0.3474,-0.3373,-0.3273,-0.3145,-0.3018,-0.2955,-0.2928,-0.289,-0.1297,-0.1297,-0.1296,-0.1295,-0.1293,-0.1226,-0.1214,-0.12,-0.1156,-0.115,-0.1151,-0.1135,-0.1106,-0.1082,-0.1109,-0.1109,-0.1109,-0.1109,-0.0875,-0.0674,-0.0506,-0.0337,-0.0169,0.0,0.0,0.0,0.0,0.0,0.0,0.0,0.0,0.0,0.0,-0.0197,-0.0252,-0.0308,-0.0308,-0.0252,-0.0168,-0.014,-0.0084,-0.0112,-0.014,0.0,0.0,0.0,0.0,0.0,0.0,0.0,0.0,0.0,0.0,0.0,0.0,0.0,0.0,0.0,0.0,0.0,0.0,0.0,0.0,0.0,0.0,0.0,0.0,0.0,0.0,0.0,0.0,0.0,0.0,0.0,0.0,0.0,0.0,-0.0673,-0.0952,-0.1064,-0.126,-0.1483,-0.179,-0.2266,-0.2935,-0.316,-0.3585,-0.3613,-0.3613,-0.3613,-0.3613,-0.3613,-0.3613,-0.3613,-0.3613,-0.3613,-0.3613,-0.3613,-0.3613,-0.3613,-0.3613,-0.3613,-0.3613,-0.3613,-0.3613,-0.3613,-0.3605,-0.3504,-0.343,-0.3328,-0.322,-0.3069,-0.2976,-0.2931,-0.2901,-0.1297,-0.1295,-0.1237,-0.123,-0.1267,-0.1217,-0.119,-0.116,-0.1151,-0.1142,-0.1136,-0.1107,-0.1087,-0.1111,-0.1109,-0.1109,-0.1109,-0.1109,-0.0908,-0.0707,-0.054,-0.0371,-0.0202,0.0,0.0,0.0,0.0,0.0,0.0,0.0,0.0,0.0,0.0,-0.0197,-0.0224,-0.0224,-0.0196,0.0,0.0,0.0,-0.0028,-0.0028,-0.0056,0.0,0.0,0.0,0.0,0.0,0.0,0.0,0.0,0.0,0.0,0.0,0.0,0.0,0.0,0.0,0.0,0.0,0.0,0.0,0.0,0.0,0.0,0.0,0.0,0.0,0.0,0.0,0.0,0.0,0.0,0.0,0.0,0.0,0.0,0.0,0.0,0.0,0.0,-0.0728,-0.1064,-0.1429,-0.2153,-0.2794,-0.3246,-0.3613,-0.3613,-0.3613,-0.3613,-0.3613,-0.3613,-0.3613,-0.3613,-0.3613,-0.3613,-0.3613,-0.3613,-0.3613,-0.3613,-0.3613,-0.3613,-0.3613,-0.3613,-0.3613,-0.3602,-0.3545,-0.3487,-0.3417,-0.3255,-0.3091,-0.3012,-0.2934,-0.2909,-0.1282,-0.1279,-0.1211,-0.1204,-0.1209,-0.1192,-0.1161,-0.1093,-0.1167,-0.1164,-0.1106,-0.1084,-0.1109,-0.1109,-0.1109,-0.1109,-0.1076,-0.1043,-0.0876,-0.0708,-0.0506,-0.0371,-0.0202,0.0,0.0,0.0,0.0,0.0,0.0,0.0,0.0,0.0,-0.0085,-0.0112,-0.014,0.0,0.0,0.0,0.0,0.0,0.0,0.0,0.0,0.0,0.0,0.0,0.0,0.0,0.0,0.0,0.0,0.0,0.0,0.0,0.0,0.0,0.0,0.0,0.0,0.0,0.0,0.0,0.0,0.0,0.0,0.0,0.0,0.0,0.0,0.0,0.0,0.0,0.0,0.0,0.0,0.0,0.0,0.0,0.0,0.0,0.0,0.0,-0.0561,-0.098,-0.1762,-0.2432,-0.288,-0.3302,-0.3613,-0.3613,-0.3613,-0.3613,-0.3613,-0.3613,-0.3613,-0.3613,-0.3613,-0.3613,-0.3613,-0.3613,-0.3613,-0.3613,-0.3613,-0.3613,-0.3613,-0.3613,-0.3605,-0.3561,-0.3523,-0.3479,-0.3316,-0.3115,-0.2976,-0.2904,-0.2901,-0.1213,-0.1209,-0.118,-0.1183,-0.1198,-0.1148,-0.1088,-0.1113,-0.1095,-0.1118,-0.1116,-0.1109,-0.1109,-0.1109,-0.1109,-0.1076,-0.1009,-0.0909,-0.0742,-0.054,-0.0405,-0.0236,0.0,0.0,0.0,0.0,0.0,0.0,0.0,0.0,0.0,0.0,0.0,0.0,0.0,0.0,0.0,0.0,0.0,0.0,0.0,0.0,0.0,0.0,0.0,0.0,0.0,0.0,0.0,0.0,0.0,0.0,0.0,0.0,0.0,0.0,0.0,0.0,0.0,0.0,0.0,0.0,0.0,0.0,0.0,0.0,0.0,0.0,0.0,0.0,0.0,0.0,0.0,0.0,0.0,0.0,0.0,0.0,0.0,0.0,0.0,0.0,0.0,-0.0588,-0.1427,-0.2069,-0.2516,-0.2935,-0.333,-0.3585,-0.3585,-0.3613,-0.3613,-0.3613,-0.3613,-0.3613,-0.3613,-0.3613,-0.3613,-0.3613,-0.3613,-0.3613,-0.3613,-0.3613,-0.3613,-0.3613,-0.3613,-0.361,-0.3534,-0.3471,-0.3327,-0.3159,-0.3008,-0.2895,-0.2901,-0.1182,-0.1179,-0.1149,-0.1142,-0.1149,-0.1095,-0.111,-0.1091,-0.1114,-0.1109,-0.1109,-0.1109,-0.1109,-0.1109,-0.1076,-0.1043,-0.091,-0.0876,-0.0674,-0.0405,-0.0304,-0.0169,0.0,0.0,0.0,0.0,0.0,0.0,0.0,0.0,0.0,0.0,0.0,0.0,0.0,0.0,0.0,0.0,0.0,0.0,0.0,0.0,0.0,0.0,0.0,0.0,0.0,0.0,0.0,0.0,0.0,0.0,0.0,0.0,0.0,0.0,0.0,0.0,0.0,0.0,0.0,0.0,0.0,0.0,0.0,0.0,0.0,0.0,0.0,0.0,0.0,0.0,0.0,0.0,0.0,0.0,0.0,0.0,0.0,0.0,0.0,0.0,0.0,0.0,-0.0896,-0.1511,-0.1958,-0.2458,-0.288,-0.336,-0.3585,-0.3585,-0.3613,-0.3613,-0.3613,-0.3613,-0.3613,-0.3613,-0.3613,-0.3613,-0.3613,-0.3613,-0.3613,-0.3613,-0.3613,-0.3613,-0.3613,-0.3602,-0.3553,-0.3444,-0.3333,-0.3188,-0.3037,-0.2955,-0.2911,-0.1151,-0.1147,-0.1119,-0.1106,-0.1106,-0.1105,-0.1093,-0.1111,-0.1109,-0.1109,-0.1109,-0.1109,-0.1109,-0.1076,-0.1009,-0.0942,-0.0776,-0.0641,-0.0573,-0.0304,-0.0202,-0.0101,0.0,0.0,0.0,0.0,0.0,0.0,0.0,0.0,0.0,0.0,0.0,0.0,0.0,0.0,0.0,0.0,0.0,0.0,0.0,0.0,0.0,0.0,0.0,0.0,0.0,0.0,0.0,0.0,0.0,0.0,0.0,0.0,0.0,0.0,0.0,0.0,0.0,0.0,0.0,0.0,0.0,0.0,0.0,0.0,0.0,0.0,0.0,0.0,0.0,0.0,0.0,0.0,0.0,0.0,0.0,0.0,0.0,0.0,0.0,0.0,0.0,0.0,-0.0336,-0.0868,-0.1399,-0.1873,-0.2347,-0.2796,-0.3218,-0.3274,-0.3332,-0.333,-0.3416,-0.3613,-0.3613,-0.3613,-0.3613,-0.3613,-0.3613,-0.3613,-0.3613,-0.3585,-0.3585,-0.3557,-0.3585,-0.3566,-0.3457,-0.3401,-0.3392,-0.3242,-0.3083,-0.2989,-0.291,-0.1085,-0.1115,-0.1088,-0.1111,-0.111,-0.1113,-0.1111,-0.1109,-0.1109,-0.1109,-0.1109,-0.1109,-0.1109,-0.1043,-0.0909,-0.0809,-0.0741,-0.0472,-0.0337,-0.0236,-0.0101,0.0,0.0,0.0,0.0,0.0,0.0,0.0,0.0,0.0,0.0,0.0,0.0,0.0,0.0,0.0,0.0,0.0,0.0,0.0,0.0,0.0,0.0,0.0,0.0,0.0,0.0,0.0,0.0,0.0,0.0,0.0,0.0,0.0,0.0,0.0,0.0,0.0,0.0,0.0,0.0,0.0,0.0,0.0,0.0,0.0,0.0,0.0,0.0,0.0,0.0,0.0,0.0,0.0,0.0,0.0,0.0,0.0,0.0,0.0,0.0,0.0,0.0,0.0,0.0,-0.0308,-0.0784,-0.1036,-0.151,-0.1984,-0.2378,-0.2657,-0.2768,-0.2935,-0.3077,-0.3246,-0.333,-0.3274,-0.3557,-0.3613,-0.3613,-0.3613,-0.3613,-0.3585,-0.353,-0.3416,-0.3107,-0.3135,-0.3269,-0.3237,-0.2967,-0.303,-0.2796,-0.2866,-0.2803,-0.1089,-0.1087,-0.1113,-0.1109,-0.1109,-0.1109,-0.1109,-0.1109,-0.1109,-0.1109,-0.1109,-0.1109,-0.1109,-0.1076,-0.1043,-0.0842,-0.064,-0.0472,-0.027,0.0,0.0,0.0,0.0,0.0,0.0,0.0,0.0,0.0,0.0,0.0,0.0,0.0,0.0,0.0,0.0,0.0,0.0,0.0,0.0,0.0,0.0,0.0,0.0,0.0,0.0,0.0,0.0,0.0,0.0,0.0,0.0,0.0,0.0,0.0,0.0,0.0,0.0,0.0,0.0,0.0,0.0,0.0,0.0,0.0,0.0,0.0,0.0,0.0,0.0,0.0,0.0,0.0,0.0,0.0,0.0,0.0,0.0,0.0,0.0,0.0,0.0,0.0,0.0,0.0,0.0,0.0,0.0,0.0,-0.07,-0.1203,-0.1651,-0.1958,-0.2153,-0.2293,-0.2488,-0.2655,-0.2824,-0.2963,-0.333,-0.3585,-0.3613,-0.3613,-0.3613,-0.3444,-0.3163,-0.274,-0.2293,-0.2432,-0.2713,-0.2406,-0.2206,-0.2404,-0.2568,-0.2572,-0.2443,-0.1109,-0.1109,-0.1109,-0.1109,-0.1109,-0.1109,-0.1109,-0.1109,-0.1109,-0.1109,-0.1109,-0.1109,-0.1109,-0.1042,-0.0908,-0.0707,-0.0506,-0.0304,0.0,0.0,0.0,0.0,0.0,0.0,0.0,0.0,0.0,0.0,0.0,0.0,0.0,0.0,0.0,0.0,0.0,0.0,0.0,0.0,0.0,0.0,0.0,0.0,0.0,0.0,0.0,0.0,0.0,0.0,0.0,0.0,0.0,0.0,0.0,0.0,0.0,0.0,0.0,0.0,0.0,0.0,0.0,0.0,0.0,0.0,0.0,0.0,0.0,0.0,0.0,0.0,0.0,0.0,0.0,0.0,0.0,0.0,0.0,0.0,0.0,0.0,0.0,0.0,0.0,0.0,0.0,0.0,0.0,0.0,0.0,-0.0532,-0.098,-0.1344,-0.1512,-0.1651,-0.1874,-0.2207,-0.2571,-0.2907,-0.3388,-0.3585,-0.3585,-0.3474,-0.336,-0.3023,-0.2657,-0.2209,-0.179,-0.1846,-0.1986,-0.1734,-0.1595,-0.1766,-0.1961,-0.2056,-0.183,-0.1076,-0.1076,-0.1076,-0.1008,-0.1043,-0.1008,-0.1008,-0.1076,-0.1008,-0.1076,-0.1042,-0.1076,-0.1042,-0.0942,-0.0707,-0.0539,-0.0405,-0.0236,0.0,0.0,0.0,0.0,0.0,0.0,0.0,0.0,0.0,0.0,0.0,0.0,0.0,0.0,0.0,0.0,0.0,0.0,0.0,0.0,0.0,0.0,0.0,0.0,0.0,0.0,0.0,0.0,0.0,0.0,0.0,0.0,0.0,0.0,0.0,0.0,0.0,0.0,0.0,0.0,0.0,0.0,0.0,0.0,0.0,0.0,0.0,0.0,0.0,0.0,0.0,0.0,0.0,0.0,0.0,0.0,0.0,0.0,0.0,0.0,0.0,0.0,0.0,0.0,0.0,0.0,0.0,0.0,0.0,0.0,0.0,0.0,0.0,0.0,0.0,0.0,-0.1482,-0.1845,-0.2432,-0.2882,-0.3163,-0.319,-0.294,-0.2968,-0.3079,-0.2406,-0.1706,-0.1679,-0.1455,-0.1371,-0.1259,-0.1287,-0.1203,-0.1232,-0.131,-0.1356,-0.1161,-0.1009,-0.0876,-0.0707,-0.064,-0.064,-0.064,-0.064,-0.064,-0.064,-0.0741,-0.0843,-0.0843,-0.0809,-0.0674,-0.0573,-0.0438,-0.0304,-0.0202,-0.0135,0.0,0.0,0.0,0.0,0.0,0.0,0.0,0.0,0.0,0.0,0.0,0.0,0.0,0.0,0.0,0.0,0.0,0.0,0.0,0.0,0.0,0.0,0.0,0.0,0.0,0.0,0.0,0.0,0.0,0.0,0.0,0.0,0.0,0.0,0.0,0.0,0.0,0.0,0.0,0.0,0.0,0.0,0.0,0.0,0.0,0.0,0.0,0.0,0.0,0.0,0.0,0.0,0.0,0.0,0.0,0.0,0.0,0.0,0.0,0.0,0.0,0.0,0.0,0.0,0.0,0.0,0.0,0.0,0.0,0.0,0.0,0.0,0.0,0.0,0.0,0.0,-0.1398,-0.1902,-0.2069,-0.2238,-0.2266,-0.2294,-0.2266,-0.2184,-0.1316,-0.07,-0.084,-0.0812,-0.0476,-0.042,-0.0616,-0.0616,-0.0588,-0.042,-0.039,-0.0251,-0.0775,-0.0641,-0.054,-0.0472,-0.0472,-0.0472,-0.0472,-0.0472,-0.0472,-0.0506,-0.0607,-0.0641,-0.0607,-0.0472,-0.0438,-0.0371,-0.027,-0.0202,-0.0101,0.0,0.0,0.0,0.0,0.0,0.0,0.0,0.0,0.0,0.0,0.0,0.0,0.0,0.0,0.0,0.0,0.0,0.0,0.0,0.0,0.0,0.0,0.0,0.0,0.0,0.0,0.0,0.0,0.0,0.0,0.0,0.0,0.0,0.0,0.0,0.0,0.0,0.0,0.0,0.0,0.0,0.0,0.0,0.0,0.0,0.0,0.0,0.0,0.0,0.0,0.0,0.0,0.0,0.0,0.0,0.0,0.0,0.0,0.0,0.0,0.0,0.0,0.0,0.0,0.0,0.0,0.0,0.0,0.0,0.0,0.0,0.0,0.0,0.0,0.0,0.0,-0.1064,-0.1288,-0.14,-0.1428,-0.1595,-0.1733,-0.1512,-0.1177,0.0,0.0,-0.028,-0.0168,0.0,0.0084,-0.014,-0.0028,0.0112,0.028,0.0336,0.0336,-0.0506,-0.0472,-0.0438,-0.0438,-0.0438,-0.0438,-0.0405,-0.0405,-0.0438,-0.0337,-0.0304,-0.0405,-0.0438,-0.0405,-0.0304,-0.0304,-0.0236,-0.0135,-0.0034,0.0,0.0,0.0,0.0,0.0,0.0,0.0,0.0,0.0,0.0,0.0,0.0,0.0,0.0,0.0,0.0,0.0,0.0,0.0,0.0,0.0,0.0,0.0,0.0,0.0,0.0,0.0,0.0,0.0,0.0,0.0,0.0,0.0,0.0,0.0,0.0,0.0,0.0,0.0,0.0,0.0,0.0,0.0,0.0,0.0,0.0,0.0,0.0,0.0,0.0,0.0,0.0,0.0,0.0,0.0,0.0,0.0,0.0,0.0,0.0,0.0,0.0,0.0,0.0,0.0,0.0,0.0,0.0,0.0,0.0,0.0,0.0,0.0,0.0,0.0,0.0,0.0,0.0,-0.0868,-0.0952,-0.1119,-0.1147,-0.0896,0.0,0.0,0.0,0.0,0.0,0.0112,0.0168,0.0224,0.0252,0.0336,0.0449,0.0533,0.0645,-0.0438,-0.0304,-0.0169,0.0,0.0,0.0,-0.0101,0.0,0.0,-0.0067,0.0,0.0,-0.0101,0.0,-0.0067,0.0,0.0,0.0,0.0,0.0,0.0,0.0,0.0,0.0,0.0,0.0,0.0,0.0,0.0,0.0,0.0,0.0,0.0,0.0,0.0,0.0,0.0,0.0,0.0,0.0,0.0,0.0,0.0,0.0,0.0,0.0,0.0,0.0,0.0,0.0,0.0,0.0,0.0,0.0,0.0,0.0,0.0,0.0,0.0,0.0,0.0,0.0,0.0,0.0,0.0,0.0,0.0,0.0,0.0,0.0,0.0,0.0,0.0,0.0,0.0,0.0,0.0,0.0,0.0,0.0,0.0,0.0,0.0,0.0,0.0,0.0,0.0,0.0,0.0,0.0,0.0,0.0,0.0,0.0,0.0,0.0,0.0,0.0,0.0,0.0,0.0,0.0,0.0,0.0,0.0,0.0,0.0112,0.0224,0.0308,0.0364,0.0364,0.0421,0.0589,0.0673,0.0757]}]]